<?xml version="1.0" encoding="UTF-8" standalone="no" ?>
<gpx xmlns="http://www.topografix.com/GPX/1/1" xmlns:xsi="http://www.w3.org/2001/XMLSchema-instance" xsi:schemaLocation="http://www.topografix.com/GPX/1/1 http://www.topografix.com/GPX/1/1/gpx.xsd" version="1.1" creator="VisuGPX - https://www.visugpx.com">
  <metadata>
    <name>La Plagne - Les Arcs - Mars 2011 (JLo)</name>
    <desc><![CDATA[Une journée de La Plagne aux Arcs]]></desc>
  </metadata>
  <trk>
    <name><![CDATA[Position 1 to Position 2176]]></name>
    <trkseg>
      <trkpt lat="45.51437" lon="6.66755">
        <ele>2085</ele>
        <time>2011-03-18T08:15:14.999Z</time>
      </trkpt>
      <trkpt lat="45.5141" lon="6.66746">
        <ele>2078</ele>
        <time>2011-03-18T08:15:30.999Z</time>
      </trkpt>
      <trkpt lat="45.51376" lon="6.66741">
        <ele>2079</ele>
        <time>2011-03-18T08:15:46.000Z</time>
      </trkpt>
      <trkpt lat="45.51352" lon="6.66719">
        <ele>2085</ele>
        <time>2011-03-18T08:16:02.000Z</time>
      </trkpt>
      <trkpt lat="45.51329" lon="6.66698">
        <ele>2086</ele>
        <time>2011-03-18T08:16:18.000Z</time>
      </trkpt>
      <trkpt lat="45.51304" lon="6.66679">
        <ele>2090</ele>
        <time>2011-03-18T08:16:34.299Z</time>
      </trkpt>
      <trkpt lat="45.51282" lon="6.66657">
        <ele>2097</ele>
        <time>2011-03-18T08:16:50.000Z</time>
      </trkpt>
      <trkpt lat="45.51259" lon="6.66637">
        <ele>2103</ele>
        <time>2011-03-18T08:17:06.023Z</time>
      </trkpt>
      <trkpt lat="45.51234" lon="6.66619">
        <ele>2105</ele>
        <time>2011-03-18T08:17:22.031Z</time>
      </trkpt>
      <trkpt lat="45.51209" lon="6.666">
        <ele>2108</ele>
        <time>2011-03-18T08:17:37.999Z</time>
      </trkpt>
      <trkpt lat="45.51184" lon="6.66582">
        <ele>2111</ele>
        <time>2011-03-18T08:17:54.000Z</time>
      </trkpt>
      <trkpt lat="45.5116" lon="6.66563">
        <ele>2113</ele>
        <time>2011-03-18T08:18:10.000Z</time>
      </trkpt>
      <trkpt lat="45.51135" lon="6.66543">
        <ele>2115</ele>
        <time>2011-03-18T08:18:26.039Z</time>
      </trkpt>
      <trkpt lat="45.5111" lon="6.66524">
        <ele>2117</ele>
        <time>2011-03-18T08:18:42.000Z</time>
      </trkpt>
      <trkpt lat="45.51086" lon="6.66504">
        <ele>2122</ele>
        <time>2011-03-18T08:18:57.999Z</time>
      </trkpt>
      <trkpt lat="45.51064" lon="6.66482">
        <ele>2124</ele>
        <time>2011-03-18T08:19:13.000Z</time>
      </trkpt>
      <trkpt lat="45.51042" lon="6.66456">
        <ele>2127</ele>
        <time>2011-03-18T08:19:29.000Z</time>
      </trkpt>
      <trkpt lat="45.51031" lon="6.66436">
        <ele>2140</ele>
        <time>2011-03-18T08:19:44.999Z</time>
      </trkpt>
      <trkpt lat="45.51029" lon="6.66438">
        <ele>2146</ele>
        <time>2011-03-18T08:20:00.998Z</time>
      </trkpt>
      <trkpt lat="45.51046" lon="6.66417">
        <ele>2162</ele>
        <time>2011-03-18T08:20:15.999Z</time>
      </trkpt>
      <trkpt lat="45.51042" lon="6.66425">
        <ele>2165</ele>
        <time>2011-03-18T08:20:31.997Z</time>
      </trkpt>
      <trkpt lat="45.51041" lon="6.66426">
        <ele>2165</ele>
        <time>2011-03-18T08:20:46.999Z</time>
      </trkpt>
      <trkpt lat="45.5102" lon="6.66468">
        <ele>2165</ele>
        <time>2011-03-18T08:21:02.998Z</time>
      </trkpt>
      <trkpt lat="45.50989" lon="6.66518">
        <ele>2164</ele>
        <time>2011-03-18T08:21:12.997Z</time>
      </trkpt>
      <trkpt lat="45.5096" lon="6.66579">
        <ele>2164</ele>
        <time>2011-03-18T08:21:18.993Z</time>
      </trkpt>
      <trkpt lat="45.50933" lon="6.66635">
        <ele>2164</ele>
        <time>2011-03-18T08:21:23.999Z</time>
      </trkpt>
      <trkpt lat="45.50906" lon="6.66702">
        <ele>2163</ele>
        <time>2011-03-18T08:21:28.999Z</time>
      </trkpt>
      <trkpt lat="45.50884" lon="6.66767">
        <ele>2163</ele>
        <time>2011-03-18T08:21:33.999Z</time>
      </trkpt>
      <trkpt lat="45.50865" lon="6.66828">
        <ele>2162</ele>
        <time>2011-03-18T08:21:40.000Z</time>
      </trkpt>
      <trkpt lat="45.5086" lon="6.66898">
        <ele>2161</ele>
        <time>2011-03-18T08:21:48.999Z</time>
      </trkpt>
      <trkpt lat="45.50858" lon="6.66966">
        <ele>2160</ele>
        <time>2011-03-18T08:21:58.999Z</time>
      </trkpt>
      <trkpt lat="45.50824" lon="6.67019">
        <ele>2158</ele>
        <time>2011-03-18T08:22:07.999Z</time>
      </trkpt>
      <trkpt lat="45.50776" lon="6.67035">
        <ele>2155</ele>
        <time>2011-03-18T08:22:12.999Z</time>
      </trkpt>
      <trkpt lat="45.5073" lon="6.6703">
        <ele>2149</ele>
        <time>2011-03-18T08:22:19.000Z</time>
      </trkpt>
      <trkpt lat="45.50684" lon="6.67024">
        <ele>2146</ele>
        <time>2011-03-18T08:22:26.014Z</time>
      </trkpt>
      <trkpt lat="45.50637" lon="6.67039">
        <ele>2143</ele>
        <time>2011-03-18T08:22:32.999Z</time>
      </trkpt>
      <trkpt lat="45.50593" lon="6.6707">
        <ele>2140</ele>
        <time>2011-03-18T08:22:39.999Z</time>
      </trkpt>
      <trkpt lat="45.50559" lon="6.67123">
        <ele>2138</ele>
        <time>2011-03-18T08:22:47.999Z</time>
      </trkpt>
      <trkpt lat="45.50525" lon="6.67182">
        <ele>2136</ele>
        <time>2011-03-18T08:22:54.999Z</time>
      </trkpt>
      <trkpt lat="45.505" lon="6.67238">
        <ele>2135</ele>
        <time>2011-03-18T08:22:59.999Z</time>
      </trkpt>
      <trkpt lat="45.50502" lon="6.67313">
        <ele>2134</ele>
        <time>2011-03-18T08:23:04.996Z</time>
      </trkpt>
      <trkpt lat="45.50494" lon="6.67377">
        <ele>2134</ele>
        <time>2011-03-18T08:23:08.999Z</time>
      </trkpt>
      <trkpt lat="45.50476" lon="6.67451">
        <ele>2133</ele>
        <time>2011-03-18T08:23:15.999Z</time>
      </trkpt>
      <trkpt lat="45.50481" lon="6.67524">
        <ele>2132</ele>
        <time>2011-03-18T08:23:24.999Z</time>
      </trkpt>
      <trkpt lat="45.50492" lon="6.67587">
        <ele>2131</ele>
        <time>2011-03-18T08:23:34.999Z</time>
      </trkpt>
      <trkpt lat="45.50504" lon="6.67652">
        <ele>2129</ele>
        <time>2011-03-18T08:23:48.999Z</time>
      </trkpt>
      <trkpt lat="45.50519" lon="6.67698">
        <ele>2124</ele>
        <time>2011-03-18T08:24:04.993Z</time>
      </trkpt>
      <trkpt lat="45.50527" lon="6.67711">
        <ele>2114</ele>
        <time>2011-03-18T08:24:19.999Z</time>
      </trkpt>
      <trkpt lat="45.5054" lon="6.67733">
        <ele>2104</ele>
        <time>2011-03-18T08:24:35.999Z</time>
      </trkpt>
      <trkpt lat="45.50533" lon="6.67759">
        <ele>2101</ele>
        <time>2011-03-18T08:24:51.999Z</time>
      </trkpt>
      <trkpt lat="45.50524" lon="6.67777">
        <ele>2097</ele>
        <time>2011-03-18T08:25:07.999Z</time>
      </trkpt>
      <trkpt lat="45.50526" lon="6.6776">
        <ele>2066</ele>
        <time>2011-03-18T08:25:23.997Z</time>
      </trkpt>
      <trkpt lat="45.50526" lon="6.67756">
        <ele>2060</ele>
        <time>2011-03-18T08:25:39.000Z</time>
      </trkpt>
      <trkpt lat="45.50527" lon="6.67741">
        <ele>2052</ele>
        <time>2011-03-18T08:25:54.024Z</time>
      </trkpt>
      <trkpt lat="45.50532" lon="6.67737">
        <ele>2049</ele>
        <time>2011-03-18T08:26:10.039Z</time>
      </trkpt>
      <trkpt lat="45.50539" lon="6.67729">
        <ele>2047</ele>
        <time>2011-03-18T08:26:26.000Z</time>
      </trkpt>
      <trkpt lat="45.5054" lon="6.67721">
        <ele>2046</ele>
        <time>2011-03-18T08:26:42.000Z</time>
      </trkpt>
      <trkpt lat="45.50536" lon="6.67728">
        <ele>2046</ele>
        <time>2011-03-18T08:26:58.643Z</time>
      </trkpt>
      <trkpt lat="45.50533" lon="6.67721">
        <ele>2046</ele>
        <time>2011-03-18T08:27:14.000Z</time>
      </trkpt>
      <trkpt lat="45.50538" lon="6.67712">
        <ele>2046</ele>
        <time>2011-03-18T08:27:36.999Z</time>
      </trkpt>
      <trkpt lat="45.50538" lon="6.67724">
        <ele>2046</ele>
        <time>2011-03-18T08:28:06.999Z</time>
      </trkpt>
      <trkpt lat="45.50498" lon="6.67738">
        <ele>2046</ele>
        <time>2011-03-18T08:28:27.999Z</time>
      </trkpt>
      <trkpt lat="45.50455" lon="6.67758">
        <ele>2047</ele>
        <time>2011-03-18T08:28:34.999Z</time>
      </trkpt>
      <trkpt lat="45.50411" lon="6.6778">
        <ele>2048</ele>
        <time>2011-03-18T08:28:42.999Z</time>
      </trkpt>
      <trkpt lat="45.50367" lon="6.67802">
        <ele>2051</ele>
        <time>2011-03-18T08:28:50.999Z</time>
      </trkpt>
      <trkpt lat="45.50319" lon="6.67823">
        <ele>2059</ele>
        <time>2011-03-18T08:28:59.994Z</time>
      </trkpt>
      <trkpt lat="45.50272" lon="6.67841">
        <ele>2067</ele>
        <time>2011-03-18T08:29:09.999Z</time>
      </trkpt>
      <trkpt lat="45.50223" lon="6.67845">
        <ele>2071</ele>
        <time>2011-03-18T08:29:19.999Z</time>
      </trkpt>
      <trkpt lat="45.5018" lon="6.67871">
        <ele>2084</ele>
        <time>2011-03-18T08:29:29.000Z</time>
      </trkpt>
      <trkpt lat="45.50141" lon="6.67902">
        <ele>2096</ele>
        <time>2011-03-18T08:29:35.999Z</time>
      </trkpt>
      <trkpt lat="45.50095" lon="6.67935">
        <ele>2107</ele>
        <time>2011-03-18T08:29:44.999Z</time>
      </trkpt>
      <trkpt lat="45.50052" lon="6.67959">
        <ele>2116</ele>
        <time>2011-03-18T08:29:52.998Z</time>
      </trkpt>
      <trkpt lat="45.50007" lon="6.67988">
        <ele>2126</ele>
        <time>2011-03-18T08:30:01.998Z</time>
      </trkpt>
      <trkpt lat="45.49963" lon="6.68017">
        <ele>2140</ele>
        <time>2011-03-18T08:30:10.999Z</time>
      </trkpt>
      <trkpt lat="45.49921" lon="6.68042">
        <ele>2149</ele>
        <time>2011-03-18T08:30:18.998Z</time>
      </trkpt>
      <trkpt lat="45.49879" lon="6.68072">
        <ele>2158</ele>
        <time>2011-03-18T08:30:27.999Z</time>
      </trkpt>
      <trkpt lat="45.49832" lon="6.68092">
        <ele>2173</ele>
        <time>2011-03-18T08:30:37.999Z</time>
      </trkpt>
      <trkpt lat="45.49785" lon="6.68108">
        <ele>2185</ele>
        <time>2011-03-18T08:30:46.999Z</time>
      </trkpt>
      <trkpt lat="45.49737" lon="6.68129">
        <ele>2201</ele>
        <time>2011-03-18T08:30:56.000Z</time>
      </trkpt>
      <trkpt lat="45.49691" lon="6.68156">
        <ele>2212</ele>
        <time>2011-03-18T08:31:04.999Z</time>
      </trkpt>
      <trkpt lat="45.49647" lon="6.68184">
        <ele>2229</ele>
        <time>2011-03-18T08:31:13.999Z</time>
      </trkpt>
      <trkpt lat="45.49604" lon="6.6821">
        <ele>2243</ele>
        <time>2011-03-18T08:31:22.999Z</time>
      </trkpt>
      <trkpt lat="45.4956" lon="6.68233">
        <ele>2255</ele>
        <time>2011-03-18T08:31:31.000Z</time>
      </trkpt>
      <trkpt lat="45.49515" lon="6.68249">
        <ele>2267</ele>
        <time>2011-03-18T08:31:37.998Z</time>
      </trkpt>
      <trkpt lat="45.49468" lon="6.68272">
        <ele>2275</ele>
        <time>2011-03-18T08:31:42.996Z</time>
      </trkpt>
      <trkpt lat="45.49422" lon="6.68295">
        <ele>2288</ele>
        <time>2011-03-18T08:31:49.991Z</time>
      </trkpt>
      <trkpt lat="45.49372" lon="6.68319">
        <ele>2295</ele>
        <time>2011-03-18T08:31:55.996Z</time>
      </trkpt>
      <trkpt lat="45.49327" lon="6.68343">
        <ele>2302</ele>
        <time>2011-03-18T08:32:01.999Z</time>
      </trkpt>
      <trkpt lat="45.49333" lon="6.68332">
        <ele>2355</ele>
        <time>2011-03-18T08:32:18.000Z</time>
      </trkpt>
      <trkpt lat="45.49295" lon="6.68377">
        <ele>2390</ele>
        <time>2011-03-18T08:32:30.999Z</time>
      </trkpt>
      <trkpt lat="45.49253" lon="6.68411">
        <ele>2406</ele>
        <time>2011-03-18T08:32:40.997Z</time>
      </trkpt>
      <trkpt lat="45.49215" lon="6.68447">
        <ele>2413</ele>
        <time>2011-03-18T08:32:48.999Z</time>
      </trkpt>
      <trkpt lat="45.49206" lon="6.68466">
        <ele>2417</ele>
        <time>2011-03-18T08:33:04.992Z</time>
      </trkpt>
      <trkpt lat="45.49195" lon="6.68464">
        <ele>2429</ele>
        <time>2011-03-18T08:33:19.999Z</time>
      </trkpt>
      <trkpt lat="45.49191" lon="6.68446">
        <ele>2441</ele>
        <time>2011-03-18T08:33:35.999Z</time>
      </trkpt>
      <trkpt lat="45.49159" lon="6.6843">
        <ele>2472</ele>
        <time>2011-03-18T08:33:51.996Z</time>
      </trkpt>
      <trkpt lat="45.49153" lon="6.6843">
        <ele>2490</ele>
        <time>2011-03-18T08:34:06.999Z</time>
      </trkpt>
      <trkpt lat="45.4915" lon="6.68428">
        <ele>2509</ele>
        <time>2011-03-18T08:34:23.010Z</time>
      </trkpt>
      <trkpt lat="45.49149" lon="6.68431">
        <ele>2518</ele>
        <time>2011-03-18T08:34:39.000Z</time>
      </trkpt>
      <trkpt lat="45.49153" lon="6.68461">
        <ele>2520</ele>
        <time>2011-03-18T08:34:54.999Z</time>
      </trkpt>
      <trkpt lat="45.49163" lon="6.68531">
        <ele>2519</ele>
        <time>2011-03-18T08:35:02.999Z</time>
      </trkpt>
      <trkpt lat="45.49169" lon="6.686">
        <ele>2518</ele>
        <time>2011-03-18T08:35:08.999Z</time>
      </trkpt>
      <trkpt lat="45.49167" lon="6.68675">
        <ele>2515</ele>
        <time>2011-03-18T08:35:15.999Z</time>
      </trkpt>
      <trkpt lat="45.49167" lon="6.68747">
        <ele>2514</ele>
        <time>2011-03-18T08:35:21.999Z</time>
      </trkpt>
      <trkpt lat="45.49168" lon="6.68817">
        <ele>2513</ele>
        <time>2011-03-18T08:35:27.999Z</time>
      </trkpt>
      <trkpt lat="45.49186" lon="6.68888">
        <ele>2510</ele>
        <time>2011-03-18T08:35:35.999Z</time>
      </trkpt>
      <trkpt lat="45.492" lon="6.68955">
        <ele>2506</ele>
        <time>2011-03-18T08:35:41.999Z</time>
      </trkpt>
      <trkpt lat="45.49238" lon="6.68998">
        <ele>2501</ele>
        <time>2011-03-18T08:35:48.999Z</time>
      </trkpt>
      <trkpt lat="45.49286" lon="6.69035">
        <ele>2499</ele>
        <time>2011-03-18T08:35:53.997Z</time>
      </trkpt>
      <trkpt lat="45.49342" lon="6.69058">
        <ele>2497</ele>
        <time>2011-03-18T08:35:57.990Z</time>
      </trkpt>
      <trkpt lat="45.49394" lon="6.6908">
        <ele>2495</ele>
        <time>2011-03-18T08:36:00.999Z</time>
      </trkpt>
      <trkpt lat="45.49448" lon="6.69102">
        <ele>2494</ele>
        <time>2011-03-18T08:36:03.999Z</time>
      </trkpt>
      <trkpt lat="45.49506" lon="6.69125">
        <ele>2493</ele>
        <time>2011-03-18T08:36:07.999Z</time>
      </trkpt>
      <trkpt lat="45.49562" lon="6.69139">
        <ele>2487</ele>
        <time>2011-03-18T08:36:11.999Z</time>
      </trkpt>
      <trkpt lat="45.4961" lon="6.69144">
        <ele>2482</ele>
        <time>2011-03-18T08:36:15.995Z</time>
      </trkpt>
      <trkpt lat="45.49654" lon="6.69166">
        <ele>2462</ele>
        <time>2011-03-18T08:36:24.999Z</time>
      </trkpt>
      <trkpt lat="45.49708" lon="6.69187">
        <ele>2453</ele>
        <time>2011-03-18T08:36:32.000Z</time>
      </trkpt>
      <trkpt lat="45.49766" lon="6.69232">
        <ele>2442</ele>
        <time>2011-03-18T08:36:38.008Z</time>
      </trkpt>
      <trkpt lat="45.49812" lon="6.69223">
        <ele>2438</ele>
        <time>2011-03-18T08:36:40.994Z</time>
      </trkpt>
      <trkpt lat="45.4986" lon="6.69208">
        <ele>2431</ele>
        <time>2011-03-18T08:36:44.999Z</time>
      </trkpt>
      <trkpt lat="45.49904" lon="6.69183">
        <ele>2425</ele>
        <time>2011-03-18T08:36:49.998Z</time>
      </trkpt>
      <trkpt lat="45.49947" lon="6.69149">
        <ele>2407</ele>
        <time>2011-03-18T08:36:57.999Z</time>
      </trkpt>
      <trkpt lat="45.49908" lon="6.69144">
        <ele>2343</ele>
        <time>2011-03-18T08:37:13.000Z</time>
      </trkpt>
      <trkpt lat="45.499" lon="6.69145">
        <ele>2325</ele>
        <time>2011-03-18T08:37:28.997Z</time>
      </trkpt>
      <trkpt lat="45.49897" lon="6.69144">
        <ele>2321</ele>
        <time>2011-03-18T08:37:43.999Z</time>
      </trkpt>
      <trkpt lat="45.49941" lon="6.69166">
        <ele>2321</ele>
        <time>2011-03-18T08:37:52.999Z</time>
      </trkpt>
      <trkpt lat="45.4999" lon="6.69198">
        <ele>2320</ele>
        <time>2011-03-18T08:37:56.000Z</time>
      </trkpt>
      <trkpt lat="45.50038" lon="6.69231">
        <ele>2314</ele>
        <time>2011-03-18T08:37:59.999Z</time>
      </trkpt>
      <trkpt lat="45.50097" lon="6.69232">
        <ele>2308</ele>
        <time>2011-03-18T08:38:06.997Z</time>
      </trkpt>
      <trkpt lat="45.50149" lon="6.69236">
        <ele>2301</ele>
        <time>2011-03-18T08:38:13.000Z</time>
      </trkpt>
      <trkpt lat="45.50199" lon="6.69255">
        <ele>2297</ele>
        <time>2011-03-18T08:38:17.999Z</time>
      </trkpt>
      <trkpt lat="45.50239" lon="6.69285">
        <ele>2293</ele>
        <time>2011-03-18T08:38:21.997Z</time>
      </trkpt>
      <trkpt lat="45.50287" lon="6.69323">
        <ele>2289</ele>
        <time>2011-03-18T08:38:26.998Z</time>
      </trkpt>
      <trkpt lat="45.50333" lon="6.69357">
        <ele>2284</ele>
        <time>2011-03-18T08:38:31.993Z</time>
      </trkpt>
      <trkpt lat="45.50379" lon="6.69362">
        <ele>2280</ele>
        <time>2011-03-18T08:38:36.999Z</time>
      </trkpt>
      <trkpt lat="45.50404" lon="6.69432">
        <ele>2268</ele>
        <time>2011-03-18T08:38:42.993Z</time>
      </trkpt>
      <trkpt lat="45.50423" lon="6.69495">
        <ele>2260</ele>
        <time>2011-03-18T08:38:47.999Z</time>
      </trkpt>
      <trkpt lat="45.50474" lon="6.6953">
        <ele>2253</ele>
        <time>2011-03-18T08:38:53.999Z</time>
      </trkpt>
      <trkpt lat="45.50524" lon="6.69551">
        <ele>2248</ele>
        <time>2011-03-18T08:38:58.997Z</time>
      </trkpt>
      <trkpt lat="45.50567" lon="6.69569">
        <ele>2243</ele>
        <time>2011-03-18T08:39:03.999Z</time>
      </trkpt>
      <trkpt lat="45.50608" lon="6.69607">
        <ele>2234</ele>
        <time>2011-03-18T08:39:12.996Z</time>
      </trkpt>
      <trkpt lat="45.50634" lon="6.69669">
        <ele>2221</ele>
        <time>2011-03-18T08:39:21.999Z</time>
      </trkpt>
      <trkpt lat="45.5066" lon="6.69725">
        <ele>2212</ele>
        <time>2011-03-18T08:39:28.999Z</time>
      </trkpt>
      <trkpt lat="45.50692" lon="6.69772">
        <ele>2205</ele>
        <time>2011-03-18T08:39:34.998Z</time>
      </trkpt>
      <trkpt lat="45.50736" lon="6.69791">
        <ele>2197</ele>
        <time>2011-03-18T08:39:43.998Z</time>
      </trkpt>
      <trkpt lat="45.50734" lon="6.69856">
        <ele>2185</ele>
        <time>2011-03-18T08:39:50.993Z</time>
      </trkpt>
      <trkpt lat="45.50751" lon="6.69928">
        <ele>2183</ele>
        <time>2011-03-18T08:39:56.992Z</time>
      </trkpt>
      <trkpt lat="45.50769" lon="6.69987">
        <ele>2178</ele>
        <time>2011-03-18T08:40:03.000Z</time>
      </trkpt>
      <trkpt lat="45.50799" lon="6.70049">
        <ele>2171</ele>
        <time>2011-03-18T08:40:09.988Z</time>
      </trkpt>
      <trkpt lat="45.50848" lon="6.70071">
        <ele>2170</ele>
        <time>2011-03-18T08:40:15.984Z</time>
      </trkpt>
      <trkpt lat="45.50906" lon="6.70073">
        <ele>2169</ele>
        <time>2011-03-18T08:40:20.999Z</time>
      </trkpt>
      <trkpt lat="45.50961" lon="6.70066">
        <ele>2165</ele>
        <time>2011-03-18T08:40:23.999Z</time>
      </trkpt>
      <trkpt lat="45.51023" lon="6.70059">
        <ele>2160</ele>
        <time>2011-03-18T08:40:28.000Z</time>
      </trkpt>
      <trkpt lat="45.5107" lon="6.70048">
        <ele>2157</ele>
        <time>2011-03-18T08:40:30.999Z</time>
      </trkpt>
      <trkpt lat="45.51114" lon="6.70035">
        <ele>2155</ele>
        <time>2011-03-18T08:40:33.999Z</time>
      </trkpt>
      <trkpt lat="45.51159" lon="6.70015">
        <ele>2152</ele>
        <time>2011-03-18T08:40:36.999Z</time>
      </trkpt>
      <trkpt lat="45.51207" lon="6.69988">
        <ele>2147</ele>
        <time>2011-03-18T08:40:40.994Z</time>
      </trkpt>
      <trkpt lat="45.51246" lon="6.69951">
        <ele>2143</ele>
        <time>2011-03-18T08:40:44.999Z</time>
      </trkpt>
      <trkpt lat="45.51284" lon="6.69916">
        <ele>2136</ele>
        <time>2011-03-18T08:40:49.993Z</time>
      </trkpt>
      <trkpt lat="45.51277" lon="6.69864">
        <ele>2098</ele>
        <time>2011-03-18T08:41:04.999Z</time>
      </trkpt>
      <trkpt lat="45.5126" lon="6.69859">
        <ele>2067</ele>
        <time>2011-03-18T08:41:20.999Z</time>
      </trkpt>
      <trkpt lat="45.51251" lon="6.69865">
        <ele>2047</ele>
        <time>2011-03-18T08:41:36.995Z</time>
      </trkpt>
      <trkpt lat="45.51241" lon="6.69865">
        <ele>2034</ele>
        <time>2011-03-18T08:41:52.000Z</time>
      </trkpt>
      <trkpt lat="45.51241" lon="6.69866">
        <ele>2030</ele>
        <time>2011-03-18T08:42:08.000Z</time>
      </trkpt>
      <trkpt lat="45.51241" lon="6.69868">
        <ele>2023</ele>
        <time>2011-03-18T08:42:23.999Z</time>
      </trkpt>
      <trkpt lat="45.51239" lon="6.69867">
        <ele>2021</ele>
        <time>2011-03-18T08:42:39.000Z</time>
      </trkpt>
      <trkpt lat="45.51241" lon="6.69867">
        <ele>2019</ele>
        <time>2011-03-18T08:42:54.999Z</time>
      </trkpt>
      <trkpt lat="45.51241" lon="6.69868">
        <ele>2018</ele>
        <time>2011-03-18T08:43:10.993Z</time>
      </trkpt>
      <trkpt lat="45.51269" lon="6.69921">
        <ele>2017</ele>
        <time>2011-03-18T08:43:15.999Z</time>
      </trkpt>
      <trkpt lat="45.51298" lon="6.69972">
        <ele>2017</ele>
        <time>2011-03-18T08:43:22.999Z</time>
      </trkpt>
      <trkpt lat="45.51332" lon="6.70022">
        <ele>2017</ele>
        <time>2011-03-18T08:43:30.999Z</time>
      </trkpt>
      <trkpt lat="45.51363" lon="6.70074">
        <ele>2021</ele>
        <time>2011-03-18T08:43:40.038Z</time>
      </trkpt>
      <trkpt lat="45.51396" lon="6.70125">
        <ele>2027</ele>
        <time>2011-03-18T08:43:49.000Z</time>
      </trkpt>
      <trkpt lat="45.5143" lon="6.70175">
        <ele>2034</ele>
        <time>2011-03-18T08:43:57.999Z</time>
      </trkpt>
      <trkpt lat="45.51465" lon="6.70223">
        <ele>2038</ele>
        <time>2011-03-18T08:44:06.999Z</time>
      </trkpt>
      <trkpt lat="45.51495" lon="6.70275">
        <ele>2054</ele>
        <time>2011-03-18T08:44:16.997Z</time>
      </trkpt>
      <trkpt lat="45.51521" lon="6.70329">
        <ele>2089</ele>
        <time>2011-03-18T08:44:29.997Z</time>
      </trkpt>
      <trkpt lat="45.51545" lon="6.70386">
        <ele>2145</ele>
        <time>2011-03-18T08:44:44.999Z</time>
      </trkpt>
      <trkpt lat="45.51571" lon="6.70441">
        <ele>2167</ele>
        <time>2011-03-18T08:44:55.999Z</time>
      </trkpt>
      <trkpt lat="45.51604" lon="6.70494">
        <ele>2183</ele>
        <time>2011-03-18T08:45:05.999Z</time>
      </trkpt>
      <trkpt lat="45.51634" lon="6.70546">
        <ele>2197</ele>
        <time>2011-03-18T08:45:16.000Z</time>
      </trkpt>
      <trkpt lat="45.51665" lon="6.70602">
        <ele>2207</ele>
        <time>2011-03-18T08:45:26.000Z</time>
      </trkpt>
      <trkpt lat="45.51693" lon="6.70654">
        <ele>2211</ele>
        <time>2011-03-18T08:45:34.999Z</time>
      </trkpt>
      <trkpt lat="45.51721" lon="6.70706">
        <ele>2217</ele>
        <time>2011-03-18T08:45:43.999Z</time>
      </trkpt>
      <trkpt lat="45.51752" lon="6.70761">
        <ele>2224</ele>
        <time>2011-03-18T08:45:53.999Z</time>
      </trkpt>
      <trkpt lat="45.51783" lon="6.70815">
        <ele>2232</ele>
        <time>2011-03-18T08:46:04.000Z</time>
      </trkpt>
      <trkpt lat="45.51811" lon="6.70867">
        <ele>2237</ele>
        <time>2011-03-18T08:46:13.000Z</time>
      </trkpt>
      <trkpt lat="45.51842" lon="6.7092">
        <ele>2245</ele>
        <time>2011-03-18T08:46:22.999Z</time>
      </trkpt>
      <trkpt lat="45.51872" lon="6.70972">
        <ele>2254</ele>
        <time>2011-03-18T08:46:32.996Z</time>
      </trkpt>
      <trkpt lat="45.51903" lon="6.71022">
        <ele>2267</ele>
        <time>2011-03-18T08:46:42.999Z</time>
      </trkpt>
      <trkpt lat="45.51934" lon="6.7107">
        <ele>2282</ele>
        <time>2011-03-18T08:46:52.999Z</time>
      </trkpt>
      <trkpt lat="45.51963" lon="6.71121">
        <ele>2298</ele>
        <time>2011-03-18T08:47:02.993Z</time>
      </trkpt>
      <trkpt lat="45.51992" lon="6.71171">
        <ele>2314</ele>
        <time>2011-03-18T08:47:12.997Z</time>
      </trkpt>
      <trkpt lat="45.52024" lon="6.71225">
        <ele>2324</ele>
        <time>2011-03-18T08:47:22.999Z</time>
      </trkpt>
      <trkpt lat="45.52055" lon="6.71279">
        <ele>2335</ele>
        <time>2011-03-18T08:47:33.000Z</time>
      </trkpt>
      <trkpt lat="45.52085" lon="6.71333">
        <ele>2347</ele>
        <time>2011-03-18T08:47:42.999Z</time>
      </trkpt>
      <trkpt lat="45.52113" lon="6.71384">
        <ele>2353</ele>
        <time>2011-03-18T08:47:51.996Z</time>
      </trkpt>
      <trkpt lat="45.52145" lon="6.71439">
        <ele>2358</ele>
        <time>2011-03-18T08:48:01.999Z</time>
      </trkpt>
      <trkpt lat="45.52173" lon="6.71489">
        <ele>2363</ele>
        <time>2011-03-18T08:48:10.995Z</time>
      </trkpt>
      <trkpt lat="45.52203" lon="6.71545">
        <ele>2369</ele>
        <time>2011-03-18T08:48:21.000Z</time>
      </trkpt>
      <trkpt lat="45.52233" lon="6.71598">
        <ele>2377</ele>
        <time>2011-03-18T08:48:30.999Z</time>
      </trkpt>
      <trkpt lat="45.52263" lon="6.71649">
        <ele>2379</ele>
        <time>2011-03-18T08:48:40.999Z</time>
      </trkpt>
      <trkpt lat="45.52284" lon="6.71673">
        <ele>2380</ele>
        <time>2011-03-18T08:48:56.999Z</time>
      </trkpt>
      <trkpt lat="45.52288" lon="6.71673">
        <ele>2386</ele>
        <time>2011-03-18T08:49:12.997Z</time>
      </trkpt>
      <trkpt lat="45.52327" lon="6.717">
        <ele>2381</ele>
        <time>2011-03-18T08:49:28.999Z</time>
      </trkpt>
      <trkpt lat="45.52357" lon="6.7175">
        <ele>2379</ele>
        <time>2011-03-18T08:49:32.997Z</time>
      </trkpt>
      <trkpt lat="45.52378" lon="6.7182">
        <ele>2377</ele>
        <time>2011-03-18T08:49:37.042Z</time>
      </trkpt>
      <trkpt lat="45.52398" lon="6.71887">
        <ele>2374</ele>
        <time>2011-03-18T08:49:40.999Z</time>
      </trkpt>
      <trkpt lat="45.52428" lon="6.71936">
        <ele>2372</ele>
        <time>2011-03-18T08:49:45.000Z</time>
      </trkpt>
      <trkpt lat="45.5247" lon="6.71978">
        <ele>2370</ele>
        <time>2011-03-18T08:49:51.000Z</time>
      </trkpt>
      <trkpt lat="45.52522" lon="6.72004">
        <ele>2369</ele>
        <time>2011-03-18T08:49:58.999Z</time>
      </trkpt>
      <trkpt lat="45.52567" lon="6.72031">
        <ele>2368</ele>
        <time>2011-03-18T08:50:12.980Z</time>
      </trkpt>
      <trkpt lat="45.52594" lon="6.72075">
        <ele>2361</ele>
        <time>2011-03-18T08:50:27.999Z</time>
      </trkpt>
      <trkpt lat="45.52607" lon="6.72101">
        <ele>2356</ele>
        <time>2011-03-18T08:50:43.999Z</time>
      </trkpt>
      <trkpt lat="45.52624" lon="6.7212">
        <ele>2353</ele>
        <time>2011-03-18T08:50:59.999Z</time>
      </trkpt>
      <trkpt lat="45.5265" lon="6.72151">
        <ele>2349</ele>
        <time>2011-03-18T08:51:15.997Z</time>
      </trkpt>
      <trkpt lat="45.52675" lon="6.72179">
        <ele>2347</ele>
        <time>2011-03-18T08:51:30.999Z</time>
      </trkpt>
      <trkpt lat="45.52691" lon="6.72199">
        <ele>2344</ele>
        <time>2011-03-18T08:51:46.999Z</time>
      </trkpt>
      <trkpt lat="45.52709" lon="6.72223">
        <ele>2343</ele>
        <time>2011-03-18T08:52:02.999Z</time>
      </trkpt>
      <trkpt lat="45.52726" lon="6.7224">
        <ele>2342</ele>
        <time>2011-03-18T08:52:18.999Z</time>
      </trkpt>
      <trkpt lat="45.52766" lon="6.7228">
        <ele>2339</ele>
        <time>2011-03-18T08:52:29.999Z</time>
      </trkpt>
      <trkpt lat="45.52801" lon="6.72294">
        <ele>2338</ele>
        <time>2011-03-18T08:52:45.998Z</time>
      </trkpt>
      <trkpt lat="45.52804" lon="6.72301">
        <ele>2339</ele>
        <time>2011-03-18T08:53:01.000Z</time>
      </trkpt>
      <trkpt lat="45.52844" lon="6.72323">
        <ele>2335</ele>
        <time>2011-03-18T08:53:16.997Z</time>
      </trkpt>
      <trkpt lat="45.5289" lon="6.72317">
        <ele>2333</ele>
        <time>2011-03-18T08:53:23.999Z</time>
      </trkpt>
      <trkpt lat="45.52937" lon="6.72311">
        <ele>2332</ele>
        <time>2011-03-18T08:53:31.999Z</time>
      </trkpt>
      <trkpt lat="45.52983" lon="6.72339">
        <ele>2328</ele>
        <time>2011-03-18T08:53:38.987Z</time>
      </trkpt>
      <trkpt lat="45.53024" lon="6.72375">
        <ele>2322</ele>
        <time>2011-03-18T08:53:45.999Z</time>
      </trkpt>
      <trkpt lat="45.53065" lon="6.72416">
        <ele>2318</ele>
        <time>2011-03-18T08:53:52.999Z</time>
      </trkpt>
      <trkpt lat="45.53105" lon="6.72452">
        <ele>2313</ele>
        <time>2011-03-18T08:53:59.999Z</time>
      </trkpt>
      <trkpt lat="45.5315" lon="6.72491">
        <ele>2307</ele>
        <time>2011-03-18T08:54:06.999Z</time>
      </trkpt>
      <trkpt lat="45.53194" lon="6.72532">
        <ele>2303</ele>
        <time>2011-03-18T08:54:12.996Z</time>
      </trkpt>
      <trkpt lat="45.53234" lon="6.72569">
        <ele>2298</ele>
        <time>2011-03-18T08:54:18.988Z</time>
      </trkpt>
      <trkpt lat="45.5328" lon="6.72604">
        <ele>2291</ele>
        <time>2011-03-18T08:54:25.999Z</time>
      </trkpt>
      <trkpt lat="45.53318" lon="6.72643">
        <ele>2285</ele>
        <time>2011-03-18T08:54:33.992Z</time>
      </trkpt>
      <trkpt lat="45.53326" lon="6.72642">
        <ele>2261</ele>
        <time>2011-03-18T08:54:49.000Z</time>
      </trkpt>
      <trkpt lat="45.53372" lon="6.72664">
        <ele>2257</ele>
        <time>2011-03-18T08:54:57.999Z</time>
      </trkpt>
      <trkpt lat="45.53403" lon="6.72717">
        <ele>2251</ele>
        <time>2011-03-18T08:55:04.999Z</time>
      </trkpt>
      <trkpt lat="45.53408" lon="6.7279">
        <ele>2246</ele>
        <time>2011-03-18T08:55:08.997Z</time>
      </trkpt>
      <trkpt lat="45.53417" lon="6.7286">
        <ele>2239</ele>
        <time>2011-03-18T08:55:13.996Z</time>
      </trkpt>
      <trkpt lat="45.53424" lon="6.72924">
        <ele>2231</ele>
        <time>2011-03-18T08:55:17.999Z</time>
      </trkpt>
      <trkpt lat="45.53439" lon="6.72986">
        <ele>2225</ele>
        <time>2011-03-18T08:55:21.999Z</time>
      </trkpt>
      <trkpt lat="45.53465" lon="6.73051">
        <ele>2217</ele>
        <time>2011-03-18T08:55:27.991Z</time>
      </trkpt>
      <trkpt lat="45.535" lon="6.73093">
        <ele>2210</ele>
        <time>2011-03-18T08:55:33.999Z</time>
      </trkpt>
      <trkpt lat="45.53548" lon="6.73105">
        <ele>2206</ele>
        <time>2011-03-18T08:55:38.998Z</time>
      </trkpt>
      <trkpt lat="45.53594" lon="6.73075">
        <ele>2203</ele>
        <time>2011-03-18T08:55:43.999Z</time>
      </trkpt>
      <trkpt lat="45.53621" lon="6.73018">
        <ele>2201</ele>
        <time>2011-03-18T08:55:48.999Z</time>
      </trkpt>
      <trkpt lat="45.53605" lon="6.72954">
        <ele>2178</ele>
        <time>2011-03-18T08:55:53.999Z</time>
      </trkpt>
      <trkpt lat="45.53615" lon="6.72883">
        <ele>2170</ele>
        <time>2011-03-18T08:56:00.997Z</time>
      </trkpt>
      <trkpt lat="45.53636" lon="6.72824">
        <ele>2166</ele>
        <time>2011-03-18T08:56:06.999Z</time>
      </trkpt>
      <trkpt lat="45.53645" lon="6.72761">
        <ele>2154</ele>
        <time>2011-03-18T08:56:17.000Z</time>
      </trkpt>
      <trkpt lat="45.53681" lon="6.72713">
        <ele>2148</ele>
        <time>2011-03-18T08:56:23.996Z</time>
      </trkpt>
      <trkpt lat="45.53733" lon="6.72697">
        <ele>2144</ele>
        <time>2011-03-18T08:56:29.999Z</time>
      </trkpt>
      <trkpt lat="45.53779" lon="6.72677">
        <ele>2141</ele>
        <time>2011-03-18T08:56:34.997Z</time>
      </trkpt>
      <trkpt lat="45.53777" lon="6.7261">
        <ele>2117</ele>
        <time>2011-03-18T08:56:40.997Z</time>
      </trkpt>
      <trkpt lat="45.53768" lon="6.72536">
        <ele>2103</ele>
        <time>2011-03-18T08:56:45.999Z</time>
      </trkpt>
      <trkpt lat="45.5376" lon="6.72461">
        <ele>2096</ele>
        <time>2011-03-18T08:56:50.987Z</time>
      </trkpt>
      <trkpt lat="45.53758" lon="6.72391">
        <ele>2093</ele>
        <time>2011-03-18T08:56:54.984Z</time>
      </trkpt>
      <trkpt lat="45.5376" lon="6.7232">
        <ele>2090</ele>
        <time>2011-03-18T08:56:58.981Z</time>
      </trkpt>
      <trkpt lat="45.5376" lon="6.7225">
        <ele>2087</ele>
        <time>2011-03-18T08:57:02.999Z</time>
      </trkpt>
      <trkpt lat="45.53766" lon="6.72185">
        <ele>2083</ele>
        <time>2011-03-18T08:57:07.999Z</time>
      </trkpt>
      <trkpt lat="45.53782" lon="6.72247">
        <ele>2028</ele>
        <time>2011-03-18T08:57:16.999Z</time>
      </trkpt>
      <trkpt lat="45.53829" lon="6.72248">
        <ele>2020</ele>
        <time>2011-03-18T08:57:25.987Z</time>
      </trkpt>
      <trkpt lat="45.5388" lon="6.72266">
        <ele>2017</ele>
        <time>2011-03-18T08:57:31.997Z</time>
      </trkpt>
      <trkpt lat="45.53926" lon="6.72282">
        <ele>2015</ele>
        <time>2011-03-18T08:57:38.000Z</time>
      </trkpt>
      <trkpt lat="45.5396" lon="6.72326">
        <ele>2008</ele>
        <time>2011-03-18T08:57:43.999Z</time>
      </trkpt>
      <trkpt lat="45.53974" lon="6.72388">
        <ele>1993</ele>
        <time>2011-03-18T08:57:57.997Z</time>
      </trkpt>
      <trkpt lat="45.53976" lon="6.72463">
        <ele>1979</ele>
        <time>2011-03-18T08:58:10.989Z</time>
      </trkpt>
      <trkpt lat="45.53995" lon="6.7253">
        <ele>1975</ele>
        <time>2011-03-18T08:58:16.999Z</time>
      </trkpt>
      <trkpt lat="45.54043" lon="6.72556">
        <ele>1973</ele>
        <time>2011-03-18T08:58:21.999Z</time>
      </trkpt>
      <trkpt lat="45.54092" lon="6.72568">
        <ele>1971</ele>
        <time>2011-03-18T08:58:26.999Z</time>
      </trkpt>
      <trkpt lat="45.5414" lon="6.72557">
        <ele>1969</ele>
        <time>2011-03-18T08:58:32.999Z</time>
      </trkpt>
      <trkpt lat="45.54185" lon="6.72546">
        <ele>1968</ele>
        <time>2011-03-18T08:58:36.999Z</time>
      </trkpt>
      <trkpt lat="45.54236" lon="6.72562">
        <ele>1966</ele>
        <time>2011-03-18T08:58:41.999Z</time>
      </trkpt>
      <trkpt lat="45.54281" lon="6.72582">
        <ele>1965</ele>
        <time>2011-03-18T08:58:47.999Z</time>
      </trkpt>
      <trkpt lat="45.54329" lon="6.7259">
        <ele>1961</ele>
        <time>2011-03-18T08:58:54.998Z</time>
      </trkpt>
      <trkpt lat="45.54353" lon="6.72652">
        <ele>1940</ele>
        <time>2011-03-18T08:59:01.999Z</time>
      </trkpt>
      <trkpt lat="45.54384" lon="6.72703">
        <ele>1937</ele>
        <time>2011-03-18T08:59:05.999Z</time>
      </trkpt>
      <trkpt lat="45.54411" lon="6.72759">
        <ele>1925</ele>
        <time>2011-03-18T08:59:11.999Z</time>
      </trkpt>
      <trkpt lat="45.54426" lon="6.72822">
        <ele>1900</ele>
        <time>2011-03-18T08:59:19.999Z</time>
      </trkpt>
      <trkpt lat="45.54478" lon="6.72812">
        <ele>1894</ele>
        <time>2011-03-18T08:59:27.996Z</time>
      </trkpt>
      <trkpt lat="45.54524" lon="6.7278">
        <ele>1890</ele>
        <time>2011-03-18T08:59:31.997Z</time>
      </trkpt>
      <trkpt lat="45.54574" lon="6.72766">
        <ele>1887</ele>
        <time>2011-03-18T08:59:35.995Z</time>
      </trkpt>
      <trkpt lat="45.54603" lon="6.72827">
        <ele>1885</ele>
        <time>2011-03-18T08:59:41.991Z</time>
      </trkpt>
      <trkpt lat="45.54589" lon="6.729">
        <ele>1864</ele>
        <time>2011-03-18T08:59:46.991Z</time>
      </trkpt>
      <trkpt lat="45.54573" lon="6.72961">
        <ele>1849</ele>
        <time>2011-03-18T08:59:51.999Z</time>
      </trkpt>
      <trkpt lat="45.54588" lon="6.7304">
        <ele>1840</ele>
        <time>2011-03-18T08:59:56.978Z</time>
      </trkpt>
      <trkpt lat="45.54607" lon="6.73099">
        <ele>1833</ele>
        <time>2011-03-18T08:59:59.999Z</time>
      </trkpt>
      <trkpt lat="45.54637" lon="6.73163">
        <ele>1823</ele>
        <time>2011-03-18T09:00:03.998Z</time>
      </trkpt>
      <trkpt lat="45.54645" lon="6.73201">
        <ele>1787</ele>
        <time>2011-03-18T09:00:19.981Z</time>
      </trkpt>
      <trkpt lat="45.54666" lon="6.73241">
        <ele>1769</ele>
        <time>2011-03-18T09:00:34.999Z</time>
      </trkpt>
      <trkpt lat="45.54685" lon="6.73302">
        <ele>1760</ele>
        <time>2011-03-18T09:00:40.990Z</time>
      </trkpt>
      <trkpt lat="45.54711" lon="6.73357">
        <ele>1753</ele>
        <time>2011-03-18T09:00:46.989Z</time>
      </trkpt>
      <trkpt lat="45.54705" lon="6.73423">
        <ele>1748</ele>
        <time>2011-03-18T09:00:51.995Z</time>
      </trkpt>
      <trkpt lat="45.5472" lon="6.73487">
        <ele>1744</ele>
        <time>2011-03-18T09:00:55.983Z</time>
      </trkpt>
      <trkpt lat="45.54742" lon="6.73559">
        <ele>1742</ele>
        <time>2011-03-18T09:01:00.999Z</time>
      </trkpt>
      <trkpt lat="45.54765" lon="6.73621">
        <ele>1739</ele>
        <time>2011-03-18T09:01:05.993Z</time>
      </trkpt>
      <trkpt lat="45.54787" lon="6.73679">
        <ele>1736</ele>
        <time>2011-03-18T09:01:10.982Z</time>
      </trkpt>
      <trkpt lat="45.54811" lon="6.73741">
        <ele>1734</ele>
        <time>2011-03-18T09:01:16.999Z</time>
      </trkpt>
      <trkpt lat="45.54839" lon="6.73803">
        <ele>1733</ele>
        <time>2011-03-18T09:01:21.996Z</time>
      </trkpt>
      <trkpt lat="45.54874" lon="6.73857">
        <ele>1731</ele>
        <time>2011-03-18T09:01:26.993Z</time>
      </trkpt>
      <trkpt lat="45.54905" lon="6.7391">
        <ele>1729</ele>
        <time>2011-03-18T09:01:32.996Z</time>
      </trkpt>
      <trkpt lat="45.5492" lon="6.73974">
        <ele>1728</ele>
        <time>2011-03-18T09:01:39.990Z</time>
      </trkpt>
      <trkpt lat="45.54945" lon="6.74041">
        <ele>1728</ele>
        <time>2011-03-18T09:01:44.978Z</time>
      </trkpt>
      <trkpt lat="45.54982" lon="6.73981">
        <ele>1723</ele>
        <time>2011-03-18T09:01:46.983Z</time>
      </trkpt>
      <trkpt lat="45.55012" lon="6.73931">
        <ele>1722</ele>
        <time>2011-03-18T09:01:50.997Z</time>
      </trkpt>
      <trkpt lat="45.54949" lon="6.7391">
        <ele>1663</ele>
        <time>2011-03-18T09:02:02.981Z</time>
      </trkpt>
      <trkpt lat="45.54933" lon="6.73913">
        <ele>1642</ele>
        <time>2011-03-18T09:02:17.999Z</time>
      </trkpt>
      <trkpt lat="45.54933" lon="6.73918">
        <ele>1630</ele>
        <time>2011-03-18T09:02:33.999Z</time>
      </trkpt>
      <trkpt lat="45.54937" lon="6.73936">
        <ele>1629</ele>
        <time>2011-03-18T09:02:49.999Z</time>
      </trkpt>
      <trkpt lat="45.54943" lon="6.73947">
        <ele>1619</ele>
        <time>2011-03-18T09:03:06.000Z</time>
      </trkpt>
      <trkpt lat="45.5494" lon="6.73959">
        <ele>1617</ele>
        <time>2011-03-18T09:03:22.000Z</time>
      </trkpt>
      <trkpt lat="45.54938" lon="6.73956">
        <ele>1612</ele>
        <time>2011-03-18T09:03:38.000Z</time>
      </trkpt>
      <trkpt lat="45.54938" lon="6.73956">
        <ele>1612</ele>
        <time>2011-03-18T09:03:54.000Z</time>
      </trkpt>
      <trkpt lat="45.54936" lon="6.73957">
        <ele>1608</ele>
        <time>2011-03-18T09:04:10.000Z</time>
      </trkpt>
      <trkpt lat="45.54935" lon="6.73958">
        <ele>1608</ele>
        <time>2011-03-18T09:04:26.000Z</time>
      </trkpt>
      <trkpt lat="45.54934" lon="6.73959">
        <ele>1607</ele>
        <time>2011-03-18T09:04:42.000Z</time>
      </trkpt>
      <trkpt lat="45.54934" lon="6.73959">
        <ele>1607</ele>
        <time>2011-03-18T09:04:58.014Z</time>
      </trkpt>
      <trkpt lat="45.54934" lon="6.73958">
        <ele>1607</ele>
        <time>2011-03-18T09:05:13.999Z</time>
      </trkpt>
      <trkpt lat="45.54933" lon="6.73958">
        <ele>1607</ele>
        <time>2011-03-18T09:05:30.000Z</time>
      </trkpt>
      <trkpt lat="45.54933" lon="6.73958">
        <ele>1607</ele>
        <time>2011-03-18T09:05:46.000Z</time>
      </trkpt>
      <trkpt lat="45.54933" lon="6.73958">
        <ele>1607</ele>
        <time>2011-03-18T09:06:01.999Z</time>
      </trkpt>
      <trkpt lat="45.54933" lon="6.73958">
        <ele>1607</ele>
        <time>2011-03-18T09:06:18.000Z</time>
      </trkpt>
      <trkpt lat="45.54933" lon="6.73958">
        <ele>1606</ele>
        <time>2011-03-18T09:06:34.000Z</time>
      </trkpt>
      <trkpt lat="45.54934" lon="6.73958">
        <ele>1606</ele>
        <time>2011-03-18T09:06:50.000Z</time>
      </trkpt>
      <trkpt lat="45.54935" lon="6.73959">
        <ele>1606</ele>
        <time>2011-03-18T09:07:05.999Z</time>
      </trkpt>
      <trkpt lat="45.54935" lon="6.73958">
        <ele>1606</ele>
        <time>2011-03-18T09:07:22.000Z</time>
      </trkpt>
      <trkpt lat="45.54936" lon="6.73959">
        <ele>1604</ele>
        <time>2011-03-18T09:07:37.999Z</time>
      </trkpt>
      <trkpt lat="45.54936" lon="6.73959">
        <ele>1604</ele>
        <time>2011-03-18T09:07:53.987Z</time>
      </trkpt>
      <trkpt lat="45.54936" lon="6.73959">
        <ele>1604</ele>
        <time>2011-03-18T09:08:09.997Z</time>
      </trkpt>
      <trkpt lat="45.54936" lon="6.73959">
        <ele>1604</ele>
        <time>2011-03-18T09:08:24.999Z</time>
      </trkpt>
      <trkpt lat="45.54936" lon="6.73959">
        <ele>1604</ele>
        <time>2011-03-18T09:08:40.982Z</time>
      </trkpt>
      <trkpt lat="45.54936" lon="6.73959">
        <ele>1604</ele>
        <time>2011-03-18T09:08:55.999Z</time>
      </trkpt>
      <trkpt lat="45.54936" lon="6.73959">
        <ele>1604</ele>
        <time>2011-03-18T09:09:11.997Z</time>
      </trkpt>
      <trkpt lat="45.54936" lon="6.73959">
        <ele>1604</ele>
        <time>2011-03-18T09:09:26.999Z</time>
      </trkpt>
      <trkpt lat="45.54936" lon="6.73959">
        <ele>1604</ele>
        <time>2011-03-18T09:09:42.986Z</time>
      </trkpt>
      <trkpt lat="45.54936" lon="6.73959">
        <ele>1604</ele>
        <time>2011-03-18T09:09:57.999Z</time>
      </trkpt>
      <trkpt lat="45.54936" lon="6.73959">
        <ele>1604</ele>
        <time>2011-03-18T09:10:13.995Z</time>
      </trkpt>
      <trkpt lat="45.54936" lon="6.73959">
        <ele>1604</ele>
        <time>2011-03-18T09:10:28.999Z</time>
      </trkpt>
      <trkpt lat="45.54936" lon="6.73959">
        <ele>1604</ele>
        <time>2011-03-18T09:10:44.999Z</time>
      </trkpt>
      <trkpt lat="45.54936" lon="6.73959">
        <ele>1604</ele>
        <time>2011-03-18T09:11:00.995Z</time>
      </trkpt>
      <trkpt lat="45.54936" lon="6.73959">
        <ele>1604</ele>
        <time>2011-03-18T09:11:16.999Z</time>
      </trkpt>
      <trkpt lat="45.54936" lon="6.73959">
        <ele>1604</ele>
        <time>2011-03-18T09:11:32.999Z</time>
      </trkpt>
      <trkpt lat="45.54936" lon="6.73959">
        <ele>1604</ele>
        <time>2011-03-18T09:11:48.999Z</time>
      </trkpt>
      <trkpt lat="45.54944" lon="6.74025">
        <ele>1601</ele>
        <time>2011-03-18T09:12:01.999Z</time>
      </trkpt>
      <trkpt lat="45.5495" lon="6.74095">
        <ele>1600</ele>
        <time>2011-03-18T09:12:07.999Z</time>
      </trkpt>
      <trkpt lat="45.54958" lon="6.74163">
        <ele>1597</ele>
        <time>2011-03-18T09:12:11.999Z</time>
      </trkpt>
      <trkpt lat="45.54963" lon="6.74227">
        <ele>1595</ele>
        <time>2011-03-18T09:12:15.999Z</time>
      </trkpt>
      <trkpt lat="45.5497" lon="6.74299">
        <ele>1594</ele>
        <time>2011-03-18T09:12:19.992Z</time>
      </trkpt>
      <trkpt lat="45.54978" lon="6.74368">
        <ele>1593</ele>
        <time>2011-03-18T09:12:23.999Z</time>
      </trkpt>
      <trkpt lat="45.54985" lon="6.74433">
        <ele>1591</ele>
        <time>2011-03-18T09:12:27.997Z</time>
      </trkpt>
      <trkpt lat="45.5499" lon="6.74512">
        <ele>1589</ele>
        <time>2011-03-18T09:12:32.999Z</time>
      </trkpt>
      <trkpt lat="45.54997" lon="6.74593">
        <ele>1586</ele>
        <time>2011-03-18T09:12:37.999Z</time>
      </trkpt>
      <trkpt lat="45.55004" lon="6.74659">
        <ele>1586</ele>
        <time>2011-03-18T09:12:41.999Z</time>
      </trkpt>
      <trkpt lat="45.5501" lon="6.74739">
        <ele>1583</ele>
        <time>2011-03-18T09:12:46.998Z</time>
      </trkpt>
      <trkpt lat="45.55017" lon="6.74808">
        <ele>1581</ele>
        <time>2011-03-18T09:12:50.999Z</time>
      </trkpt>
      <trkpt lat="45.55022" lon="6.74886">
        <ele>1579</ele>
        <time>2011-03-18T09:12:55.999Z</time>
      </trkpt>
      <trkpt lat="45.55029" lon="6.74964">
        <ele>1577</ele>
        <time>2011-03-18T09:13:00.997Z</time>
      </trkpt>
      <trkpt lat="45.55034" lon="6.75029">
        <ele>1576</ele>
        <time>2011-03-18T09:13:04.996Z</time>
      </trkpt>
      <trkpt lat="45.55038" lon="6.75103">
        <ele>1575</ele>
        <time>2011-03-18T09:13:09.992Z</time>
      </trkpt>
      <trkpt lat="45.55044" lon="6.7518">
        <ele>1574</ele>
        <time>2011-03-18T09:13:14.997Z</time>
      </trkpt>
      <trkpt lat="45.5505" lon="6.75256">
        <ele>1573</ele>
        <time>2011-03-18T09:13:19.999Z</time>
      </trkpt>
      <trkpt lat="45.55056" lon="6.75329">
        <ele>1574</ele>
        <time>2011-03-18T09:13:24.999Z</time>
      </trkpt>
      <trkpt lat="45.55061" lon="6.75409">
        <ele>1575</ele>
        <time>2011-03-18T09:13:29.998Z</time>
      </trkpt>
      <trkpt lat="45.55066" lon="6.75485">
        <ele>1575</ele>
        <time>2011-03-18T09:13:34.996Z</time>
      </trkpt>
      <trkpt lat="45.55071" lon="6.75554">
        <ele>1576</ele>
        <time>2011-03-18T09:13:39.985Z</time>
      </trkpt>
      <trkpt lat="45.55075" lon="6.75628">
        <ele>1579</ele>
        <time>2011-03-18T09:13:44.999Z</time>
      </trkpt>
      <trkpt lat="45.55079" lon="6.75699">
        <ele>1580</ele>
        <time>2011-03-18T09:13:49.999Z</time>
      </trkpt>
      <trkpt lat="45.55081" lon="6.75765">
        <ele>1581</ele>
        <time>2011-03-18T09:13:54.999Z</time>
      </trkpt>
      <trkpt lat="45.55085" lon="6.75831">
        <ele>1583</ele>
        <time>2011-03-18T09:13:59.978Z</time>
      </trkpt>
      <trkpt lat="45.55088" lon="6.75905">
        <ele>1585</ele>
        <time>2011-03-18T09:14:05.987Z</time>
      </trkpt>
      <trkpt lat="45.5509" lon="6.75975">
        <ele>1587</ele>
        <time>2011-03-18T09:14:11.982Z</time>
      </trkpt>
      <trkpt lat="45.55094" lon="6.76049">
        <ele>1589</ele>
        <time>2011-03-18T09:14:17.976Z</time>
      </trkpt>
      <trkpt lat="45.55102" lon="6.76125">
        <ele>1592</ele>
        <time>2011-03-18T09:14:22.992Z</time>
      </trkpt>
      <trkpt lat="45.5511" lon="6.76198">
        <ele>1593</ele>
        <time>2011-03-18T09:14:28.997Z</time>
      </trkpt>
      <trkpt lat="45.55112" lon="6.76264">
        <ele>1598</ele>
        <time>2011-03-18T09:14:42.990Z</time>
      </trkpt>
      <trkpt lat="45.55118" lon="6.76296">
        <ele>1604</ele>
        <time>2011-03-18T09:14:57.994Z</time>
      </trkpt>
      <trkpt lat="45.55122" lon="6.76314">
        <ele>1606</ele>
        <time>2011-03-18T09:15:13.974Z</time>
      </trkpt>
      <trkpt lat="45.5513" lon="6.76329">
        <ele>1607</ele>
        <time>2011-03-18T09:15:39.999Z</time>
      </trkpt>
      <trkpt lat="45.55128" lon="6.76329">
        <ele>1608</ele>
        <time>2011-03-18T09:15:55.999Z</time>
      </trkpt>
      <trkpt lat="45.5513" lon="6.76337">
        <ele>1608</ele>
        <time>2011-03-18T09:16:11.998Z</time>
      </trkpt>
      <trkpt lat="45.5512" lon="6.76345">
        <ele>1608</ele>
        <time>2011-03-18T09:16:26.999Z</time>
      </trkpt>
      <trkpt lat="45.55129" lon="6.76339">
        <ele>1609</ele>
        <time>2011-03-18T09:16:42.987Z</time>
      </trkpt>
      <trkpt lat="45.55129" lon="6.76342">
        <ele>1610</ele>
        <time>2011-03-18T09:16:57.988Z</time>
      </trkpt>
      <trkpt lat="45.55129" lon="6.76352">
        <ele>1612</ele>
        <time>2011-03-18T09:17:12.999Z</time>
      </trkpt>
      <trkpt lat="45.55129" lon="6.76359">
        <ele>1614</ele>
        <time>2011-03-18T09:17:28.996Z</time>
      </trkpt>
      <trkpt lat="45.55129" lon="6.76368">
        <ele>1615</ele>
        <time>2011-03-18T09:17:43.999Z</time>
      </trkpt>
      <trkpt lat="45.5513" lon="6.76377">
        <ele>1616</ele>
        <time>2011-03-18T09:17:59.999Z</time>
      </trkpt>
      <trkpt lat="45.55118" lon="6.76382">
        <ele>1618</ele>
        <time>2011-03-18T09:18:15.999Z</time>
      </trkpt>
      <trkpt lat="45.55109" lon="6.76377">
        <ele>1628</ele>
        <time>2011-03-18T09:18:31.999Z</time>
      </trkpt>
      <trkpt lat="45.55105" lon="6.76372">
        <ele>1631</ele>
        <time>2011-03-18T09:18:47.999Z</time>
      </trkpt>
      <trkpt lat="45.551" lon="6.76367">
        <ele>1637</ele>
        <time>2011-03-18T09:19:03.993Z</time>
      </trkpt>
      <trkpt lat="45.55094" lon="6.7636">
        <ele>1639</ele>
        <time>2011-03-18T09:19:18.999Z</time>
      </trkpt>
      <trkpt lat="45.5509" lon="6.76353">
        <ele>1645</ele>
        <time>2011-03-18T09:19:34.998Z</time>
      </trkpt>
      <trkpt lat="45.55087" lon="6.7635">
        <ele>1646</ele>
        <time>2011-03-18T09:19:50.998Z</time>
      </trkpt>
      <trkpt lat="45.55084" lon="6.76349">
        <ele>1648</ele>
        <time>2011-03-18T09:20:06.999Z</time>
      </trkpt>
      <trkpt lat="45.55077" lon="6.76345">
        <ele>1650</ele>
        <time>2011-03-18T09:20:22.999Z</time>
      </trkpt>
      <trkpt lat="45.55078" lon="6.76346">
        <ele>1650</ele>
        <time>2011-03-18T09:20:38.992Z</time>
      </trkpt>
      <trkpt lat="45.55074" lon="6.76366">
        <ele>1649</ele>
        <time>2011-03-18T09:20:54.999Z</time>
      </trkpt>
      <trkpt lat="45.55071" lon="6.7639">
        <ele>1647</ele>
        <time>2011-03-18T09:21:10.999Z</time>
      </trkpt>
      <trkpt lat="45.55067" lon="6.76411">
        <ele>1651</ele>
        <time>2011-03-18T09:21:26.997Z</time>
      </trkpt>
      <trkpt lat="45.55059" lon="6.76473">
        <ele>1655</ele>
        <time>2011-03-18T09:21:42.999Z</time>
      </trkpt>
      <trkpt lat="45.55049" lon="6.76537">
        <ele>1662</ele>
        <time>2011-03-18T09:21:54.999Z</time>
      </trkpt>
      <trkpt lat="45.55039" lon="6.76604">
        <ele>1669</ele>
        <time>2011-03-18T09:22:07.999Z</time>
      </trkpt>
      <trkpt lat="45.5503" lon="6.76671">
        <ele>1677</ele>
        <time>2011-03-18T09:22:20.994Z</time>
      </trkpt>
      <trkpt lat="45.5502" lon="6.76737">
        <ele>1687</ele>
        <time>2011-03-18T09:22:33.998Z</time>
      </trkpt>
      <trkpt lat="45.55013" lon="6.76801">
        <ele>1697</ele>
        <time>2011-03-18T09:22:45.985Z</time>
      </trkpt>
      <trkpt lat="45.55005" lon="6.76868">
        <ele>1707</ele>
        <time>2011-03-18T09:22:58.984Z</time>
      </trkpt>
      <trkpt lat="45.54997" lon="6.76932">
        <ele>1717</ele>
        <time>2011-03-18T09:23:11.999Z</time>
      </trkpt>
      <trkpt lat="45.54987" lon="6.76997">
        <ele>1728</ele>
        <time>2011-03-18T09:23:24.998Z</time>
      </trkpt>
      <trkpt lat="45.5498" lon="6.77063">
        <ele>1738</ele>
        <time>2011-03-18T09:23:37.999Z</time>
      </trkpt>
      <trkpt lat="45.5497" lon="6.77129">
        <ele>1746</ele>
        <time>2011-03-18T09:23:50.988Z</time>
      </trkpt>
      <trkpt lat="45.54961" lon="6.77194">
        <ele>1757</ele>
        <time>2011-03-18T09:24:03.996Z</time>
      </trkpt>
      <trkpt lat="45.54951" lon="6.77257">
        <ele>1766</ele>
        <time>2011-03-18T09:24:15.996Z</time>
      </trkpt>
      <trkpt lat="45.54942" lon="6.77323">
        <ele>1777</ele>
        <time>2011-03-18T09:24:28.999Z</time>
      </trkpt>
      <trkpt lat="45.54933" lon="6.77391">
        <ele>1791</ele>
        <time>2011-03-18T09:24:41.986Z</time>
      </trkpt>
      <trkpt lat="45.54921" lon="6.77453">
        <ele>1803</ele>
        <time>2011-03-18T09:24:53.984Z</time>
      </trkpt>
      <trkpt lat="45.54909" lon="6.77515">
        <ele>1821</ele>
        <time>2011-03-18T09:25:05.999Z</time>
      </trkpt>
      <trkpt lat="45.54899" lon="6.77582">
        <ele>1836</ele>
        <time>2011-03-18T09:25:18.985Z</time>
      </trkpt>
      <trkpt lat="45.5489" lon="6.77646">
        <ele>1853</ele>
        <time>2011-03-18T09:25:31.999Z</time>
      </trkpt>
      <trkpt lat="45.54882" lon="6.77713">
        <ele>1871</ele>
        <time>2011-03-18T09:25:44.999Z</time>
      </trkpt>
      <trkpt lat="45.54872" lon="6.77779">
        <ele>1887</ele>
        <time>2011-03-18T09:25:57.983Z</time>
      </trkpt>
      <trkpt lat="45.54863" lon="6.77843">
        <ele>1899</ele>
        <time>2011-03-18T09:26:09.999Z</time>
      </trkpt>
      <trkpt lat="45.54853" lon="6.77906">
        <ele>1907</ele>
        <time>2011-03-18T09:26:20.980Z</time>
      </trkpt>
      <trkpt lat="45.54845" lon="6.7797">
        <ele>1921</ele>
        <time>2011-03-18T09:26:32.987Z</time>
      </trkpt>
      <trkpt lat="45.54834" lon="6.78035">
        <ele>1935</ele>
        <time>2011-03-18T09:26:44.999Z</time>
      </trkpt>
      <trkpt lat="45.54823" lon="6.78102">
        <ele>1950</ele>
        <time>2011-03-18T09:26:57.999Z</time>
      </trkpt>
      <trkpt lat="45.54813" lon="6.78165">
        <ele>1959</ele>
        <time>2011-03-18T09:27:09.999Z</time>
      </trkpt>
      <trkpt lat="45.54801" lon="6.7823">
        <ele>1973</ele>
        <time>2011-03-18T09:27:21.999Z</time>
      </trkpt>
      <trkpt lat="45.54791" lon="6.78293">
        <ele>1983</ele>
        <time>2011-03-18T09:27:33.999Z</time>
      </trkpt>
      <trkpt lat="45.54779" lon="6.7836">
        <ele>1998</ele>
        <time>2011-03-18T09:27:46.999Z</time>
      </trkpt>
      <trkpt lat="45.54775" lon="6.78381">
        <ele>2013</ele>
        <time>2011-03-18T09:28:02.999Z</time>
      </trkpt>
      <trkpt lat="45.54778" lon="6.78383">
        <ele>2022</ele>
        <time>2011-03-18T09:28:18.999Z</time>
      </trkpt>
      <trkpt lat="45.5478" lon="6.78385">
        <ele>2027</ele>
        <time>2011-03-18T09:28:34.000Z</time>
      </trkpt>
      <trkpt lat="45.5478" lon="6.78385">
        <ele>2028</ele>
        <time>2011-03-18T09:28:49.999Z</time>
      </trkpt>
      <trkpt lat="45.54783" lon="6.78385">
        <ele>2030</ele>
        <time>2011-03-18T09:29:05.980Z</time>
      </trkpt>
      <trkpt lat="45.54784" lon="6.78387">
        <ele>2034</ele>
        <time>2011-03-18T09:29:20.994Z</time>
      </trkpt>
      <trkpt lat="45.54785" lon="6.78388">
        <ele>2036</ele>
        <time>2011-03-18T09:29:36.971Z</time>
      </trkpt>
      <trkpt lat="45.54784" lon="6.78383">
        <ele>2039</ele>
        <time>2011-03-18T09:29:51.980Z</time>
      </trkpt>
      <trkpt lat="45.54829" lon="6.78359">
        <ele>2043</ele>
        <time>2011-03-18T09:30:04.999Z</time>
      </trkpt>
      <trkpt lat="45.54872" lon="6.78335">
        <ele>2044</ele>
        <time>2011-03-18T09:30:13.999Z</time>
      </trkpt>
      <trkpt lat="45.54923" lon="6.78316">
        <ele>2046</ele>
        <time>2011-03-18T09:30:19.997Z</time>
      </trkpt>
      <trkpt lat="45.54967" lon="6.78292">
        <ele>2047</ele>
        <time>2011-03-18T09:30:24.999Z</time>
      </trkpt>
      <trkpt lat="45.55005" lon="6.7825">
        <ele>2048</ele>
        <time>2011-03-18T09:30:31.996Z</time>
      </trkpt>
      <trkpt lat="45.55046" lon="6.78214">
        <ele>2048</ele>
        <time>2011-03-18T09:30:37.999Z</time>
      </trkpt>
      <trkpt lat="45.55079" lon="6.78165">
        <ele>2049</ele>
        <time>2011-03-18T09:30:42.999Z</time>
      </trkpt>
      <trkpt lat="45.55078" lon="6.78099">
        <ele>2049</ele>
        <time>2011-03-18T09:30:48.999Z</time>
      </trkpt>
      <trkpt lat="45.55058" lon="6.78041">
        <ele>2050</ele>
        <time>2011-03-18T09:30:55.999Z</time>
      </trkpt>
      <trkpt lat="45.55038" lon="6.77983">
        <ele>2050</ele>
        <time>2011-03-18T09:31:01.997Z</time>
      </trkpt>
      <trkpt lat="45.55085" lon="6.77984">
        <ele>2050</ele>
        <time>2011-03-18T09:31:08.999Z</time>
      </trkpt>
      <trkpt lat="45.55134" lon="6.77985">
        <ele>2049</ele>
        <time>2011-03-18T09:31:17.997Z</time>
      </trkpt>
      <trkpt lat="45.55183" lon="6.77994">
        <ele>2050</ele>
        <time>2011-03-18T09:31:25.998Z</time>
      </trkpt>
      <trkpt lat="45.55226" lon="6.78016">
        <ele>2048</ele>
        <time>2011-03-18T09:31:32.999Z</time>
      </trkpt>
      <trkpt lat="45.55274" lon="6.78015">
        <ele>2047</ele>
        <time>2011-03-18T09:31:40.999Z</time>
      </trkpt>
      <trkpt lat="45.55325" lon="6.7803">
        <ele>2047</ele>
        <time>2011-03-18T09:31:49.999Z</time>
      </trkpt>
      <trkpt lat="45.55371" lon="6.78022">
        <ele>2045</ele>
        <time>2011-03-18T09:31:56.999Z</time>
      </trkpt>
      <trkpt lat="45.55419" lon="6.78029">
        <ele>2045</ele>
        <time>2011-03-18T09:32:05.999Z</time>
      </trkpt>
      <trkpt lat="45.55468" lon="6.78037">
        <ele>2044</ele>
        <time>2011-03-18T09:32:11.993Z</time>
      </trkpt>
      <trkpt lat="45.55513" lon="6.78026">
        <ele>2043</ele>
        <time>2011-03-18T09:32:17.999Z</time>
      </trkpt>
      <trkpt lat="45.55557" lon="6.78008">
        <ele>2043</ele>
        <time>2011-03-18T09:32:22.998Z</time>
      </trkpt>
      <trkpt lat="45.55605" lon="6.77983">
        <ele>2042</ele>
        <time>2011-03-18T09:32:28.999Z</time>
      </trkpt>
      <trkpt lat="45.55652" lon="6.7798">
        <ele>2041</ele>
        <time>2011-03-18T09:32:33.999Z</time>
      </trkpt>
      <trkpt lat="45.5569" lon="6.77936">
        <ele>2038</ele>
        <time>2011-03-18T09:32:40.999Z</time>
      </trkpt>
      <trkpt lat="45.55735" lon="6.77927">
        <ele>2038</ele>
        <time>2011-03-18T09:32:48.997Z</time>
      </trkpt>
      <trkpt lat="45.55772" lon="6.77971">
        <ele>2038</ele>
        <time>2011-03-18T09:33:00.999Z</time>
      </trkpt>
      <trkpt lat="45.55811" lon="6.78012">
        <ele>2038</ele>
        <time>2011-03-18T09:33:10.994Z</time>
      </trkpt>
      <trkpt lat="45.55861" lon="6.78034">
        <ele>2038</ele>
        <time>2011-03-18T09:33:20.999Z</time>
      </trkpt>
      <trkpt lat="45.55909" lon="6.78064">
        <ele>2037</ele>
        <time>2011-03-18T09:33:26.999Z</time>
      </trkpt>
      <trkpt lat="45.55954" lon="6.78091">
        <ele>2036</ele>
        <time>2011-03-18T09:33:32.999Z</time>
      </trkpt>
      <trkpt lat="45.56" lon="6.78106">
        <ele>2036</ele>
        <time>2011-03-18T09:33:38.999Z</time>
      </trkpt>
      <trkpt lat="45.56046" lon="6.78126">
        <ele>2035</ele>
        <time>2011-03-18T09:33:45.999Z</time>
      </trkpt>
      <trkpt lat="45.56094" lon="6.78162">
        <ele>2035</ele>
        <time>2011-03-18T09:33:50.999Z</time>
      </trkpt>
      <trkpt lat="45.56134" lon="6.78193">
        <ele>2034</ele>
        <time>2011-03-18T09:33:54.999Z</time>
      </trkpt>
      <trkpt lat="45.56184" lon="6.78226">
        <ele>2035</ele>
        <time>2011-03-18T09:33:59.999Z</time>
      </trkpt>
      <trkpt lat="45.56228" lon="6.78254">
        <ele>2033</ele>
        <time>2011-03-18T09:34:04.999Z</time>
      </trkpt>
      <trkpt lat="45.56277" lon="6.78263">
        <ele>2032</ele>
        <time>2011-03-18T09:34:09.999Z</time>
      </trkpt>
      <trkpt lat="45.56323" lon="6.78272">
        <ele>2030</ele>
        <time>2011-03-18T09:34:14.999Z</time>
      </trkpt>
      <trkpt lat="45.56374" lon="6.78294">
        <ele>2029</ele>
        <time>2011-03-18T09:34:20.999Z</time>
      </trkpt>
      <trkpt lat="45.56423" lon="6.78283">
        <ele>2027</ele>
        <time>2011-03-18T09:34:26.999Z</time>
      </trkpt>
      <trkpt lat="45.56471" lon="6.78241">
        <ele>2023</ele>
        <time>2011-03-18T09:34:31.997Z</time>
      </trkpt>
      <trkpt lat="45.56515" lon="6.78196">
        <ele>2021</ele>
        <time>2011-03-18T09:34:36.998Z</time>
      </trkpt>
      <trkpt lat="45.56552" lon="6.78156">
        <ele>2020</ele>
        <time>2011-03-18T09:34:40.999Z</time>
      </trkpt>
      <trkpt lat="45.56597" lon="6.78119">
        <ele>2018</ele>
        <time>2011-03-18T09:34:45.998Z</time>
      </trkpt>
      <trkpt lat="45.56641" lon="6.78097">
        <ele>2017</ele>
        <time>2011-03-18T09:34:49.999Z</time>
      </trkpt>
      <trkpt lat="45.56696" lon="6.7808">
        <ele>2015</ele>
        <time>2011-03-18T09:34:54.999Z</time>
      </trkpt>
      <trkpt lat="45.56748" lon="6.78069">
        <ele>2014</ele>
        <time>2011-03-18T09:34:59.994Z</time>
      </trkpt>
      <trkpt lat="45.56793" lon="6.78055">
        <ele>2012</ele>
        <time>2011-03-18T09:35:03.999Z</time>
      </trkpt>
      <trkpt lat="45.56834" lon="6.78024">
        <ele>2010</ele>
        <time>2011-03-18T09:35:09.999Z</time>
      </trkpt>
      <trkpt lat="45.56881" lon="6.78017">
        <ele>2006</ele>
        <time>2011-03-18T09:35:18.998Z</time>
      </trkpt>
      <trkpt lat="45.56932" lon="6.78023">
        <ele>2002</ele>
        <time>2011-03-18T09:35:26.999Z</time>
      </trkpt>
      <trkpt lat="45.56977" lon="6.78043">
        <ele>1998</ele>
        <time>2011-03-18T09:35:35.999Z</time>
      </trkpt>
      <trkpt lat="45.56997" lon="6.78065">
        <ele>1990</ele>
        <time>2011-03-18T09:35:51.999Z</time>
      </trkpt>
      <trkpt lat="45.56996" lon="6.78074">
        <ele>1978</ele>
        <time>2011-03-18T09:36:07.999Z</time>
      </trkpt>
      <trkpt lat="45.57016" lon="6.78093">
        <ele>1971</ele>
        <time>2011-03-18T09:36:23.999Z</time>
      </trkpt>
      <trkpt lat="45.57019" lon="6.78102">
        <ele>1958</ele>
        <time>2011-03-18T09:36:39.999Z</time>
      </trkpt>
      <trkpt lat="45.57054" lon="6.78075">
        <ele>1953</ele>
        <time>2011-03-18T09:36:55.999Z</time>
      </trkpt>
      <trkpt lat="45.57092" lon="6.78033">
        <ele>1947</ele>
        <time>2011-03-18T09:37:00.969Z</time>
      </trkpt>
      <trkpt lat="45.57136" lon="6.77992">
        <ele>1945</ele>
        <time>2011-03-18T09:37:05.999Z</time>
      </trkpt>
      <trkpt lat="45.57171" lon="6.77944">
        <ele>1941</ele>
        <time>2011-03-18T09:37:10.999Z</time>
      </trkpt>
      <trkpt lat="45.57212" lon="6.77902">
        <ele>1939</ele>
        <time>2011-03-18T09:37:15.999Z</time>
      </trkpt>
      <trkpt lat="45.57254" lon="6.77882">
        <ele>1936</ele>
        <time>2011-03-18T09:37:19.998Z</time>
      </trkpt>
      <trkpt lat="45.57301" lon="6.77881">
        <ele>1935</ele>
        <time>2011-03-18T09:37:24.999Z</time>
      </trkpt>
      <trkpt lat="45.57345" lon="6.77894">
        <ele>1933</ele>
        <time>2011-03-18T09:37:31.999Z</time>
      </trkpt>
      <trkpt lat="45.57356" lon="6.77907">
        <ele>1926</ele>
        <time>2011-03-18T09:37:47.997Z</time>
      </trkpt>
      <trkpt lat="45.57352" lon="6.77906">
        <ele>1921</ele>
        <time>2011-03-18T09:38:03.987Z</time>
      </trkpt>
      <trkpt lat="45.57346" lon="6.77904">
        <ele>1918</ele>
        <time>2011-03-18T09:38:18.992Z</time>
      </trkpt>
      <trkpt lat="45.5734" lon="6.77905">
        <ele>1905</ele>
        <time>2011-03-18T09:38:33.999Z</time>
      </trkpt>
      <trkpt lat="45.57336" lon="6.77907">
        <ele>1901</ele>
        <time>2011-03-18T09:38:50.990Z</time>
      </trkpt>
      <trkpt lat="45.57336" lon="6.77907">
        <ele>1901</ele>
        <time>2011-03-18T09:39:06.999Z</time>
      </trkpt>
      <trkpt lat="45.57331" lon="6.77926">
        <ele>1899</ele>
        <time>2011-03-18T09:39:22.991Z</time>
      </trkpt>
      <trkpt lat="45.57316" lon="6.77991">
        <ele>1894</ele>
        <time>2011-03-18T09:39:29.992Z</time>
      </trkpt>
      <trkpt lat="45.57303" lon="6.7806">
        <ele>1890</ele>
        <time>2011-03-18T09:39:38.973Z</time>
      </trkpt>
      <trkpt lat="45.57291" lon="6.78126">
        <ele>1885</ele>
        <time>2011-03-18T09:39:47.991Z</time>
      </trkpt>
      <trkpt lat="45.57278" lon="6.78193">
        <ele>1880</ele>
        <time>2011-03-18T09:39:57.996Z</time>
      </trkpt>
      <trkpt lat="45.57265" lon="6.78258">
        <ele>1879</ele>
        <time>2011-03-18T09:40:07.974Z</time>
      </trkpt>
      <trkpt lat="45.57253" lon="6.7832">
        <ele>1878</ele>
        <time>2011-03-18T09:40:17.999Z</time>
      </trkpt>
      <trkpt lat="45.5724" lon="6.78383">
        <ele>1876</ele>
        <time>2011-03-18T09:40:27.997Z</time>
      </trkpt>
      <trkpt lat="45.57225" lon="6.7845">
        <ele>1873</ele>
        <time>2011-03-18T09:40:38.972Z</time>
      </trkpt>
      <trkpt lat="45.57213" lon="6.78512">
        <ele>1874</ele>
        <time>2011-03-18T09:40:48.999Z</time>
      </trkpt>
      <trkpt lat="45.57201" lon="6.7858">
        <ele>1876</ele>
        <time>2011-03-18T09:40:59.975Z</time>
      </trkpt>
      <trkpt lat="45.57188" lon="6.78642">
        <ele>1877</ele>
        <time>2011-03-18T09:41:09.999Z</time>
      </trkpt>
      <trkpt lat="45.57175" lon="6.78703">
        <ele>1881</ele>
        <time>2011-03-18T09:41:19.999Z</time>
      </trkpt>
      <trkpt lat="45.57162" lon="6.7877">
        <ele>1883</ele>
        <time>2011-03-18T09:41:30.983Z</time>
      </trkpt>
      <trkpt lat="45.5715" lon="6.78832">
        <ele>1886</ele>
        <time>2011-03-18T09:41:40.999Z</time>
      </trkpt>
      <trkpt lat="45.57136" lon="6.78898">
        <ele>1889</ele>
        <time>2011-03-18T09:41:51.999Z</time>
      </trkpt>
      <trkpt lat="45.57122" lon="6.78964">
        <ele>1894</ele>
        <time>2011-03-18T09:42:02.982Z</time>
      </trkpt>
      <trkpt lat="45.5711" lon="6.79027">
        <ele>1897</ele>
        <time>2011-03-18T09:42:13.999Z</time>
      </trkpt>
      <trkpt lat="45.57097" lon="6.79094">
        <ele>1903</ele>
        <time>2011-03-18T09:42:24.999Z</time>
      </trkpt>
      <trkpt lat="45.57085" lon="6.79159">
        <ele>1908</ele>
        <time>2011-03-18T09:42:35.999Z</time>
      </trkpt>
      <trkpt lat="45.57073" lon="6.79222">
        <ele>1913</ele>
        <time>2011-03-18T09:42:46.999Z</time>
      </trkpt>
      <trkpt lat="45.57059" lon="6.79289">
        <ele>1917</ele>
        <time>2011-03-18T09:42:57.999Z</time>
      </trkpt>
      <trkpt lat="45.57045" lon="6.79351">
        <ele>1921</ele>
        <time>2011-03-18T09:43:07.999Z</time>
      </trkpt>
      <trkpt lat="45.57033" lon="6.79415">
        <ele>1926</ele>
        <time>2011-03-18T09:43:18.999Z</time>
      </trkpt>
      <trkpt lat="45.57021" lon="6.79482">
        <ele>1936</ele>
        <time>2011-03-18T09:43:30.999Z</time>
      </trkpt>
      <trkpt lat="45.57009" lon="6.79545">
        <ele>1946</ele>
        <time>2011-03-18T09:43:41.998Z</time>
      </trkpt>
      <trkpt lat="45.56996" lon="6.79607">
        <ele>1961</ele>
        <time>2011-03-18T09:43:52.999Z</time>
      </trkpt>
      <trkpt lat="45.56982" lon="6.79672">
        <ele>1977</ele>
        <time>2011-03-18T09:44:03.988Z</time>
      </trkpt>
      <trkpt lat="45.56969" lon="6.79735">
        <ele>1989</ele>
        <time>2011-03-18T09:44:14.999Z</time>
      </trkpt>
      <trkpt lat="45.56954" lon="6.79799">
        <ele>2007</ele>
        <time>2011-03-18T09:44:25.995Z</time>
      </trkpt>
      <trkpt lat="45.56941" lon="6.79863">
        <ele>2026</ele>
        <time>2011-03-18T09:44:36.970Z</time>
      </trkpt>
      <trkpt lat="45.56927" lon="6.79926">
        <ele>2038</ele>
        <time>2011-03-18T09:44:47.972Z</time>
      </trkpt>
      <trkpt lat="45.56913" lon="6.79991">
        <ele>2054</ele>
        <time>2011-03-18T09:44:58.986Z</time>
      </trkpt>
      <trkpt lat="45.56899" lon="6.80056">
        <ele>2069</ele>
        <time>2011-03-18T09:45:09.968Z</time>
      </trkpt>
      <trkpt lat="45.56885" lon="6.8012">
        <ele>2083</ele>
        <time>2011-03-18T09:45:20.996Z</time>
      </trkpt>
      <trkpt lat="45.5687" lon="6.80186">
        <ele>2097</ele>
        <time>2011-03-18T09:45:31.977Z</time>
      </trkpt>
      <trkpt lat="45.56857" lon="6.80251">
        <ele>2105</ele>
        <time>2011-03-18T09:45:42.999Z</time>
      </trkpt>
      <trkpt lat="45.56843" lon="6.80316">
        <ele>2117</ele>
        <time>2011-03-18T09:45:53.999Z</time>
      </trkpt>
      <trkpt lat="45.5683" lon="6.80382">
        <ele>2125</ele>
        <time>2011-03-18T09:46:04.968Z</time>
      </trkpt>
      <trkpt lat="45.56814" lon="6.80448">
        <ele>2127</ele>
        <time>2011-03-18T09:46:15.978Z</time>
      </trkpt>
      <trkpt lat="45.56815" lon="6.80486">
        <ele>2132</ele>
        <time>2011-03-18T09:46:30.999Z</time>
      </trkpt>
      <trkpt lat="45.56816" lon="6.80476">
        <ele>2158</ele>
        <time>2011-03-18T09:46:46.980Z</time>
      </trkpt>
      <trkpt lat="45.56818" lon="6.80477">
        <ele>2172</ele>
        <time>2011-03-18T09:47:01.998Z</time>
      </trkpt>
      <trkpt lat="45.56818" lon="6.80477">
        <ele>2182</ele>
        <time>2011-03-18T09:47:17.999Z</time>
      </trkpt>
      <trkpt lat="45.56818" lon="6.80477">
        <ele>2182</ele>
        <time>2011-03-18T09:47:33.999Z</time>
      </trkpt>
      <trkpt lat="45.56862" lon="6.80499">
        <ele>2188</ele>
        <time>2011-03-18T09:47:49.991Z</time>
      </trkpt>
      <trkpt lat="45.56907" lon="6.80525">
        <ele>2193</ele>
        <time>2011-03-18T09:48:03.999Z</time>
      </trkpt>
      <trkpt lat="45.56953" lon="6.80544">
        <ele>2196</ele>
        <time>2011-03-18T09:48:15.999Z</time>
      </trkpt>
      <trkpt lat="45.57002" lon="6.80543">
        <ele>2202</ele>
        <time>2011-03-18T09:48:28.999Z</time>
      </trkpt>
      <trkpt lat="45.57044" lon="6.80517">
        <ele>2213</ele>
        <time>2011-03-18T09:48:40.991Z</time>
      </trkpt>
      <trkpt lat="45.57092" lon="6.80508">
        <ele>2219</ele>
        <time>2011-03-18T09:48:52.997Z</time>
      </trkpt>
      <trkpt lat="45.5714" lon="6.80504">
        <ele>2224</ele>
        <time>2011-03-18T09:49:01.999Z</time>
      </trkpt>
      <trkpt lat="45.57181" lon="6.80536">
        <ele>2225</ele>
        <time>2011-03-18T09:49:11.999Z</time>
      </trkpt>
      <trkpt lat="45.5722" lon="6.80571">
        <ele>2227</ele>
        <time>2011-03-18T09:49:20.999Z</time>
      </trkpt>
      <trkpt lat="45.57259" lon="6.8062">
        <ele>2229</ele>
        <time>2011-03-18T09:49:28.991Z</time>
      </trkpt>
      <trkpt lat="45.57301" lon="6.80645">
        <ele>2232</ele>
        <time>2011-03-18T09:49:38.985Z</time>
      </trkpt>
      <trkpt lat="45.57345" lon="6.8067">
        <ele>2237</ele>
        <time>2011-03-18T09:49:51.982Z</time>
      </trkpt>
      <trkpt lat="45.57393" lon="6.8067">
        <ele>2241</ele>
        <time>2011-03-18T09:50:03.976Z</time>
      </trkpt>
      <trkpt lat="45.57442" lon="6.80675">
        <ele>2242</ele>
        <time>2011-03-18T09:50:12.999Z</time>
      </trkpt>
      <trkpt lat="45.5749" lon="6.8068">
        <ele>2245</ele>
        <time>2011-03-18T09:50:23.967Z</time>
      </trkpt>
      <trkpt lat="45.57487" lon="6.80664">
        <ele>2244</ele>
        <time>2011-03-18T09:50:38.983Z</time>
      </trkpt>
      <trkpt lat="45.57485" lon="6.80589">
        <ele>2244</ele>
        <time>2011-03-18T09:50:45.989Z</time>
      </trkpt>
      <trkpt lat="45.57508" lon="6.80524">
        <ele>2245</ele>
        <time>2011-03-18T09:50:50.992Z</time>
      </trkpt>
      <trkpt lat="45.57519" lon="6.8046">
        <ele>2244</ele>
        <time>2011-03-18T09:50:56.963Z</time>
      </trkpt>
      <trkpt lat="45.57537" lon="6.8039">
        <ele>2244</ele>
        <time>2011-03-18T09:51:01.981Z</time>
      </trkpt>
      <trkpt lat="45.57549" lon="6.80316">
        <ele>2244</ele>
        <time>2011-03-18T09:51:05.999Z</time>
      </trkpt>
      <trkpt lat="45.57556" lon="6.80245">
        <ele>2243</ele>
        <time>2011-03-18T09:51:09.976Z</time>
      </trkpt>
      <trkpt lat="45.5754" lon="6.80176">
        <ele>2242</ele>
        <time>2011-03-18T09:51:14.987Z</time>
      </trkpt>
      <trkpt lat="45.5753" lon="6.8011">
        <ele>2241</ele>
        <time>2011-03-18T09:51:21.969Z</time>
      </trkpt>
      <trkpt lat="45.57516" lon="6.80046">
        <ele>2240</ele>
        <time>2011-03-18T09:51:32.999Z</time>
      </trkpt>
      <trkpt lat="45.57505" lon="6.79974">
        <ele>2239</ele>
        <time>2011-03-18T09:51:46.999Z</time>
      </trkpt>
      <trkpt lat="45.5748" lon="6.79916">
        <ele>2238</ele>
        <time>2011-03-18T09:51:53.999Z</time>
      </trkpt>
      <trkpt lat="45.57465" lon="6.79856">
        <ele>2234</ele>
        <time>2011-03-18T09:52:07.999Z</time>
      </trkpt>
      <trkpt lat="45.57459" lon="6.79791">
        <ele>2232</ele>
        <time>2011-03-18T09:52:17.999Z</time>
      </trkpt>
      <trkpt lat="45.57457" lon="6.79727">
        <ele>2230</ele>
        <time>2011-03-18T09:52:26.985Z</time>
      </trkpt>
      <trkpt lat="45.57481" lon="6.79673">
        <ele>2229</ele>
        <time>2011-03-18T09:52:36.999Z</time>
      </trkpt>
      <trkpt lat="45.57496" lon="6.79612">
        <ele>2224</ele>
        <time>2011-03-18T09:52:44.996Z</time>
      </trkpt>
      <trkpt lat="45.57508" lon="6.79579">
        <ele>2217</ele>
        <time>2011-03-18T09:52:59.999Z</time>
      </trkpt>
      <trkpt lat="45.57505" lon="6.79578">
        <ele>2206</ele>
        <time>2011-03-18T09:53:15.997Z</time>
      </trkpt>
      <trkpt lat="45.57505" lon="6.79577">
        <ele>2199</ele>
        <time>2011-03-18T09:53:30.999Z</time>
      </trkpt>
      <trkpt lat="45.57502" lon="6.79574">
        <ele>2191</ele>
        <time>2011-03-18T09:53:46.990Z</time>
      </trkpt>
      <trkpt lat="45.57502" lon="6.79574">
        <ele>2188</ele>
        <time>2011-03-18T09:54:02.993Z</time>
      </trkpt>
      <trkpt lat="45.57502" lon="6.79573">
        <ele>2188</ele>
        <time>2011-03-18T09:54:18.999Z</time>
      </trkpt>
      <trkpt lat="45.57501" lon="6.79574">
        <ele>2183</ele>
        <time>2011-03-18T09:54:34.999Z</time>
      </trkpt>
      <trkpt lat="45.57501" lon="6.79574">
        <ele>2182</ele>
        <time>2011-03-18T09:54:50.997Z</time>
      </trkpt>
      <trkpt lat="45.575" lon="6.79574">
        <ele>2179</ele>
        <time>2011-03-18T09:55:05.999Z</time>
      </trkpt>
      <trkpt lat="45.57472" lon="6.79581">
        <ele>2120</ele>
        <time>2011-03-18T09:55:21.979Z</time>
      </trkpt>
      <trkpt lat="45.57477" lon="6.79579">
        <ele>2108</ele>
        <time>2011-03-18T09:55:36.993Z</time>
      </trkpt>
      <trkpt lat="45.57476" lon="6.79578">
        <ele>2102</ele>
        <time>2011-03-18T09:55:52.995Z</time>
      </trkpt>
      <trkpt lat="45.57474" lon="6.79577">
        <ele>2098</ele>
        <time>2011-03-18T09:56:08.998Z</time>
      </trkpt>
      <trkpt lat="45.57473" lon="6.79578">
        <ele>2094</ele>
        <time>2011-03-18T09:56:24.999Z</time>
      </trkpt>
      <trkpt lat="45.57474" lon="6.79579">
        <ele>2090</ele>
        <time>2011-03-18T09:56:40.980Z</time>
      </trkpt>
      <trkpt lat="45.57474" lon="6.79579">
        <ele>2089</ele>
        <time>2011-03-18T09:56:55.992Z</time>
      </trkpt>
      <trkpt lat="45.57474" lon="6.79581">
        <ele>2089</ele>
        <time>2011-03-18T09:57:11.999Z</time>
      </trkpt>
      <trkpt lat="45.57473" lon="6.79582">
        <ele>2088</ele>
        <time>2011-03-18T09:57:27.999Z</time>
      </trkpt>
      <trkpt lat="45.57472" lon="6.79584">
        <ele>2088</ele>
        <time>2011-03-18T09:57:43.000Z</time>
      </trkpt>
      <trkpt lat="45.57472" lon="6.79584">
        <ele>2087</ele>
        <time>2011-03-18T09:57:58.966Z</time>
      </trkpt>
      <trkpt lat="45.57471" lon="6.79595">
        <ele>2089</ele>
        <time>2011-03-18T09:58:13.999Z</time>
      </trkpt>
      <trkpt lat="45.57465" lon="6.79659">
        <ele>2096</ele>
        <time>2011-03-18T09:58:19.986Z</time>
      </trkpt>
      <trkpt lat="45.57458" lon="6.7973">
        <ele>2111</ele>
        <time>2011-03-18T09:58:28.998Z</time>
      </trkpt>
      <trkpt lat="45.57446" lon="6.79798">
        <ele>2120</ele>
        <time>2011-03-18T09:58:37.972Z</time>
      </trkpt>
      <trkpt lat="45.57437" lon="6.79861">
        <ele>2132</ele>
        <time>2011-03-18T09:58:46.980Z</time>
      </trkpt>
      <trkpt lat="45.57427" lon="6.79927">
        <ele>2144</ele>
        <time>2011-03-18T09:58:56.974Z</time>
      </trkpt>
      <trkpt lat="45.57416" lon="6.79996">
        <ele>2152</ele>
        <time>2011-03-18T09:59:06.983Z</time>
      </trkpt>
      <trkpt lat="45.57407" lon="6.80063">
        <ele>2162</ele>
        <time>2011-03-18T09:59:16.999Z</time>
      </trkpt>
      <trkpt lat="45.57397" lon="6.8013">
        <ele>2171</ele>
        <time>2011-03-18T09:59:26.999Z</time>
      </trkpt>
      <trkpt lat="45.57387" lon="6.80199">
        <ele>2178</ele>
        <time>2011-03-18T09:59:36.994Z</time>
      </trkpt>
      <trkpt lat="45.57378" lon="6.80266">
        <ele>2185</ele>
        <time>2011-03-18T09:59:46.986Z</time>
      </trkpt>
      <trkpt lat="45.57369" lon="6.80332">
        <ele>2193</ele>
        <time>2011-03-18T09:59:56.999Z</time>
      </trkpt>
      <trkpt lat="45.57359" lon="6.80399">
        <ele>2208</ele>
        <time>2011-03-18T10:00:06.980Z</time>
      </trkpt>
      <trkpt lat="45.5735" lon="6.80464">
        <ele>2223</ele>
        <time>2011-03-18T10:00:16.999Z</time>
      </trkpt>
      <trkpt lat="45.57339" lon="6.80528">
        <ele>2233</ele>
        <time>2011-03-18T10:00:26.980Z</time>
      </trkpt>
      <trkpt lat="45.57328" lon="6.80596">
        <ele>2245</ele>
        <time>2011-03-18T10:00:36.987Z</time>
      </trkpt>
      <trkpt lat="45.57318" lon="6.80663">
        <ele>2257</ele>
        <time>2011-03-18T10:00:46.999Z</time>
      </trkpt>
      <trkpt lat="45.57312" lon="6.80696">
        <ele>2272</ele>
        <time>2011-03-18T10:01:02.982Z</time>
      </trkpt>
      <trkpt lat="45.5731" lon="6.80712">
        <ele>2279</ele>
        <time>2011-03-18T10:01:17.998Z</time>
      </trkpt>
      <trkpt lat="45.57302" lon="6.80767">
        <ele>2282</ele>
        <time>2011-03-18T10:01:33.961Z</time>
      </trkpt>
      <trkpt lat="45.57291" lon="6.80832">
        <ele>2283</ele>
        <time>2011-03-18T10:01:43.980Z</time>
      </trkpt>
      <trkpt lat="45.57281" lon="6.80901">
        <ele>2295</ele>
        <time>2011-03-18T10:01:53.976Z</time>
      </trkpt>
      <trkpt lat="45.57272" lon="6.80966">
        <ele>2312</ele>
        <time>2011-03-18T10:02:03.999Z</time>
      </trkpt>
      <trkpt lat="45.57264" lon="6.81031">
        <ele>2350</ele>
        <time>2011-03-18T10:02:14.999Z</time>
      </trkpt>
      <trkpt lat="45.57254" lon="6.81094">
        <ele>2392</ele>
        <time>2011-03-18T10:02:27.000Z</time>
      </trkpt>
      <trkpt lat="45.57252" lon="6.81144">
        <ele>2398</ele>
        <time>2011-03-18T10:02:42.999Z</time>
      </trkpt>
      <trkpt lat="45.57232" lon="6.81166">
        <ele>2409</ele>
        <time>2011-03-18T10:02:58.999Z</time>
      </trkpt>
      <trkpt lat="45.57228" lon="6.8116">
        <ele>2424</ele>
        <time>2011-03-18T10:03:14.999Z</time>
      </trkpt>
      <trkpt lat="45.57227" lon="6.81159">
        <ele>2427</ele>
        <time>2011-03-18T10:03:30.996Z</time>
      </trkpt>
      <trkpt lat="45.57227" lon="6.81159">
        <ele>2427</ele>
        <time>2011-03-18T10:03:45.998Z</time>
      </trkpt>
      <trkpt lat="45.57225" lon="6.81157">
        <ele>2428</ele>
        <time>2011-03-18T10:04:01.999Z</time>
      </trkpt>
      <trkpt lat="45.57227" lon="6.81157">
        <ele>2434</ele>
        <time>2011-03-18T10:04:17.998Z</time>
      </trkpt>
      <trkpt lat="45.57253" lon="6.81143">
        <ele>2435</ele>
        <time>2011-03-18T10:04:32.999Z</time>
      </trkpt>
      <trkpt lat="45.57298" lon="6.81141">
        <ele>2434</ele>
        <time>2011-03-18T10:04:39.998Z</time>
      </trkpt>
      <trkpt lat="45.57333" lon="6.81155">
        <ele>2439</ele>
        <time>2011-03-18T10:04:54.999Z</time>
      </trkpt>
      <trkpt lat="45.57358" lon="6.81175">
        <ele>2439</ele>
        <time>2011-03-18T10:05:10.980Z</time>
      </trkpt>
      <trkpt lat="45.57398" lon="6.81151">
        <ele>2437</ele>
        <time>2011-03-18T10:05:25.981Z</time>
      </trkpt>
      <trkpt lat="45.57413" lon="6.81136">
        <ele>2432</ele>
        <time>2011-03-18T10:05:40.984Z</time>
      </trkpt>
      <trkpt lat="45.57409" lon="6.81136">
        <ele>2425</ele>
        <time>2011-03-18T10:05:55.990Z</time>
      </trkpt>
      <trkpt lat="45.57408" lon="6.81135">
        <ele>2424</ele>
        <time>2011-03-18T10:06:10.999Z</time>
      </trkpt>
      <trkpt lat="45.57431" lon="6.81123">
        <ele>2420</ele>
        <time>2011-03-18T10:06:26.976Z</time>
      </trkpt>
      <trkpt lat="45.57431" lon="6.8113">
        <ele>2419</ele>
        <time>2011-03-18T10:06:41.999Z</time>
      </trkpt>
      <trkpt lat="45.57421" lon="6.81108">
        <ele>2417</ele>
        <time>2011-03-18T10:06:57.974Z</time>
      </trkpt>
      <trkpt lat="45.57429" lon="6.81083">
        <ele>2410</ele>
        <time>2011-03-18T10:07:13.970Z</time>
      </trkpt>
      <trkpt lat="45.57442" lon="6.81066">
        <ele>2406</ele>
        <time>2011-03-18T10:07:29.969Z</time>
      </trkpt>
      <trkpt lat="45.57437" lon="6.81045">
        <ele>2326.4</ele>
        <time>2011-03-18T10:07:44.999Z</time>
      </trkpt>
      <trkpt lat="45.57445" lon="6.8105">
        <ele>2401</ele>
        <time>2011-03-18T10:08:00.993Z</time>
      </trkpt>
      <trkpt lat="45.57454" lon="6.81036">
        <ele>2398</ele>
        <time>2011-03-18T10:08:15.999Z</time>
      </trkpt>
      <trkpt lat="45.57459" lon="6.81027">
        <ele>2393</ele>
        <time>2011-03-18T10:08:31.999Z</time>
      </trkpt>
      <trkpt lat="45.57473" lon="6.81026">
        <ele>2369</ele>
        <time>2011-03-18T10:08:47.997Z</time>
      </trkpt>
      <trkpt lat="45.57473" lon="6.81001">
        <ele>2368</ele>
        <time>2011-03-18T10:09:02.999Z</time>
      </trkpt>
      <trkpt lat="45.57488" lon="6.80974">
        <ele>2364</ele>
        <time>2011-03-18T10:09:18.979Z</time>
      </trkpt>
      <trkpt lat="45.57494" lon="6.80953">
        <ele>2357</ele>
        <time>2011-03-18T10:09:33.999Z</time>
      </trkpt>
      <trkpt lat="45.57496" lon="6.80913">
        <ele>2351</ele>
        <time>2011-03-18T10:09:49.984Z</time>
      </trkpt>
      <trkpt lat="45.57517" lon="6.80845">
        <ele>2332</ele>
        <time>2011-03-18T10:10:03.970Z</time>
      </trkpt>
      <trkpt lat="45.57516" lon="6.80779">
        <ele>2321</ele>
        <time>2011-03-18T10:10:10.999Z</time>
      </trkpt>
      <trkpt lat="45.57511" lon="6.80764">
        <ele>2306</ele>
        <time>2011-03-18T10:10:26.979Z</time>
      </trkpt>
      <trkpt lat="45.57509" lon="6.80761">
        <ele>2302</ele>
        <time>2011-03-18T10:10:42.973Z</time>
      </trkpt>
      <trkpt lat="45.57509" lon="6.80761">
        <ele>2299</ele>
        <time>2011-03-18T10:10:57.974Z</time>
      </trkpt>
      <trkpt lat="45.57508" lon="6.8076">
        <ele>2295</ele>
        <time>2011-03-18T10:11:13.998Z</time>
      </trkpt>
      <trkpt lat="45.57508" lon="6.8076">
        <ele>2294</ele>
        <time>2011-03-18T10:11:29.994Z</time>
      </trkpt>
      <trkpt lat="45.57507" lon="6.80759">
        <ele>2293</ele>
        <time>2011-03-18T10:11:45.998Z</time>
      </trkpt>
      <trkpt lat="45.57509" lon="6.80759">
        <ele>2290</ele>
        <time>2011-03-18T10:12:01.999Z</time>
      </trkpt>
      <trkpt lat="45.5751" lon="6.80761">
        <ele>2286</ele>
        <time>2011-03-18T10:12:17.997Z</time>
      </trkpt>
      <trkpt lat="45.5751" lon="6.80761">
        <ele>2285</ele>
        <time>2011-03-18T10:12:32.999Z</time>
      </trkpt>
      <trkpt lat="45.57522" lon="6.80688">
        <ele>2282</ele>
        <time>2011-03-18T10:12:46.999Z</time>
      </trkpt>
      <trkpt lat="45.57542" lon="6.80618">
        <ele>2280</ele>
        <time>2011-03-18T10:12:51.999Z</time>
      </trkpt>
      <trkpt lat="45.57553" lon="6.8055">
        <ele>2278</ele>
        <time>2011-03-18T10:12:56.999Z</time>
      </trkpt>
      <trkpt lat="45.57563" lon="6.80487">
        <ele>2276</ele>
        <time>2011-03-18T10:13:02.999Z</time>
      </trkpt>
      <trkpt lat="45.57583" lon="6.80429">
        <ele>2274</ele>
        <time>2011-03-18T10:13:08.999Z</time>
      </trkpt>
      <trkpt lat="45.57598" lon="6.80367">
        <ele>2273</ele>
        <time>2011-03-18T10:13:12.999Z</time>
      </trkpt>
      <trkpt lat="45.57603" lon="6.8029">
        <ele>2272</ele>
        <time>2011-03-18T10:13:16.999Z</time>
      </trkpt>
      <trkpt lat="45.57588" lon="6.80223">
        <ele>2270</ele>
        <time>2011-03-18T10:13:20.999Z</time>
      </trkpt>
      <trkpt lat="45.57554" lon="6.80171">
        <ele>2261</ele>
        <time>2011-03-18T10:13:25.989Z</time>
      </trkpt>
      <trkpt lat="45.57522" lon="6.80122">
        <ele>2251</ele>
        <time>2011-03-18T10:13:33.999Z</time>
      </trkpt>
      <trkpt lat="45.57515" lon="6.80059">
        <ele>2241</ele>
        <time>2011-03-18T10:13:46.999Z</time>
      </trkpt>
      <trkpt lat="45.57505" lon="6.80047">
        <ele>2221</ele>
        <time>2011-03-18T10:14:02.999Z</time>
      </trkpt>
      <trkpt lat="45.57468" lon="6.79997">
        <ele>2207</ele>
        <time>2011-03-18T10:14:14.989Z</time>
      </trkpt>
      <trkpt lat="45.57464" lon="6.79924">
        <ele>2202</ele>
        <time>2011-03-18T10:14:23.999Z</time>
      </trkpt>
      <trkpt lat="45.5747" lon="6.79859">
        <ele>2199</ele>
        <time>2011-03-18T10:14:28.980Z</time>
      </trkpt>
      <trkpt lat="45.5748" lon="6.79792">
        <ele>2197</ele>
        <time>2011-03-18T10:14:33.969Z</time>
      </trkpt>
      <trkpt lat="45.57505" lon="6.79722">
        <ele>2196</ele>
        <time>2011-03-18T10:14:38.964Z</time>
      </trkpt>
      <trkpt lat="45.57525" lon="6.79656">
        <ele>2178</ele>
        <time>2011-03-18T10:14:42.999Z</time>
      </trkpt>
      <trkpt lat="45.57514" lon="6.7961">
        <ele>2159</ele>
        <time>2011-03-18T10:14:58.964Z</time>
      </trkpt>
      <trkpt lat="45.57507" lon="6.79599">
        <ele>2137</ele>
        <time>2011-03-18T10:15:13.967Z</time>
      </trkpt>
      <trkpt lat="45.57501" lon="6.79599">
        <ele>2123</ele>
        <time>2011-03-18T10:15:28.999Z</time>
      </trkpt>
      <trkpt lat="45.57497" lon="6.79598">
        <ele>2113</ele>
        <time>2011-03-18T10:15:44.976Z</time>
      </trkpt>
      <trkpt lat="45.57495" lon="6.79595">
        <ele>2108</ele>
        <time>2011-03-18T10:16:00.976Z</time>
      </trkpt>
      <trkpt lat="45.57494" lon="6.79595">
        <ele>2102</ele>
        <time>2011-03-18T10:16:15.999Z</time>
      </trkpt>
      <trkpt lat="45.57493" lon="6.79595">
        <ele>2098</ele>
        <time>2011-03-18T10:16:31.977Z</time>
      </trkpt>
      <trkpt lat="45.57492" lon="6.79593">
        <ele>2094</ele>
        <time>2011-03-18T10:16:46.999Z</time>
      </trkpt>
      <trkpt lat="45.5749" lon="6.79593">
        <ele>2092</ele>
        <time>2011-03-18T10:17:03.992Z</time>
      </trkpt>
      <trkpt lat="45.5749" lon="6.79591">
        <ele>2090</ele>
        <time>2011-03-18T10:17:18.999Z</time>
      </trkpt>
      <trkpt lat="45.57489" lon="6.79591">
        <ele>2088</ele>
        <time>2011-03-18T10:17:34.999Z</time>
      </trkpt>
      <trkpt lat="45.57486" lon="6.79589">
        <ele>2086</ele>
        <time>2011-03-18T10:17:50.964Z</time>
      </trkpt>
      <trkpt lat="45.57485" lon="6.79588">
        <ele>2086</ele>
        <time>2011-03-18T10:18:05.995Z</time>
      </trkpt>
      <trkpt lat="45.57483" lon="6.79587">
        <ele>2085</ele>
        <time>2011-03-18T10:18:20.999Z</time>
      </trkpt>
      <trkpt lat="45.57481" lon="6.79585">
        <ele>2085</ele>
        <time>2011-03-18T10:18:36.999Z</time>
      </trkpt>
      <trkpt lat="45.57477" lon="6.79584">
        <ele>2085</ele>
        <time>2011-03-18T10:18:52.999Z</time>
      </trkpt>
      <trkpt lat="45.57477" lon="6.79585">
        <ele>2085</ele>
        <time>2011-03-18T10:19:08.999Z</time>
      </trkpt>
      <trkpt lat="45.57474" lon="6.79586">
        <ele>2085</ele>
        <time>2011-03-18T10:19:24.996Z</time>
      </trkpt>
      <trkpt lat="45.57475" lon="6.79588">
        <ele>2085</ele>
        <time>2011-03-18T10:19:39.999Z</time>
      </trkpt>
      <trkpt lat="45.57475" lon="6.79588">
        <ele>2086</ele>
        <time>2011-03-18T10:19:55.974Z</time>
      </trkpt>
      <trkpt lat="45.57466" lon="6.79657">
        <ele>2090</ele>
        <time>2011-03-18T10:20:04.999Z</time>
      </trkpt>
      <trkpt lat="45.57457" lon="6.79728">
        <ele>2109</ele>
        <time>2011-03-18T10:20:15.965Z</time>
      </trkpt>
      <trkpt lat="45.57448" lon="6.79791">
        <ele>2117</ele>
        <time>2011-03-18T10:20:25.987Z</time>
      </trkpt>
      <trkpt lat="45.57438" lon="6.79855">
        <ele>2130</ele>
        <time>2011-03-18T10:20:35.982Z</time>
      </trkpt>
      <trkpt lat="45.57428" lon="6.79924">
        <ele>2145</ele>
        <time>2011-03-18T10:20:46.969Z</time>
      </trkpt>
      <trkpt lat="45.57418" lon="6.79987">
        <ele>2152</ele>
        <time>2011-03-18T10:20:56.999Z</time>
      </trkpt>
      <trkpt lat="45.57408" lon="6.80055">
        <ele>2163</ele>
        <time>2011-03-18T10:21:07.973Z</time>
      </trkpt>
      <trkpt lat="45.57398" lon="6.80121">
        <ele>2173</ele>
        <time>2011-03-18T10:21:18.964Z</time>
      </trkpt>
      <trkpt lat="45.57389" lon="6.8019">
        <ele>2180</ele>
        <time>2011-03-18T10:21:29.999Z</time>
      </trkpt>
      <trkpt lat="45.57379" lon="6.80257">
        <ele>2190</ele>
        <time>2011-03-18T10:21:40.984Z</time>
      </trkpt>
      <trkpt lat="45.57371" lon="6.8032">
        <ele>2199</ele>
        <time>2011-03-18T10:21:51.999Z</time>
      </trkpt>
      <trkpt lat="45.57361" lon="6.80386">
        <ele>2217</ele>
        <time>2011-03-18T10:22:02.999Z</time>
      </trkpt>
      <trkpt lat="45.57352" lon="6.8045">
        <ele>2237</ele>
        <time>2011-03-18T10:22:13.999Z</time>
      </trkpt>
      <trkpt lat="45.57339" lon="6.80524">
        <ele>2246</ele>
        <time>2011-03-18T10:22:24.953Z</time>
      </trkpt>
      <trkpt lat="45.57327" lon="6.80586">
        <ele>2251</ele>
        <time>2011-03-18T10:22:34.999Z</time>
      </trkpt>
      <trkpt lat="45.5732" lon="6.80655">
        <ele>2263</ele>
        <time>2011-03-18T10:22:45.999Z</time>
      </trkpt>
      <trkpt lat="45.57305" lon="6.80716">
        <ele>2275</ele>
        <time>2011-03-18T10:22:55.996Z</time>
      </trkpt>
      <trkpt lat="45.573" lon="6.80783">
        <ele>2295</ele>
        <time>2011-03-18T10:23:07.999Z</time>
      </trkpt>
      <trkpt lat="45.57289" lon="6.80849">
        <ele>2304</ele>
        <time>2011-03-18T10:23:18.999Z</time>
      </trkpt>
      <trkpt lat="45.57281" lon="6.80916">
        <ele>2314</ele>
        <time>2011-03-18T10:23:29.999Z</time>
      </trkpt>
      <trkpt lat="45.57273" lon="6.8098">
        <ele>2328</ele>
        <time>2011-03-18T10:23:38.998Z</time>
      </trkpt>
      <trkpt lat="45.57267" lon="6.81044">
        <ele>2354</ele>
        <time>2011-03-18T10:23:52.999Z</time>
      </trkpt>
      <trkpt lat="45.57257" lon="6.81107">
        <ele>2399</ele>
        <time>2011-03-18T10:24:07.999Z</time>
      </trkpt>
      <trkpt lat="45.5725" lon="6.81145">
        <ele>2404</ele>
        <time>2011-03-18T10:24:23.965Z</time>
      </trkpt>
      <trkpt lat="45.57204" lon="6.81165">
        <ele>2421</ele>
        <time>2011-03-18T10:24:33.970Z</time>
      </trkpt>
      <trkpt lat="45.57175" lon="6.81154">
        <ele>2431</ele>
        <time>2011-03-18T10:24:48.985Z</time>
      </trkpt>
      <trkpt lat="45.57177" lon="6.81153">
        <ele>2435</ele>
        <time>2011-03-18T10:25:04.999Z</time>
      </trkpt>
      <trkpt lat="45.57177" lon="6.81152">
        <ele>2438</ele>
        <time>2011-03-18T10:25:20.972Z</time>
      </trkpt>
      <trkpt lat="45.57178" lon="6.81152">
        <ele>2439</ele>
        <time>2011-03-18T10:25:36.999Z</time>
      </trkpt>
      <trkpt lat="45.57178" lon="6.81152">
        <ele>2439</ele>
        <time>2011-03-18T10:25:52.999Z</time>
      </trkpt>
      <trkpt lat="45.57178" lon="6.81152">
        <ele>2439</ele>
        <time>2011-03-18T10:26:08.965Z</time>
      </trkpt>
      <trkpt lat="45.57173" lon="6.81153">
        <ele>2449</ele>
        <time>2011-03-18T10:26:24.988Z</time>
      </trkpt>
      <trkpt lat="45.57166" lon="6.8114">
        <ele>2463</ele>
        <time>2011-03-18T10:26:40.971Z</time>
      </trkpt>
      <trkpt lat="45.57135" lon="6.81086">
        <ele>2462</ele>
        <time>2011-03-18T10:26:55.998Z</time>
      </trkpt>
      <trkpt lat="45.57107" lon="6.81036">
        <ele>2461</ele>
        <time>2011-03-18T10:27:05.961Z</time>
      </trkpt>
      <trkpt lat="45.57064" lon="6.81012">
        <ele>2459</ele>
        <time>2011-03-18T10:27:18.998Z</time>
      </trkpt>
      <trkpt lat="45.57024" lon="6.80982">
        <ele>2458</ele>
        <time>2011-03-18T10:27:25.982Z</time>
      </trkpt>
      <trkpt lat="45.56979" lon="6.80931">
        <ele>2455</ele>
        <time>2011-03-18T10:27:35.999Z</time>
      </trkpt>
      <trkpt lat="45.5693" lon="6.80932">
        <ele>2453</ele>
        <time>2011-03-18T10:27:44.993Z</time>
      </trkpt>
      <trkpt lat="45.56906" lon="6.80958">
        <ele>2448</ele>
        <time>2011-03-18T10:28:00.966Z</time>
      </trkpt>
      <trkpt lat="45.56874" lon="6.80979">
        <ele>2444</ele>
        <time>2011-03-18T10:28:15.999Z</time>
      </trkpt>
      <trkpt lat="45.56841" lon="6.81005">
        <ele>2431</ele>
        <time>2011-03-18T10:28:31.999Z</time>
      </trkpt>
      <trkpt lat="45.56795" lon="6.81024">
        <ele>2424</ele>
        <time>2011-03-18T10:28:39.999Z</time>
      </trkpt>
      <trkpt lat="45.56749" lon="6.81038">
        <ele>2412</ele>
        <time>2011-03-18T10:28:49.999Z</time>
      </trkpt>
      <trkpt lat="45.56701" lon="6.81049">
        <ele>2401</ele>
        <time>2011-03-18T10:29:01.999Z</time>
      </trkpt>
      <trkpt lat="45.56647" lon="6.81058">
        <ele>2398</ele>
        <time>2011-03-18T10:29:06.999Z</time>
      </trkpt>
      <trkpt lat="45.56594" lon="6.81072">
        <ele>2393</ele>
        <time>2011-03-18T10:29:11.997Z</time>
      </trkpt>
      <trkpt lat="45.56566" lon="6.81113">
        <ele>2387</ele>
        <time>2011-03-18T10:29:26.999Z</time>
      </trkpt>
      <trkpt lat="45.56573" lon="6.81156">
        <ele>2382</ele>
        <time>2011-03-18T10:29:42.999Z</time>
      </trkpt>
      <trkpt lat="45.56614" lon="6.81193">
        <ele>2379</ele>
        <time>2011-03-18T10:29:52.999Z</time>
      </trkpt>
      <trkpt lat="45.56651" lon="6.81231">
        <ele>2374</ele>
        <time>2011-03-18T10:30:04.975Z</time>
      </trkpt>
      <trkpt lat="45.56678" lon="6.81286">
        <ele>2372</ele>
        <time>2011-03-18T10:30:15.999Z</time>
      </trkpt>
      <trkpt lat="45.56714" lon="6.81328">
        <ele>2365</ele>
        <time>2011-03-18T10:30:31.999Z</time>
      </trkpt>
      <trkpt lat="45.56752" lon="6.81369">
        <ele>2357</ele>
        <time>2011-03-18T10:30:46.999Z</time>
      </trkpt>
      <trkpt lat="45.56789" lon="6.81408">
        <ele>2353</ele>
        <time>2011-03-18T10:30:56.999Z</time>
      </trkpt>
      <trkpt lat="45.56811" lon="6.81472">
        <ele>2344</ele>
        <time>2011-03-18T10:31:04.999Z</time>
      </trkpt>
      <trkpt lat="45.5682" lon="6.81544">
        <ele>2325</ele>
        <time>2011-03-18T10:31:12.999Z</time>
      </trkpt>
      <trkpt lat="45.56842" lon="6.81601">
        <ele>2312</ele>
        <time>2011-03-18T10:31:19.999Z</time>
      </trkpt>
      <trkpt lat="45.56875" lon="6.81647">
        <ele>2302</ele>
        <time>2011-03-18T10:31:27.998Z</time>
      </trkpt>
      <trkpt lat="45.56898" lon="6.81703">
        <ele>2294</ele>
        <time>2011-03-18T10:31:34.979Z</time>
      </trkpt>
      <trkpt lat="45.56909" lon="6.81767">
        <ele>2280</ele>
        <time>2011-03-18T10:31:41.996Z</time>
      </trkpt>
      <trkpt lat="45.56927" lon="6.81831">
        <ele>2275</ele>
        <time>2011-03-18T10:31:48.966Z</time>
      </trkpt>
      <trkpt lat="45.56952" lon="6.81896">
        <ele>2268</ele>
        <time>2011-03-18T10:31:55.982Z</time>
      </trkpt>
      <trkpt lat="45.56951" lon="6.81967">
        <ele>2256</ele>
        <time>2011-03-18T10:32:02.975Z</time>
      </trkpt>
      <trkpt lat="45.5695" lon="6.82032">
        <ele>2250</ele>
        <time>2011-03-18T10:32:08.990Z</time>
      </trkpt>
      <trkpt lat="45.56964" lon="6.82098">
        <ele>2246</ele>
        <time>2011-03-18T10:32:14.971Z</time>
      </trkpt>
      <trkpt lat="45.56983" lon="6.82159">
        <ele>2243</ele>
        <time>2011-03-18T10:32:19.962Z</time>
      </trkpt>
      <trkpt lat="45.57021" lon="6.82204">
        <ele>2240</ele>
        <time>2011-03-18T10:32:24.961Z</time>
      </trkpt>
      <trkpt lat="45.57069" lon="6.82228">
        <ele>2235</ele>
        <time>2011-03-18T10:32:30.999Z</time>
      </trkpt>
      <trkpt lat="45.57106" lon="6.82274">
        <ele>2231</ele>
        <time>2011-03-18T10:32:36.999Z</time>
      </trkpt>
      <trkpt lat="45.57145" lon="6.82313">
        <ele>2227</ele>
        <time>2011-03-18T10:32:42.963Z</time>
      </trkpt>
      <trkpt lat="45.57193" lon="6.82335">
        <ele>2222</ele>
        <time>2011-03-18T10:32:48.997Z</time>
      </trkpt>
      <trkpt lat="45.57236" lon="6.82359">
        <ele>2215</ele>
        <time>2011-03-18T10:32:54.999Z</time>
      </trkpt>
      <trkpt lat="45.5727" lon="6.82375">
        <ele>2189</ele>
        <time>2011-03-18T10:33:10.963Z</time>
      </trkpt>
      <trkpt lat="45.57289" lon="6.82395">
        <ele>2181</ele>
        <time>2011-03-18T10:33:25.987Z</time>
      </trkpt>
      <trkpt lat="45.57332" lon="6.82434">
        <ele>2178</ele>
        <time>2011-03-18T10:33:32.949Z</time>
      </trkpt>
      <trkpt lat="45.57371" lon="6.82474">
        <ele>2175</ele>
        <time>2011-03-18T10:33:38.982Z</time>
      </trkpt>
      <trkpt lat="45.57415" lon="6.82518">
        <ele>2172</ele>
        <time>2011-03-18T10:33:44.999Z</time>
      </trkpt>
      <trkpt lat="45.57462" lon="6.82555">
        <ele>2170</ele>
        <time>2011-03-18T10:33:50.993Z</time>
      </trkpt>
      <trkpt lat="45.57501" lon="6.82595">
        <ele>2168</ele>
        <time>2011-03-18T10:33:56.999Z</time>
      </trkpt>
      <trkpt lat="45.57528" lon="6.8266">
        <ele>2164</ele>
        <time>2011-03-18T10:34:02.999Z</time>
      </trkpt>
      <trkpt lat="45.5756" lon="6.82718">
        <ele>2161</ele>
        <time>2011-03-18T10:34:07.995Z</time>
      </trkpt>
      <trkpt lat="45.57588" lon="6.82769">
        <ele>2157</ele>
        <time>2011-03-18T10:34:12.999Z</time>
      </trkpt>
      <trkpt lat="45.57617" lon="6.82822">
        <ele>2152</ele>
        <time>2011-03-18T10:34:18.999Z</time>
      </trkpt>
      <trkpt lat="45.57648" lon="6.82869">
        <ele>2147</ele>
        <time>2011-03-18T10:34:23.997Z</time>
      </trkpt>
      <trkpt lat="45.57687" lon="6.82919">
        <ele>2141</ele>
        <time>2011-03-18T10:34:29.996Z</time>
      </trkpt>
      <trkpt lat="45.57728" lon="6.82959">
        <ele>2137</ele>
        <time>2011-03-18T10:34:35.995Z</time>
      </trkpt>
      <trkpt lat="45.57767" lon="6.83009">
        <ele>2134</ele>
        <time>2011-03-18T10:34:40.999Z</time>
      </trkpt>
      <trkpt lat="45.5781" lon="6.8305">
        <ele>2131</ele>
        <time>2011-03-18T10:34:45.997Z</time>
      </trkpt>
      <trkpt lat="45.57851" lon="6.8309">
        <ele>2127</ele>
        <time>2011-03-18T10:34:50.999Z</time>
      </trkpt>
      <trkpt lat="45.57891" lon="6.83128">
        <ele>2125</ele>
        <time>2011-03-18T10:34:56.999Z</time>
      </trkpt>
      <trkpt lat="45.57936" lon="6.83151">
        <ele>2121</ele>
        <time>2011-03-18T10:35:02.999Z</time>
      </trkpt>
      <trkpt lat="45.57976" lon="6.83195">
        <ele>2119</ele>
        <time>2011-03-18T10:35:08.996Z</time>
      </trkpt>
      <trkpt lat="45.5801" lon="6.83244">
        <ele>2117</ele>
        <time>2011-03-18T10:35:13.999Z</time>
      </trkpt>
      <trkpt lat="45.58049" lon="6.83287">
        <ele>2116</ele>
        <time>2011-03-18T10:35:17.999Z</time>
      </trkpt>
      <trkpt lat="45.58095" lon="6.8332">
        <ele>2113</ele>
        <time>2011-03-18T10:35:22.999Z</time>
      </trkpt>
      <trkpt lat="45.58143" lon="6.83346">
        <ele>2108</ele>
        <time>2011-03-18T10:35:28.996Z</time>
      </trkpt>
      <trkpt lat="45.58188" lon="6.83345">
        <ele>2096</ele>
        <time>2011-03-18T10:35:35.999Z</time>
      </trkpt>
      <trkpt lat="45.58235" lon="6.83302">
        <ele>2058</ele>
        <time>2011-03-18T10:35:45.999Z</time>
      </trkpt>
      <trkpt lat="45.58261" lon="6.83246">
        <ele>2020</ele>
        <time>2011-03-18T10:35:48.999Z</time>
      </trkpt>
      <trkpt lat="45.58267" lon="6.83229">
        <ele>2000</ele>
        <time>2011-03-18T10:36:04.977Z</time>
      </trkpt>
      <trkpt lat="45.58262" lon="6.83218">
        <ele>1984</ele>
        <time>2011-03-18T10:36:19.979Z</time>
      </trkpt>
      <trkpt lat="45.58251" lon="6.83209">
        <ele>1962</ele>
        <time>2011-03-18T10:36:35.956Z</time>
      </trkpt>
      <trkpt lat="45.58247" lon="6.83207">
        <ele>1957</ele>
        <time>2011-03-18T10:36:51.969Z</time>
      </trkpt>
      <trkpt lat="45.58241" lon="6.83206">
        <ele>1947</ele>
        <time>2011-03-18T10:37:06.982Z</time>
      </trkpt>
      <trkpt lat="45.58211" lon="6.83204">
        <ele>1904</ele>
        <time>2011-03-18T10:37:21.999Z</time>
      </trkpt>
      <trkpt lat="45.58181" lon="6.83194">
        <ele>1902</ele>
        <time>2011-03-18T10:37:37.999Z</time>
      </trkpt>
      <trkpt lat="45.5815" lon="6.83183">
        <ele>1902</ele>
        <time>2011-03-18T10:37:53.964Z</time>
      </trkpt>
      <trkpt lat="45.58119" lon="6.83172">
        <ele>1904</ele>
        <time>2011-03-18T10:38:09.972Z</time>
      </trkpt>
      <trkpt lat="45.58089" lon="6.83161">
        <ele>1909</ele>
        <time>2011-03-18T10:38:25.984Z</time>
      </trkpt>
      <trkpt lat="45.5806" lon="6.8315">
        <ele>1916</ele>
        <time>2011-03-18T10:38:40.999Z</time>
      </trkpt>
      <trkpt lat="45.5803" lon="6.83139">
        <ele>1926</ele>
        <time>2011-03-18T10:38:56.959Z</time>
      </trkpt>
      <trkpt lat="45.58001" lon="6.83129">
        <ele>1935</ele>
        <time>2011-03-18T10:39:11.976Z</time>
      </trkpt>
      <trkpt lat="45.57972" lon="6.83119">
        <ele>1945</ele>
        <time>2011-03-18T10:39:26.999Z</time>
      </trkpt>
      <trkpt lat="45.57943" lon="6.83109">
        <ele>1956</ele>
        <time>2011-03-18T10:39:42.951Z</time>
      </trkpt>
      <trkpt lat="45.57915" lon="6.83101">
        <ele>1964</ele>
        <time>2011-03-18T10:39:57.953Z</time>
      </trkpt>
      <trkpt lat="45.57884" lon="6.83089">
        <ele>1973</ele>
        <time>2011-03-18T10:40:13.999Z</time>
      </trkpt>
      <trkpt lat="45.57852" lon="6.8308">
        <ele>1978</ele>
        <time>2011-03-18T10:40:29.962Z</time>
      </trkpt>
      <trkpt lat="45.57824" lon="6.8307">
        <ele>1985</ele>
        <time>2011-03-18T10:40:44.999Z</time>
      </trkpt>
      <trkpt lat="45.57793" lon="6.83062">
        <ele>1990</ele>
        <time>2011-03-18T10:41:00.999Z</time>
      </trkpt>
      <trkpt lat="45.57763" lon="6.83053">
        <ele>1995</ele>
        <time>2011-03-18T10:41:16.998Z</time>
      </trkpt>
      <trkpt lat="45.57733" lon="6.83044">
        <ele>2003</ele>
        <time>2011-03-18T10:41:32.952Z</time>
      </trkpt>
      <trkpt lat="45.57705" lon="6.83036">
        <ele>2007</ele>
        <time>2011-03-18T10:41:47.953Z</time>
      </trkpt>
      <trkpt lat="45.57677" lon="6.83023">
        <ele>2016</ele>
        <time>2011-03-18T10:42:02.964Z</time>
      </trkpt>
      <trkpt lat="45.57645" lon="6.83011">
        <ele>2026</ele>
        <time>2011-03-18T10:42:18.956Z</time>
      </trkpt>
      <trkpt lat="45.57614" lon="6.83">
        <ele>2034</ele>
        <time>2011-03-18T10:42:34.955Z</time>
      </trkpt>
      <trkpt lat="45.57583" lon="6.82984">
        <ele>2045</ele>
        <time>2011-03-18T10:42:50.961Z</time>
      </trkpt>
      <trkpt lat="45.57554" lon="6.82972">
        <ele>2051</ele>
        <time>2011-03-18T10:43:05.985Z</time>
      </trkpt>
      <trkpt lat="45.57525" lon="6.8296">
        <ele>2059</ele>
        <time>2011-03-18T10:43:20.999Z</time>
      </trkpt>
      <trkpt lat="45.57494" lon="6.82948">
        <ele>2064</ele>
        <time>2011-03-18T10:43:36.999Z</time>
      </trkpt>
      <trkpt lat="45.57463" lon="6.82937">
        <ele>2068</ele>
        <time>2011-03-18T10:43:52.963Z</time>
      </trkpt>
      <trkpt lat="45.57431" lon="6.82925">
        <ele>2074</ele>
        <time>2011-03-18T10:44:08.964Z</time>
      </trkpt>
      <trkpt lat="45.57402" lon="6.82914">
        <ele>2078</ele>
        <time>2011-03-18T10:44:23.999Z</time>
      </trkpt>
      <trkpt lat="45.57371" lon="6.82901">
        <ele>2084</ele>
        <time>2011-03-18T10:44:39.999Z</time>
      </trkpt>
      <trkpt lat="45.5734" lon="6.82889">
        <ele>2089</ele>
        <time>2011-03-18T10:44:55.956Z</time>
      </trkpt>
      <trkpt lat="45.57308" lon="6.82876">
        <ele>2094</ele>
        <time>2011-03-18T10:45:11.955Z</time>
      </trkpt>
      <trkpt lat="45.57276" lon="6.82864">
        <ele>2098</ele>
        <time>2011-03-18T10:45:27.965Z</time>
      </trkpt>
      <trkpt lat="45.57252" lon="6.82854">
        <ele>2102</ele>
        <time>2011-03-18T10:45:42.999Z</time>
      </trkpt>
      <trkpt lat="45.57226" lon="6.82844">
        <ele>2106</ele>
        <time>2011-03-18T10:45:58.952Z</time>
      </trkpt>
      <trkpt lat="45.57196" lon="6.82834">
        <ele>2112</ele>
        <time>2011-03-18T10:46:13.963Z</time>
      </trkpt>
      <trkpt lat="45.57165" lon="6.82823">
        <ele>2117</ele>
        <time>2011-03-18T10:46:29.978Z</time>
      </trkpt>
      <trkpt lat="45.57135" lon="6.82811">
        <ele>2123</ele>
        <time>2011-03-18T10:46:45.953Z</time>
      </trkpt>
      <trkpt lat="45.57106" lon="6.82801">
        <ele>2134</ele>
        <time>2011-03-18T10:47:00.999Z</time>
      </trkpt>
      <trkpt lat="45.57075" lon="6.82793">
        <ele>2140</ele>
        <time>2011-03-18T10:47:16.948Z</time>
      </trkpt>
      <trkpt lat="45.57046" lon="6.82788">
        <ele>2142</ele>
        <time>2011-03-18T10:47:31.965Z</time>
      </trkpt>
      <trkpt lat="45.57016" lon="6.82775">
        <ele>2157</ele>
        <time>2011-03-18T10:47:47.975Z</time>
      </trkpt>
      <trkpt lat="45.56988" lon="6.82764">
        <ele>2166</ele>
        <time>2011-03-18T10:48:03.999Z</time>
      </trkpt>
      <trkpt lat="45.56957" lon="6.82754">
        <ele>2171</ele>
        <time>2011-03-18T10:48:19.999Z</time>
      </trkpt>
      <trkpt lat="45.56925" lon="6.8274">
        <ele>2180</ele>
        <time>2011-03-18T10:48:35.999Z</time>
      </trkpt>
      <trkpt lat="45.56894" lon="6.82727">
        <ele>2189</ele>
        <time>2011-03-18T10:48:51.950Z</time>
      </trkpt>
      <trkpt lat="45.56875" lon="6.82719">
        <ele>2195</ele>
        <time>2011-03-18T10:49:06.985Z</time>
      </trkpt>
      <trkpt lat="45.56853" lon="6.8271">
        <ele>2201</ele>
        <time>2011-03-18T10:49:21.997Z</time>
      </trkpt>
      <trkpt lat="45.56822" lon="6.82699">
        <ele>2210</ele>
        <time>2011-03-18T10:49:37.951Z</time>
      </trkpt>
      <trkpt lat="45.56793" lon="6.82688">
        <ele>2217</ele>
        <time>2011-03-18T10:49:52.960Z</time>
      </trkpt>
      <trkpt lat="45.56763" lon="6.82677">
        <ele>2224</ele>
        <time>2011-03-18T10:50:08.999Z</time>
      </trkpt>
      <trkpt lat="45.56731" lon="6.82665">
        <ele>2231</ele>
        <time>2011-03-18T10:50:24.998Z</time>
      </trkpt>
      <trkpt lat="45.56702" lon="6.82654">
        <ele>2234</ele>
        <time>2011-03-18T10:50:39.999Z</time>
      </trkpt>
      <trkpt lat="45.56671" lon="6.82643">
        <ele>2236</ele>
        <time>2011-03-18T10:50:55.998Z</time>
      </trkpt>
      <trkpt lat="45.56639" lon="6.82631">
        <ele>2235</ele>
        <time>2011-03-18T10:51:11.999Z</time>
      </trkpt>
      <trkpt lat="45.56604" lon="6.82616">
        <ele>2234</ele>
        <time>2011-03-18T10:51:27.999Z</time>
      </trkpt>
      <trkpt lat="45.56604" lon="6.82615">
        <ele>2233</ele>
        <time>2011-03-18T10:51:43.999Z</time>
      </trkpt>
      <trkpt lat="45.56607" lon="6.82609">
        <ele>2233</ele>
        <time>2011-03-18T10:51:59.999Z</time>
      </trkpt>
      <trkpt lat="45.56609" lon="6.82604">
        <ele>2232</ele>
        <time>2011-03-18T10:52:15.999Z</time>
      </trkpt>
      <trkpt lat="45.56605" lon="6.8261">
        <ele>2234</ele>
        <time>2011-03-18T10:52:31.999Z</time>
      </trkpt>
      <trkpt lat="45.56604" lon="6.82608">
        <ele>2234</ele>
        <time>2011-03-18T10:52:47.999Z</time>
      </trkpt>
      <trkpt lat="45.56591" lon="6.82601">
        <ele>2233</ele>
        <time>2011-03-18T10:53:03.988Z</time>
      </trkpt>
      <trkpt lat="45.56582" lon="6.82592">
        <ele>2232</ele>
        <time>2011-03-18T10:53:19.954Z</time>
      </trkpt>
      <trkpt lat="45.56552" lon="6.82559">
        <ele>2232</ele>
        <time>2011-03-18T10:53:34.986Z</time>
      </trkpt>
      <trkpt lat="45.56532" lon="6.82533">
        <ele>2232</ele>
        <time>2011-03-18T10:53:50.953Z</time>
      </trkpt>
      <trkpt lat="45.56523" lon="6.82522">
        <ele>2231</ele>
        <time>2011-03-18T10:54:05.999Z</time>
      </trkpt>
      <trkpt lat="45.56515" lon="6.82511">
        <ele>2229</ele>
        <time>2011-03-18T10:54:21.984Z</time>
      </trkpt>
      <trkpt lat="45.56507" lon="6.82499">
        <ele>2228</ele>
        <time>2011-03-18T10:54:37.944Z</time>
      </trkpt>
      <trkpt lat="45.565" lon="6.82487">
        <ele>2228</ele>
        <time>2011-03-18T10:54:52.950Z</time>
      </trkpt>
      <trkpt lat="45.56494" lon="6.82475">
        <ele>2229</ele>
        <time>2011-03-18T10:55:07.999Z</time>
      </trkpt>
      <trkpt lat="45.56489" lon="6.82465">
        <ele>2232</ele>
        <time>2011-03-18T10:55:23.999Z</time>
      </trkpt>
      <trkpt lat="45.56487" lon="6.8246">
        <ele>2231</ele>
        <time>2011-03-18T10:55:39.999Z</time>
      </trkpt>
      <trkpt lat="45.56485" lon="6.82453">
        <ele>2233</ele>
        <time>2011-03-18T10:55:55.999Z</time>
      </trkpt>
      <trkpt lat="45.56485" lon="6.82452">
        <ele>2235</ele>
        <time>2011-03-18T10:56:11.999Z</time>
      </trkpt>
      <trkpt lat="45.56485" lon="6.82452">
        <ele>2236</ele>
        <time>2011-03-18T10:56:27.999Z</time>
      </trkpt>
      <trkpt lat="45.56485" lon="6.82449">
        <ele>2238</ele>
        <time>2011-03-18T10:56:43.999Z</time>
      </trkpt>
      <trkpt lat="45.56484" lon="6.82449">
        <ele>2238</ele>
        <time>2011-03-18T10:56:59.999Z</time>
      </trkpt>
      <trkpt lat="45.56485" lon="6.82449">
        <ele>2238</ele>
        <time>2011-03-18T10:57:15.999Z</time>
      </trkpt>
      <trkpt lat="45.56485" lon="6.82449">
        <ele>2238</ele>
        <time>2011-03-18T10:57:31.999Z</time>
      </trkpt>
      <trkpt lat="45.56484" lon="6.82448">
        <ele>2239</ele>
        <time>2011-03-18T10:57:47.999Z</time>
      </trkpt>
      <trkpt lat="45.56485" lon="6.82446">
        <ele>2240</ele>
        <time>2011-03-18T10:58:03.988Z</time>
      </trkpt>
      <trkpt lat="45.56483" lon="6.82445">
        <ele>2239</ele>
        <time>2011-03-18T10:58:18.999Z</time>
      </trkpt>
      <trkpt lat="45.56481" lon="6.82444">
        <ele>2239</ele>
        <time>2011-03-18T10:58:34.999Z</time>
      </trkpt>
      <trkpt lat="45.56481" lon="6.82445">
        <ele>2239</ele>
        <time>2011-03-18T10:58:50.951Z</time>
      </trkpt>
      <trkpt lat="45.56479" lon="6.82442">
        <ele>2240</ele>
        <time>2011-03-18T10:59:06.953Z</time>
      </trkpt>
      <trkpt lat="45.56477" lon="6.82441">
        <ele>2240</ele>
        <time>2011-03-18T10:59:21.956Z</time>
      </trkpt>
      <trkpt lat="45.56477" lon="6.8244">
        <ele>2241</ele>
        <time>2011-03-18T10:59:36.982Z</time>
      </trkpt>
      <trkpt lat="45.56476" lon="6.82439">
        <ele>2241</ele>
        <time>2011-03-18T10:59:51.995Z</time>
      </trkpt>
      <trkpt lat="45.56474" lon="6.82439">
        <ele>2241</ele>
        <time>2011-03-18T11:00:06.999Z</time>
      </trkpt>
      <trkpt lat="45.56474" lon="6.82438">
        <ele>2241</ele>
        <time>2011-03-18T11:00:22.978Z</time>
      </trkpt>
      <trkpt lat="45.56471" lon="6.82437">
        <ele>2241</ele>
        <time>2011-03-18T11:00:37.984Z</time>
      </trkpt>
      <trkpt lat="45.56471" lon="6.82435">
        <ele>2241</ele>
        <time>2011-03-18T11:00:52.999Z</time>
      </trkpt>
      <trkpt lat="45.56469" lon="6.82433">
        <ele>2241</ele>
        <time>2011-03-18T11:01:08.999Z</time>
      </trkpt>
      <trkpt lat="45.56465" lon="6.8243">
        <ele>2241</ele>
        <time>2011-03-18T11:01:24.994Z</time>
      </trkpt>
      <trkpt lat="45.56464" lon="6.82426">
        <ele>2242</ele>
        <time>2011-03-18T11:01:39.999Z</time>
      </trkpt>
      <trkpt lat="45.56464" lon="6.82424">
        <ele>2243</ele>
        <time>2011-03-18T11:01:55.999Z</time>
      </trkpt>
      <trkpt lat="45.5646" lon="6.82424">
        <ele>2242</ele>
        <time>2011-03-18T11:02:11.999Z</time>
      </trkpt>
      <trkpt lat="45.56458" lon="6.82424">
        <ele>2241</ele>
        <time>2011-03-18T11:02:27.997Z</time>
      </trkpt>
      <trkpt lat="45.56457" lon="6.82424">
        <ele>2240</ele>
        <time>2011-03-18T11:02:43.999Z</time>
      </trkpt>
      <trkpt lat="45.56455" lon="6.82423">
        <ele>2240</ele>
        <time>2011-03-18T11:02:59.999Z</time>
      </trkpt>
      <trkpt lat="45.56451" lon="6.82424">
        <ele>2241</ele>
        <time>2011-03-18T11:03:15.999Z</time>
      </trkpt>
      <trkpt lat="45.56451" lon="6.82423">
        <ele>2241</ele>
        <time>2011-03-18T11:03:31.999Z</time>
      </trkpt>
      <trkpt lat="45.56407" lon="6.82389">
        <ele>2234</ele>
        <time>2011-03-18T11:03:47.999Z</time>
      </trkpt>
      <trkpt lat="45.56369" lon="6.82348">
        <ele>2240</ele>
        <time>2011-03-18T11:03:58.999Z</time>
      </trkpt>
      <trkpt lat="45.56334" lon="6.82308">
        <ele>2247</ele>
        <time>2011-03-18T11:04:11.999Z</time>
      </trkpt>
      <trkpt lat="45.56296" lon="6.82273">
        <ele>2253</ele>
        <time>2011-03-18T11:04:27.999Z</time>
      </trkpt>
      <trkpt lat="45.56258" lon="6.82234">
        <ele>2255</ele>
        <time>2011-03-18T11:04:39.992Z</time>
      </trkpt>
      <trkpt lat="45.56221" lon="6.82193">
        <ele>2265</ele>
        <time>2011-03-18T11:04:50.999Z</time>
      </trkpt>
      <trkpt lat="45.56182" lon="6.82153">
        <ele>2276</ele>
        <time>2011-03-18T11:05:02.937Z</time>
      </trkpt>
      <trkpt lat="45.56143" lon="6.82118">
        <ele>2281</ele>
        <time>2011-03-18T11:05:14.965Z</time>
      </trkpt>
      <trkpt lat="45.56104" lon="6.82085">
        <ele>2283</ele>
        <time>2011-03-18T11:05:26.938Z</time>
      </trkpt>
      <trkpt lat="45.56064" lon="6.82044">
        <ele>2288</ele>
        <time>2011-03-18T11:05:38.938Z</time>
      </trkpt>
      <trkpt lat="45.56024" lon="6.82005">
        <ele>2294</ele>
        <time>2011-03-18T11:05:50.999Z</time>
      </trkpt>
      <trkpt lat="45.55985" lon="6.81971">
        <ele>2295</ele>
        <time>2011-03-18T11:06:02.970Z</time>
      </trkpt>
      <trkpt lat="45.55946" lon="6.81934">
        <ele>2298</ele>
        <time>2011-03-18T11:06:14.962Z</time>
      </trkpt>
      <trkpt lat="45.55906" lon="6.81901">
        <ele>2302</ele>
        <time>2011-03-18T11:06:26.933Z</time>
      </trkpt>
      <trkpt lat="45.55871" lon="6.81859">
        <ele>2313</ele>
        <time>2011-03-18T11:06:37.958Z</time>
      </trkpt>
      <trkpt lat="45.55836" lon="6.81819">
        <ele>2320</ele>
        <time>2011-03-18T11:06:48.941Z</time>
      </trkpt>
      <trkpt lat="45.55802" lon="6.81782">
        <ele>2332</ele>
        <time>2011-03-18T11:07:03.999Z</time>
      </trkpt>
      <trkpt lat="45.55781" lon="6.81755">
        <ele>2342</ele>
        <time>2011-03-18T11:07:19.999Z</time>
      </trkpt>
      <trkpt lat="45.55762" lon="6.81735">
        <ele>2351</ele>
        <time>2011-03-18T11:07:35.999Z</time>
      </trkpt>
      <trkpt lat="45.55739" lon="6.81711">
        <ele>2357</ele>
        <time>2011-03-18T11:07:51.998Z</time>
      </trkpt>
      <trkpt lat="45.55716" lon="6.81688">
        <ele>2361</ele>
        <time>2011-03-18T11:08:06.999Z</time>
      </trkpt>
      <trkpt lat="45.55699" lon="6.81671">
        <ele>2365</ele>
        <time>2011-03-18T11:08:22.999Z</time>
      </trkpt>
      <trkpt lat="45.55698" lon="6.81669">
        <ele>2368</ele>
        <time>2011-03-18T11:08:38.978Z</time>
      </trkpt>
      <trkpt lat="45.55692" lon="6.81663">
        <ele>2370</ele>
        <time>2011-03-18T11:08:54.946Z</time>
      </trkpt>
      <trkpt lat="45.55662" lon="6.81633">
        <ele>2376</ele>
        <time>2011-03-18T11:09:09.958Z</time>
      </trkpt>
      <trkpt lat="45.55625" lon="6.81595">
        <ele>2386</ele>
        <time>2011-03-18T11:09:21.942Z</time>
      </trkpt>
      <trkpt lat="45.55588" lon="6.81558">
        <ele>2395</ele>
        <time>2011-03-18T11:09:33.946Z</time>
      </trkpt>
      <trkpt lat="45.55549" lon="6.8152">
        <ele>2403</ele>
        <time>2011-03-18T11:09:45.999Z</time>
      </trkpt>
      <trkpt lat="45.55512" lon="6.81481">
        <ele>2414</ele>
        <time>2011-03-18T11:09:57.938Z</time>
      </trkpt>
      <trkpt lat="45.55474" lon="6.81445">
        <ele>2427</ele>
        <time>2011-03-18T11:10:09.972Z</time>
      </trkpt>
      <trkpt lat="45.55434" lon="6.81407">
        <ele>2444</ele>
        <time>2011-03-18T11:10:22.998Z</time>
      </trkpt>
      <trkpt lat="45.55395" lon="6.81367">
        <ele>2460</ele>
        <time>2011-03-18T11:10:35.949Z</time>
      </trkpt>
      <trkpt lat="45.55356" lon="6.81329">
        <ele>2475</ele>
        <time>2011-03-18T11:10:47.958Z</time>
      </trkpt>
      <trkpt lat="45.55318" lon="6.81291">
        <ele>2490</ele>
        <time>2011-03-18T11:10:59.999Z</time>
      </trkpt>
      <trkpt lat="45.55279" lon="6.81253">
        <ele>2505</ele>
        <time>2011-03-18T11:11:12.999Z</time>
      </trkpt>
      <trkpt lat="45.55248" lon="6.81226">
        <ele>2519</ele>
        <time>2011-03-18T11:11:28.979Z</time>
      </trkpt>
      <trkpt lat="45.5521" lon="6.81187">
        <ele>2534</ele>
        <time>2011-03-18T11:11:41.999Z</time>
      </trkpt>
      <trkpt lat="45.55171" lon="6.81146">
        <ele>2547</ele>
        <time>2011-03-18T11:11:53.942Z</time>
      </trkpt>
      <trkpt lat="45.55134" lon="6.81109">
        <ele>2566</ele>
        <time>2011-03-18T11:12:05.954Z</time>
      </trkpt>
      <trkpt lat="45.55093" lon="6.81072">
        <ele>2572</ele>
        <time>2011-03-18T11:12:20.966Z</time>
      </trkpt>
      <trkpt lat="45.5509" lon="6.81066">
        <ele>2575</ele>
        <time>2011-03-18T11:12:35.996Z</time>
      </trkpt>
      <trkpt lat="45.55085" lon="6.81062">
        <ele>2580</ele>
        <time>2011-03-18T11:12:51.999Z</time>
      </trkpt>
      <trkpt lat="45.55083" lon="6.81061">
        <ele>2580</ele>
        <time>2011-03-18T11:13:07.974Z</time>
      </trkpt>
      <trkpt lat="45.55082" lon="6.81063">
        <ele>2586</ele>
        <time>2011-03-18T11:13:23.959Z</time>
      </trkpt>
      <trkpt lat="45.55078" lon="6.81061">
        <ele>2588</ele>
        <time>2011-03-18T11:13:39.949Z</time>
      </trkpt>
      <trkpt lat="45.55072" lon="6.81072">
        <ele>2589</ele>
        <time>2011-03-18T11:13:54.999Z</time>
      </trkpt>
      <trkpt lat="45.55079" lon="6.81142">
        <ele>2587</ele>
        <time>2011-03-18T11:14:10.999Z</time>
      </trkpt>
      <trkpt lat="45.5509" lon="6.8119">
        <ele>2581</ele>
        <time>2011-03-18T11:14:26.999Z</time>
      </trkpt>
      <trkpt lat="45.55115" lon="6.8121">
        <ele>2571</ele>
        <time>2011-03-18T11:14:42.999Z</time>
      </trkpt>
      <trkpt lat="45.55161" lon="6.81202">
        <ele>2565</ele>
        <time>2011-03-18T11:14:49.998Z</time>
      </trkpt>
      <trkpt lat="45.55211" lon="6.8121">
        <ele>2562</ele>
        <time>2011-03-18T11:14:56.998Z</time>
      </trkpt>
      <trkpt lat="45.5523" lon="6.8122">
        <ele>2555</ele>
        <time>2011-03-18T11:15:11.999Z</time>
      </trkpt>
      <trkpt lat="45.55233" lon="6.8122">
        <ele>2555</ele>
        <time>2011-03-18T11:15:27.999Z</time>
      </trkpt>
      <trkpt lat="45.55232" lon="6.8122">
        <ele>2555</ele>
        <time>2011-03-18T11:15:43.999Z</time>
      </trkpt>
      <trkpt lat="45.5525" lon="6.81224">
        <ele>2554</ele>
        <time>2011-03-18T11:15:59.999Z</time>
      </trkpt>
      <trkpt lat="45.55266" lon="6.81256">
        <ele>2545</ele>
        <time>2011-03-18T11:16:15.999Z</time>
      </trkpt>
      <trkpt lat="45.55274" lon="6.81288">
        <ele>2536</ele>
        <time>2011-03-18T11:16:31.997Z</time>
      </trkpt>
      <trkpt lat="45.55294" lon="6.81335">
        <ele>2529</ele>
        <time>2011-03-18T11:16:46.998Z</time>
      </trkpt>
      <trkpt lat="45.55335" lon="6.81366">
        <ele>2524</ele>
        <time>2011-03-18T11:16:55.999Z</time>
      </trkpt>
      <trkpt lat="45.55353" lon="6.81392">
        <ele>2512</ele>
        <time>2011-03-18T11:17:11.976Z</time>
      </trkpt>
      <trkpt lat="45.55356" lon="6.8139">
        <ele>2505</ele>
        <time>2011-03-18T11:17:26.982Z</time>
      </trkpt>
      <trkpt lat="45.55356" lon="6.8139">
        <ele>2505</ele>
        <time>2011-03-18T11:17:41.983Z</time>
      </trkpt>
      <trkpt lat="45.55355" lon="6.81393">
        <ele>2505</ele>
        <time>2011-03-18T11:17:57.955Z</time>
      </trkpt>
      <trkpt lat="45.55358" lon="6.81393">
        <ele>2500</ele>
        <time>2011-03-18T11:18:12.999Z</time>
      </trkpt>
      <trkpt lat="45.55359" lon="6.81393">
        <ele>2496</ele>
        <time>2011-03-18T11:18:28.999Z</time>
      </trkpt>
      <trkpt lat="45.55361" lon="6.814">
        <ele>2493</ele>
        <time>2011-03-18T11:18:45.984Z</time>
      </trkpt>
      <trkpt lat="45.55361" lon="6.81426">
        <ele>2486</ele>
        <time>2011-03-18T11:19:01.996Z</time>
      </trkpt>
      <trkpt lat="45.55378" lon="6.81425">
        <ele>2483</ele>
        <time>2011-03-18T11:19:17.968Z</time>
      </trkpt>
      <trkpt lat="45.5539" lon="6.81435">
        <ele>2474</ele>
        <time>2011-03-18T11:19:32.995Z</time>
      </trkpt>
      <trkpt lat="45.55393" lon="6.81475">
        <ele>2471</ele>
        <time>2011-03-18T11:19:48.965Z</time>
      </trkpt>
      <trkpt lat="45.5541" lon="6.81498">
        <ele>2461</ele>
        <time>2011-03-18T11:20:04.928Z</time>
      </trkpt>
      <trkpt lat="45.55428" lon="6.8153">
        <ele>2450</ele>
        <time>2011-03-18T11:20:19.953Z</time>
      </trkpt>
      <trkpt lat="45.55443" lon="6.81549">
        <ele>2434</ele>
        <time>2011-03-18T11:20:35.927Z</time>
      </trkpt>
      <trkpt lat="45.5547" lon="6.81574">
        <ele>2424</ele>
        <time>2011-03-18T11:20:50.929Z</time>
      </trkpt>
      <trkpt lat="45.55505" lon="6.81625">
        <ele>2408</ele>
        <time>2011-03-18T11:21:02.999Z</time>
      </trkpt>
      <trkpt lat="45.55545" lon="6.81675">
        <ele>2403</ele>
        <time>2011-03-18T11:21:07.999Z</time>
      </trkpt>
      <trkpt lat="45.55583" lon="6.81727">
        <ele>2398</ele>
        <time>2011-03-18T11:21:12.999Z</time>
      </trkpt>
      <trkpt lat="45.55616" lon="6.81772">
        <ele>2392</ele>
        <time>2011-03-18T11:21:17.999Z</time>
      </trkpt>
      <trkpt lat="45.55649" lon="6.81814">
        <ele>2385</ele>
        <time>2011-03-18T11:21:22.985Z</time>
      </trkpt>
      <trkpt lat="45.55689" lon="6.81847">
        <ele>2379</ele>
        <time>2011-03-18T11:21:27.987Z</time>
      </trkpt>
      <trkpt lat="45.5571" lon="6.81853">
        <ele>2368</ele>
        <time>2011-03-18T11:21:43.993Z</time>
      </trkpt>
      <trkpt lat="45.55712" lon="6.81851">
        <ele>2360</ele>
        <time>2011-03-18T11:21:59.986Z</time>
      </trkpt>
      <trkpt lat="45.55713" lon="6.81852">
        <ele>2359</ele>
        <time>2011-03-18T11:22:15.935Z</time>
      </trkpt>
      <trkpt lat="45.55713" lon="6.81851">
        <ele>2360</ele>
        <time>2011-03-18T11:22:31.934Z</time>
      </trkpt>
      <trkpt lat="45.55714" lon="6.81851">
        <ele>2359</ele>
        <time>2011-03-18T11:22:46.950Z</time>
      </trkpt>
      <trkpt lat="45.55733" lon="6.8187">
        <ele>2353</ele>
        <time>2011-03-18T11:23:02.948Z</time>
      </trkpt>
      <trkpt lat="45.55782" lon="6.81895">
        <ele>2349</ele>
        <time>2011-03-18T11:23:09.928Z</time>
      </trkpt>
      <trkpt lat="45.55827" lon="6.8191">
        <ele>2348</ele>
        <time>2011-03-18T11:23:16.994Z</time>
      </trkpt>
      <trkpt lat="45.55864" lon="6.81948">
        <ele>2341</ele>
        <time>2011-03-18T11:23:26.925Z</time>
      </trkpt>
      <trkpt lat="45.55903" lon="6.81992">
        <ele>2335</ele>
        <time>2011-03-18T11:23:32.933Z</time>
      </trkpt>
      <trkpt lat="45.55947" lon="6.82025">
        <ele>2330</ele>
        <time>2011-03-18T11:23:37.935Z</time>
      </trkpt>
      <trkpt lat="45.55994" lon="6.8205">
        <ele>2327</ele>
        <time>2011-03-18T11:23:41.943Z</time>
      </trkpt>
      <trkpt lat="45.56043" lon="6.82073">
        <ele>2323</ele>
        <time>2011-03-18T11:23:46.932Z</time>
      </trkpt>
      <trkpt lat="45.56057" lon="6.82069">
        <ele>2313</ele>
        <time>2011-03-18T11:24:01.999Z</time>
      </trkpt>
      <trkpt lat="45.56052" lon="6.82065">
        <ele>2312</ele>
        <time>2011-03-18T11:24:17.999Z</time>
      </trkpt>
      <trkpt lat="45.5605" lon="6.82059">
        <ele>2307</ele>
        <time>2011-03-18T11:24:34.999Z</time>
      </trkpt>
      <trkpt lat="45.56049" lon="6.82055">
        <ele>2307</ele>
        <time>2011-03-18T11:24:50.999Z</time>
      </trkpt>
      <trkpt lat="45.56046" lon="6.82052">
        <ele>2306</ele>
        <time>2011-03-18T11:25:06.999Z</time>
      </trkpt>
      <trkpt lat="45.56048" lon="6.82052">
        <ele>2305</ele>
        <time>2011-03-18T11:25:22.999Z</time>
      </trkpt>
      <trkpt lat="45.56048" lon="6.82052">
        <ele>2304</ele>
        <time>2011-03-18T11:25:38.999Z</time>
      </trkpt>
      <trkpt lat="45.56052" lon="6.82054">
        <ele>2305</ele>
        <time>2011-03-18T11:25:54.999Z</time>
      </trkpt>
      <trkpt lat="45.56053" lon="6.82054">
        <ele>2304</ele>
        <time>2011-03-18T11:26:10.999Z</time>
      </trkpt>
      <trkpt lat="45.56053" lon="6.82053">
        <ele>2304</ele>
        <time>2011-03-18T11:26:26.999Z</time>
      </trkpt>
      <trkpt lat="45.56052" lon="6.82053">
        <ele>2304</ele>
        <time>2011-03-18T11:26:42.998Z</time>
      </trkpt>
      <trkpt lat="45.5605" lon="6.82052">
        <ele>2303</ele>
        <time>2011-03-18T11:26:57.999Z</time>
      </trkpt>
      <trkpt lat="45.56021" lon="6.82028">
        <ele>2295</ele>
        <time>2011-03-18T11:27:13.997Z</time>
      </trkpt>
      <trkpt lat="45.55979" lon="6.81993">
        <ele>2304</ele>
        <time>2011-03-18T11:27:26.995Z</time>
      </trkpt>
      <trkpt lat="45.55942" lon="6.81949">
        <ele>2316</ele>
        <time>2011-03-18T11:27:37.999Z</time>
      </trkpt>
      <trkpt lat="45.55904" lon="6.81907">
        <ele>2325</ele>
        <time>2011-03-18T11:27:50.999Z</time>
      </trkpt>
      <trkpt lat="45.55865" lon="6.81872">
        <ele>2334</ele>
        <time>2011-03-18T11:28:03.999Z</time>
      </trkpt>
      <trkpt lat="45.55826" lon="6.81834">
        <ele>2336</ele>
        <time>2011-03-18T11:28:16.999Z</time>
      </trkpt>
      <trkpt lat="45.55787" lon="6.81797">
        <ele>2343</ele>
        <time>2011-03-18T11:28:29.927Z</time>
      </trkpt>
      <trkpt lat="45.55748" lon="6.81759">
        <ele>2352</ele>
        <time>2011-03-18T11:28:43.999Z</time>
      </trkpt>
      <trkpt lat="45.55711" lon="6.81723">
        <ele>2358</ele>
        <time>2011-03-18T11:28:56.950Z</time>
      </trkpt>
      <trkpt lat="45.55675" lon="6.81684">
        <ele>2366</ele>
        <time>2011-03-18T11:29:08.999Z</time>
      </trkpt>
      <trkpt lat="45.55638" lon="6.81645">
        <ele>2374</ele>
        <time>2011-03-18T11:29:21.999Z</time>
      </trkpt>
      <trkpt lat="45.55599" lon="6.81605">
        <ele>2387</ele>
        <time>2011-03-18T11:29:35.999Z</time>
      </trkpt>
      <trkpt lat="45.55561" lon="6.81569">
        <ele>2395</ele>
        <time>2011-03-18T11:29:48.995Z</time>
      </trkpt>
      <trkpt lat="45.55523" lon="6.81531">
        <ele>2405</ele>
        <time>2011-03-18T11:30:01.999Z</time>
      </trkpt>
      <trkpt lat="45.55484" lon="6.81494">
        <ele>2414</ele>
        <time>2011-03-18T11:30:14.984Z</time>
      </trkpt>
      <trkpt lat="45.55442" lon="6.81463">
        <ele>2413</ele>
        <time>2011-03-18T11:30:27.999Z</time>
      </trkpt>
      <trkpt lat="45.55405" lon="6.81428">
        <ele>2437</ele>
        <time>2011-03-18T11:30:42.996Z</time>
      </trkpt>
      <trkpt lat="45.55367" lon="6.81387">
        <ele>2461</ele>
        <time>2011-03-18T11:30:57.920Z</time>
      </trkpt>
      <trkpt lat="45.5533" lon="6.81348">
        <ele>2479</ele>
        <time>2011-03-18T11:31:10.995Z</time>
      </trkpt>
      <trkpt lat="45.55292" lon="6.81306">
        <ele>2500</ele>
        <time>2011-03-18T11:31:24.986Z</time>
      </trkpt>
      <trkpt lat="45.55254" lon="6.81267">
        <ele>2519</ele>
        <time>2011-03-18T11:31:38.999Z</time>
      </trkpt>
      <trkpt lat="45.55216" lon="6.81227">
        <ele>2543</ele>
        <time>2011-03-18T11:31:52.996Z</time>
      </trkpt>
      <trkpt lat="45.55183" lon="6.8119">
        <ele>2558</ele>
        <time>2011-03-18T11:32:07.999Z</time>
      </trkpt>
      <trkpt lat="45.5516" lon="6.81171">
        <ele>2566</ele>
        <time>2011-03-18T11:32:23.999Z</time>
      </trkpt>
      <trkpt lat="45.55137" lon="6.81145">
        <ele>2580</ele>
        <time>2011-03-18T11:32:39.947Z</time>
      </trkpt>
      <trkpt lat="45.55111" lon="6.8112">
        <ele>2584</ele>
        <time>2011-03-18T11:32:54.997Z</time>
      </trkpt>
      <trkpt lat="45.55081" lon="6.81093">
        <ele>2589</ele>
        <time>2011-03-18T11:33:10.999Z</time>
      </trkpt>
      <trkpt lat="45.55078" lon="6.81093">
        <ele>2593</ele>
        <time>2011-03-18T11:33:26.997Z</time>
      </trkpt>
      <trkpt lat="45.55078" lon="6.81094">
        <ele>2594</ele>
        <time>2011-03-18T11:33:42.989Z</time>
      </trkpt>
      <trkpt lat="45.55073" lon="6.81099">
        <ele>2593</ele>
        <time>2011-03-18T11:33:58.999Z</time>
      </trkpt>
      <trkpt lat="45.55073" lon="6.811">
        <ele>2595</ele>
        <time>2011-03-18T11:34:14.993Z</time>
      </trkpt>
      <trkpt lat="45.55054" lon="6.81164">
        <ele>2589</ele>
        <time>2011-03-18T11:34:23.998Z</time>
      </trkpt>
      <trkpt lat="45.55057" lon="6.81233">
        <ele>2585</ele>
        <time>2011-03-18T11:34:31.993Z</time>
      </trkpt>
      <trkpt lat="45.55075" lon="6.81305">
        <ele>2583</ele>
        <time>2011-03-18T11:34:38.999Z</time>
      </trkpt>
      <trkpt lat="45.55105" lon="6.81345">
        <ele>2574</ele>
        <time>2011-03-18T11:34:54.998Z</time>
      </trkpt>
      <trkpt lat="45.55108" lon="6.81344">
        <ele>2570</ele>
        <time>2011-03-18T11:35:09.999Z</time>
      </trkpt>
      <trkpt lat="45.55115" lon="6.8135">
        <ele>2568</ele>
        <time>2011-03-18T11:35:25.999Z</time>
      </trkpt>
      <trkpt lat="45.55118" lon="6.81351">
        <ele>2566</ele>
        <time>2011-03-18T11:35:41.999Z</time>
      </trkpt>
      <trkpt lat="45.55156" lon="6.81389">
        <ele>2562</ele>
        <time>2011-03-18T11:35:53.985Z</time>
      </trkpt>
      <trkpt lat="45.55182" lon="6.81445">
        <ele>2549</ele>
        <time>2011-03-18T11:36:05.999Z</time>
      </trkpt>
      <trkpt lat="45.55213" lon="6.81494">
        <ele>2543</ele>
        <time>2011-03-18T11:36:10.999Z</time>
      </trkpt>
      <trkpt lat="45.55248" lon="6.81542">
        <ele>2535</ele>
        <time>2011-03-18T11:36:17.999Z</time>
      </trkpt>
      <trkpt lat="45.55291" lon="6.81577">
        <ele>2527</ele>
        <time>2011-03-18T11:36:24.999Z</time>
      </trkpt>
      <trkpt lat="45.55332" lon="6.8161">
        <ele>2520</ele>
        <time>2011-03-18T11:36:30.998Z</time>
      </trkpt>
      <trkpt lat="45.55383" lon="6.8163">
        <ele>2504</ele>
        <time>2011-03-18T11:36:38.999Z</time>
      </trkpt>
      <trkpt lat="45.55432" lon="6.81653">
        <ele>2492</ele>
        <time>2011-03-18T11:36:45.988Z</time>
      </trkpt>
      <trkpt lat="45.55478" lon="6.81703">
        <ele>2484</ele>
        <time>2011-03-18T11:36:49.999Z</time>
      </trkpt>
      <trkpt lat="45.55509" lon="6.8175">
        <ele>2479</ele>
        <time>2011-03-18T11:36:52.999Z</time>
      </trkpt>
      <trkpt lat="45.5555" lon="6.8179">
        <ele>2470</ele>
        <time>2011-03-18T11:36:55.999Z</time>
      </trkpt>
      <trkpt lat="45.55584" lon="6.81838">
        <ele>2462</ele>
        <time>2011-03-18T11:36:58.999Z</time>
      </trkpt>
      <trkpt lat="45.55611" lon="6.81899">
        <ele>2452</ele>
        <time>2011-03-18T11:37:02.997Z</time>
      </trkpt>
      <trkpt lat="45.5565" lon="6.8195">
        <ele>2441</ele>
        <time>2011-03-18T11:37:07.999Z</time>
      </trkpt>
      <trkpt lat="45.55687" lon="6.81993">
        <ele>2431</ele>
        <time>2011-03-18T11:37:12.999Z</time>
      </trkpt>
      <trkpt lat="45.55672" lon="6.81962">
        <ele>2400</ele>
        <time>2011-03-18T11:37:28.964Z</time>
      </trkpt>
      <trkpt lat="45.55697" lon="6.81958">
        <ele>2383</ele>
        <time>2011-03-18T11:37:43.999Z</time>
      </trkpt>
      <trkpt lat="45.55723" lon="6.81956">
        <ele>2373</ele>
        <time>2011-03-18T11:37:59.978Z</time>
      </trkpt>
      <trkpt lat="45.55769" lon="6.81982">
        <ele>2364</ele>
        <time>2011-03-18T11:38:10.984Z</time>
      </trkpt>
      <trkpt lat="45.55812" lon="6.8201">
        <ele>2360</ele>
        <time>2011-03-18T11:38:14.999Z</time>
      </trkpt>
      <trkpt lat="45.55857" lon="6.82038">
        <ele>2352</ele>
        <time>2011-03-18T11:38:18.998Z</time>
      </trkpt>
      <trkpt lat="45.55903" lon="6.82066">
        <ele>2347</ele>
        <time>2011-03-18T11:38:22.999Z</time>
      </trkpt>
      <trkpt lat="45.55946" lon="6.82087">
        <ele>2342</ele>
        <time>2011-03-18T11:38:26.987Z</time>
      </trkpt>
      <trkpt lat="45.55995" lon="6.82118">
        <ele>2336</ele>
        <time>2011-03-18T11:38:30.999Z</time>
      </trkpt>
      <trkpt lat="45.56047" lon="6.82151">
        <ele>2328</ele>
        <time>2011-03-18T11:38:35.999Z</time>
      </trkpt>
      <trkpt lat="45.56093" lon="6.82184">
        <ele>2324</ele>
        <time>2011-03-18T11:38:39.999Z</time>
      </trkpt>
      <trkpt lat="45.56142" lon="6.82225">
        <ele>2319</ele>
        <time>2011-03-18T11:38:43.999Z</time>
      </trkpt>
      <trkpt lat="45.56185" lon="6.82261">
        <ele>2316</ele>
        <time>2011-03-18T11:38:46.999Z</time>
      </trkpt>
      <trkpt lat="45.56234" lon="6.82292">
        <ele>2311</ele>
        <time>2011-03-18T11:38:50.999Z</time>
      </trkpt>
      <trkpt lat="45.56279" lon="6.82319">
        <ele>2306</ele>
        <time>2011-03-18T11:38:54.956Z</time>
      </trkpt>
      <trkpt lat="45.56329" lon="6.82345">
        <ele>2298</ele>
        <time>2011-03-18T11:39:00.933Z</time>
      </trkpt>
      <trkpt lat="45.56372" lon="6.82369">
        <ele>2293</ele>
        <time>2011-03-18T11:39:05.992Z</time>
      </trkpt>
      <trkpt lat="45.56421" lon="6.82392">
        <ele>2288</ele>
        <time>2011-03-18T11:39:12.999Z</time>
      </trkpt>
      <trkpt lat="45.56471" lon="6.82405">
        <ele>2280</ele>
        <time>2011-03-18T11:39:19.994Z</time>
      </trkpt>
      <trkpt lat="45.56516" lon="6.82382">
        <ele>2272</ele>
        <time>2011-03-18T11:39:27.919Z</time>
      </trkpt>
      <trkpt lat="45.56557" lon="6.82355">
        <ele>2270</ele>
        <time>2011-03-18T11:39:39.998Z</time>
      </trkpt>
      <trkpt lat="45.56566" lon="6.82338">
        <ele>2268</ele>
        <time>2011-03-18T11:39:54.999Z</time>
      </trkpt>
      <trkpt lat="45.56578" lon="6.8232">
        <ele>2265</ele>
        <time>2011-03-18T11:40:10.999Z</time>
      </trkpt>
      <trkpt lat="45.56582" lon="6.82306">
        <ele>2265</ele>
        <time>2011-03-18T11:40:26.997Z</time>
      </trkpt>
      <trkpt lat="45.56591" lon="6.82292">
        <ele>2263</ele>
        <time>2011-03-18T11:40:42.998Z</time>
      </trkpt>
      <trkpt lat="45.56603" lon="6.8229">
        <ele>2250</ele>
        <time>2011-03-18T11:40:58.999Z</time>
      </trkpt>
      <trkpt lat="45.56594" lon="6.82284">
        <ele>2246</ele>
        <time>2011-03-18T11:41:14.999Z</time>
      </trkpt>
      <trkpt lat="45.56595" lon="6.82284">
        <ele>2245</ele>
        <time>2011-03-18T11:41:30.999Z</time>
      </trkpt>
      <trkpt lat="45.56599" lon="6.82282">
        <ele>2242</ele>
        <time>2011-03-18T11:41:46.999Z</time>
      </trkpt>
      <trkpt lat="45.56598" lon="6.82281">
        <ele>2243</ele>
        <time>2011-03-18T11:42:02.997Z</time>
      </trkpt>
      <trkpt lat="45.566" lon="6.8228">
        <ele>2242</ele>
        <time>2011-03-18T11:42:18.999Z</time>
      </trkpt>
      <trkpt lat="45.56601" lon="6.8228">
        <ele>2241</ele>
        <time>2011-03-18T11:42:34.999Z</time>
      </trkpt>
      <trkpt lat="45.56601" lon="6.82279">
        <ele>2241</ele>
        <time>2011-03-18T11:42:50.999Z</time>
      </trkpt>
      <trkpt lat="45.56602" lon="6.82279">
        <ele>2240</ele>
        <time>2011-03-18T11:43:06.999Z</time>
      </trkpt>
      <trkpt lat="45.56603" lon="6.82278">
        <ele>2240</ele>
        <time>2011-03-18T11:43:22.994Z</time>
      </trkpt>
      <trkpt lat="45.56603" lon="6.82278">
        <ele>2240</ele>
        <time>2011-03-18T11:43:37.999Z</time>
      </trkpt>
      <trkpt lat="45.56604" lon="6.82277">
        <ele>2240</ele>
        <time>2011-03-18T11:43:53.999Z</time>
      </trkpt>
      <trkpt lat="45.56604" lon="6.82277">
        <ele>2240</ele>
        <time>2011-03-18T11:44:09.998Z</time>
      </trkpt>
      <trkpt lat="45.56604" lon="6.82277">
        <ele>2240</ele>
        <time>2011-03-18T11:44:25.990Z</time>
      </trkpt>
      <trkpt lat="45.56604" lon="6.82276">
        <ele>2240</ele>
        <time>2011-03-18T11:44:41.937Z</time>
      </trkpt>
      <trkpt lat="45.56604" lon="6.82277">
        <ele>2240</ele>
        <time>2011-03-18T11:44:56.999Z</time>
      </trkpt>
      <trkpt lat="45.56605" lon="6.82277">
        <ele>2239</ele>
        <time>2011-03-18T11:45:12.943Z</time>
      </trkpt>
      <trkpt lat="45.56604" lon="6.82276">
        <ele>2240</ele>
        <time>2011-03-18T11:45:28.923Z</time>
      </trkpt>
      <trkpt lat="45.56604" lon="6.82276">
        <ele>2240</ele>
        <time>2011-03-18T11:45:44.926Z</time>
      </trkpt>
      <trkpt lat="45.56604" lon="6.82282">
        <ele>2242</ele>
        <time>2011-03-18T12:24:19.998Z</time>
      </trkpt>
      <trkpt lat="45.56604" lon="6.82282">
        <ele>2242</ele>
        <time>2011-03-18T12:24:34.999Z</time>
      </trkpt>
      <trkpt lat="45.56604" lon="6.82282">
        <ele>2242</ele>
        <time>2011-03-18T12:24:50.998Z</time>
      </trkpt>
      <trkpt lat="45.56605" lon="6.82281">
        <ele>2241</ele>
        <time>2011-03-18T12:25:06.998Z</time>
      </trkpt>
      <trkpt lat="45.56606" lon="6.82282">
        <ele>2240</ele>
        <time>2011-03-18T12:25:21.999Z</time>
      </trkpt>
      <trkpt lat="45.56606" lon="6.82282">
        <ele>2240</ele>
        <time>2011-03-18T12:25:37.999Z</time>
      </trkpt>
      <trkpt lat="45.56606" lon="6.82282">
        <ele>2240</ele>
        <time>2011-03-18T12:25:53.999Z</time>
      </trkpt>
      <trkpt lat="45.56606" lon="6.82281">
        <ele>2239</ele>
        <time>2011-03-18T12:26:09.999Z</time>
      </trkpt>
      <trkpt lat="45.56605" lon="6.82282">
        <ele>2240</ele>
        <time>2011-03-18T12:26:25.999Z</time>
      </trkpt>
      <trkpt lat="45.56605" lon="6.82282">
        <ele>2240</ele>
        <time>2011-03-18T12:26:41.999Z</time>
      </trkpt>
      <trkpt lat="45.56605" lon="6.82282">
        <ele>2240</ele>
        <time>2011-03-18T12:26:58.998Z</time>
      </trkpt>
      <trkpt lat="45.5661" lon="6.82294">
        <ele>2239</ele>
        <time>2011-03-18T12:27:14.000Z</time>
      </trkpt>
      <trkpt lat="45.56607" lon="6.82287">
        <ele>2238</ele>
        <time>2011-03-18T12:27:30.000Z</time>
      </trkpt>
      <trkpt lat="45.56605" lon="6.82286">
        <ele>2237</ele>
        <time>2011-03-18T12:27:46.000Z</time>
      </trkpt>
      <trkpt lat="45.56579" lon="6.82331">
        <ele>2234</ele>
        <time>2011-03-18T12:28:01.861Z</time>
      </trkpt>
      <trkpt lat="45.56557" lon="6.82363">
        <ele>2232</ele>
        <time>2011-03-18T12:28:16.999Z</time>
      </trkpt>
      <trkpt lat="45.56536" lon="6.82397">
        <ele>2232</ele>
        <time>2011-03-18T12:28:32.902Z</time>
      </trkpt>
      <trkpt lat="45.56526" lon="6.82411">
        <ele>2232</ele>
        <time>2011-03-18T12:28:47.903Z</time>
      </trkpt>
      <trkpt lat="45.56506" lon="6.82437">
        <ele>2233</ele>
        <time>2011-03-18T12:29:03.999Z</time>
      </trkpt>
      <trkpt lat="45.56495" lon="6.82446">
        <ele>2234</ele>
        <time>2011-03-18T12:29:19.999Z</time>
      </trkpt>
      <trkpt lat="45.56486" lon="6.82448">
        <ele>2234</ele>
        <time>2011-03-18T12:29:35.898Z</time>
      </trkpt>
      <trkpt lat="45.56479" lon="6.82442">
        <ele>2231</ele>
        <time>2011-03-18T12:29:50.899Z</time>
      </trkpt>
      <trkpt lat="45.56475" lon="6.8244">
        <ele>2232</ele>
        <time>2011-03-18T12:30:05.908Z</time>
      </trkpt>
      <trkpt lat="45.56473" lon="6.82437">
        <ele>2231</ele>
        <time>2011-03-18T12:30:21.998Z</time>
      </trkpt>
      <trkpt lat="45.5647" lon="6.82436">
        <ele>2232</ele>
        <time>2011-03-18T12:30:37.997Z</time>
      </trkpt>
      <trkpt lat="45.56468" lon="6.82433">
        <ele>2233</ele>
        <time>2011-03-18T12:30:53.899Z</time>
      </trkpt>
      <trkpt lat="45.56466" lon="6.82432">
        <ele>2233</ele>
        <time>2011-03-18T12:31:08.905Z</time>
      </trkpt>
      <trkpt lat="45.56464" lon="6.82428">
        <ele>2231</ele>
        <time>2011-03-18T12:31:24.984Z</time>
      </trkpt>
      <trkpt lat="45.56461" lon="6.82428">
        <ele>2233</ele>
        <time>2011-03-18T12:31:40.966Z</time>
      </trkpt>
      <trkpt lat="45.56459" lon="6.82427">
        <ele>2233</ele>
        <time>2011-03-18T12:31:55.999Z</time>
      </trkpt>
      <trkpt lat="45.56457" lon="6.82426">
        <ele>2235</ele>
        <time>2011-03-18T12:32:11.907Z</time>
      </trkpt>
      <trkpt lat="45.56453" lon="6.82425">
        <ele>2237</ele>
        <time>2011-03-18T12:32:27.999Z</time>
      </trkpt>
      <trkpt lat="45.56452" lon="6.82424">
        <ele>2238</ele>
        <time>2011-03-18T12:32:43.999Z</time>
      </trkpt>
      <trkpt lat="45.5645" lon="6.82423">
        <ele>2238</ele>
        <time>2011-03-18T12:32:59.887Z</time>
      </trkpt>
      <trkpt lat="45.56415" lon="6.82381">
        <ele>2240</ele>
        <time>2011-03-18T12:33:08.887Z</time>
      </trkpt>
      <trkpt lat="45.56377" lon="6.82342">
        <ele>2241</ele>
        <time>2011-03-18T12:33:18.999Z</time>
      </trkpt>
      <trkpt lat="45.56341" lon="6.82303">
        <ele>2241</ele>
        <time>2011-03-18T12:33:28.998Z</time>
      </trkpt>
      <trkpt lat="45.56304" lon="6.82262">
        <ele>2242</ele>
        <time>2011-03-18T12:33:39.999Z</time>
      </trkpt>
      <trkpt lat="45.56267" lon="6.82224">
        <ele>2242</ele>
        <time>2011-03-18T12:33:50.882Z</time>
      </trkpt>
      <trkpt lat="45.56227" lon="6.82183">
        <ele>2246</ele>
        <time>2011-03-18T12:34:01.998Z</time>
      </trkpt>
      <trkpt lat="45.56192" lon="6.82142">
        <ele>2248</ele>
        <time>2011-03-18T12:34:12.867Z</time>
      </trkpt>
      <trkpt lat="45.56155" lon="6.82102">
        <ele>2249</ele>
        <time>2011-03-18T12:34:23.905Z</time>
      </trkpt>
      <trkpt lat="45.56117" lon="6.82062">
        <ele>2252</ele>
        <time>2011-03-18T12:34:35.858Z</time>
      </trkpt>
      <trkpt lat="45.56079" lon="6.82027">
        <ele>2255</ele>
        <time>2011-03-18T12:34:46.887Z</time>
      </trkpt>
      <trkpt lat="45.56039" lon="6.81991">
        <ele>2258</ele>
        <time>2011-03-18T12:34:58.996Z</time>
      </trkpt>
      <trkpt lat="45.56001" lon="6.81948">
        <ele>2264</ele>
        <time>2011-03-18T12:35:10.999Z</time>
      </trkpt>
      <trkpt lat="45.55964" lon="6.81911">
        <ele>2267</ele>
        <time>2011-03-18T12:35:21.999Z</time>
      </trkpt>
      <trkpt lat="45.55924" lon="6.81871">
        <ele>2275</ele>
        <time>2011-03-18T12:35:33.986Z</time>
      </trkpt>
      <trkpt lat="45.55885" lon="6.81831">
        <ele>2279</ele>
        <time>2011-03-18T12:35:45.998Z</time>
      </trkpt>
      <trkpt lat="45.55847" lon="6.81795">
        <ele>2283</ele>
        <time>2011-03-18T12:35:56.989Z</time>
      </trkpt>
      <trkpt lat="45.55809" lon="6.81754">
        <ele>2287</ele>
        <time>2011-03-18T12:36:08.953Z</time>
      </trkpt>
      <trkpt lat="45.55772" lon="6.81714">
        <ele>2292</ele>
        <time>2011-03-18T12:36:20.876Z</time>
      </trkpt>
      <trkpt lat="45.55733" lon="6.81675">
        <ele>2300</ele>
        <time>2011-03-18T12:36:32.999Z</time>
      </trkpt>
      <trkpt lat="45.55694" lon="6.81636">
        <ele>2306</ele>
        <time>2011-03-18T12:36:44.851Z</time>
      </trkpt>
      <trkpt lat="45.55655" lon="6.81598">
        <ele>2315</ele>
        <time>2011-03-18T12:36:56.850Z</time>
      </trkpt>
      <trkpt lat="45.55629" lon="6.81573">
        <ele>2324</ele>
        <time>2011-03-18T12:37:11.955Z</time>
      </trkpt>
      <trkpt lat="45.5559" lon="6.81532">
        <ele>2334</ele>
        <time>2011-03-18T12:37:25.878Z</time>
      </trkpt>
      <trkpt lat="45.55552" lon="6.81496">
        <ele>2343</ele>
        <time>2011-03-18T12:37:36.848Z</time>
      </trkpt>
      <trkpt lat="45.55513" lon="6.81456">
        <ele>2349</ele>
        <time>2011-03-18T12:37:48.866Z</time>
      </trkpt>
      <trkpt lat="45.55476" lon="6.81415">
        <ele>2353</ele>
        <time>2011-03-18T12:38:00.999Z</time>
      </trkpt>
      <trkpt lat="45.55438" lon="6.81374">
        <ele>2367</ele>
        <time>2011-03-18T12:38:13.877Z</time>
      </trkpt>
      <trkpt lat="45.55399" lon="6.81333">
        <ele>2379</ele>
        <time>2011-03-18T12:38:26.999Z</time>
      </trkpt>
      <trkpt lat="45.55361" lon="6.81293">
        <ele>2392</ele>
        <time>2011-03-18T12:38:38.962Z</time>
      </trkpt>
      <trkpt lat="45.55324" lon="6.81255">
        <ele>2402</ele>
        <time>2011-03-18T12:38:50.883Z</time>
      </trkpt>
      <trkpt lat="45.55285" lon="6.81217">
        <ele>2415</ele>
        <time>2011-03-18T12:39:02.852Z</time>
      </trkpt>
      <trkpt lat="45.55249" lon="6.81179">
        <ele>2429</ele>
        <time>2011-03-18T12:39:14.849Z</time>
      </trkpt>
      <trkpt lat="45.55208" lon="6.81137">
        <ele>2437</ele>
        <time>2011-03-18T12:39:27.000Z</time>
      </trkpt>
      <trkpt lat="45.5517" lon="6.811">
        <ele>2449</ele>
        <time>2011-03-18T12:39:39.967Z</time>
      </trkpt>
      <trkpt lat="45.55132" lon="6.81061">
        <ele>2457</ele>
        <time>2011-03-18T12:39:54.914Z</time>
      </trkpt>
      <trkpt lat="45.55105" lon="6.81041">
        <ele>2464</ele>
        <time>2011-03-18T12:40:10.854Z</time>
      </trkpt>
      <trkpt lat="45.55097" lon="6.81036">
        <ele>2476</ele>
        <time>2011-03-18T12:40:26.845Z</time>
      </trkpt>
      <trkpt lat="45.55086" lon="6.81029">
        <ele>2498</ele>
        <time>2011-03-18T12:40:41.997Z</time>
      </trkpt>
      <trkpt lat="45.55085" lon="6.81036">
        <ele>2509</ele>
        <time>2011-03-18T12:40:56.999Z</time>
      </trkpt>
      <trkpt lat="45.55075" lon="6.81046">
        <ele>2535</ele>
        <time>2011-03-18T12:41:12.999Z</time>
      </trkpt>
      <trkpt lat="45.5505" lon="6.81105">
        <ele>2545</ele>
        <time>2011-03-18T12:41:24.999Z</time>
      </trkpt>
      <trkpt lat="45.5503" lon="6.81163">
        <ele>2546</ele>
        <time>2011-03-18T12:41:29.997Z</time>
      </trkpt>
      <trkpt lat="45.55011" lon="6.81222">
        <ele>2547</ele>
        <time>2011-03-18T12:41:33.999Z</time>
      </trkpt>
      <trkpt lat="45.5499" lon="6.81293">
        <ele>2548</ele>
        <time>2011-03-18T12:41:38.999Z</time>
      </trkpt>
      <trkpt lat="45.54973" lon="6.81355">
        <ele>2548</ele>
        <time>2011-03-18T12:41:42.998Z</time>
      </trkpt>
      <trkpt lat="45.54959" lon="6.81422">
        <ele>2548</ele>
        <time>2011-03-18T12:41:47.884Z</time>
      </trkpt>
      <trkpt lat="45.54949" lon="6.8149">
        <ele>2548</ele>
        <time>2011-03-18T12:41:55.891Z</time>
      </trkpt>
      <trkpt lat="45.54946" lon="6.81557">
        <ele>2548</ele>
        <time>2011-03-18T12:42:04.847Z</time>
      </trkpt>
      <trkpt lat="45.54944" lon="6.81624">
        <ele>2547</ele>
        <time>2011-03-18T12:42:10.861Z</time>
      </trkpt>
      <trkpt lat="45.54932" lon="6.817">
        <ele>2546</ele>
        <time>2011-03-18T12:42:16.860Z</time>
      </trkpt>
      <trkpt lat="45.54908" lon="6.81757">
        <ele>2546</ele>
        <time>2011-03-18T12:42:22.845Z</time>
      </trkpt>
      <trkpt lat="45.54876" lon="6.81804">
        <ele>2546</ele>
        <time>2011-03-18T12:42:32.999Z</time>
      </trkpt>
      <trkpt lat="45.54855" lon="6.81863">
        <ele>2544</ele>
        <time>2011-03-18T12:42:44.964Z</time>
      </trkpt>
      <trkpt lat="45.54838" lon="6.81929">
        <ele>2542</ele>
        <time>2011-03-18T12:42:57.849Z</time>
      </trkpt>
      <trkpt lat="45.54823" lon="6.81991">
        <ele>2540</ele>
        <time>2011-03-18T12:43:06.847Z</time>
      </trkpt>
      <trkpt lat="45.54819" lon="6.82061">
        <ele>2540</ele>
        <time>2011-03-18T12:43:16.999Z</time>
      </trkpt>
      <trkpt lat="45.54834" lon="6.82125">
        <ele>2540</ele>
        <time>2011-03-18T12:43:30.974Z</time>
      </trkpt>
      <trkpt lat="45.54849" lon="6.8219">
        <ele>2539</ele>
        <time>2011-03-18T12:43:42.845Z</time>
      </trkpt>
      <trkpt lat="45.54843" lon="6.82259">
        <ele>2538</ele>
        <time>2011-03-18T12:43:51.970Z</time>
      </trkpt>
      <trkpt lat="45.54829" lon="6.82321">
        <ele>2536</ele>
        <time>2011-03-18T12:44:01.854Z</time>
      </trkpt>
      <trkpt lat="45.54821" lon="6.82386">
        <ele>2534</ele>
        <time>2011-03-18T12:44:11.841Z</time>
      </trkpt>
      <trkpt lat="45.54807" lon="6.82447">
        <ele>2530</ele>
        <time>2011-03-18T12:44:23.915Z</time>
      </trkpt>
      <trkpt lat="45.54792" lon="6.82477">
        <ele>2526</ele>
        <time>2011-03-18T12:44:39.839Z</time>
      </trkpt>
      <trkpt lat="45.54793" lon="6.82479">
        <ele>2527</ele>
        <time>2011-03-18T12:44:54.999Z</time>
      </trkpt>
      <trkpt lat="45.54792" lon="6.82478">
        <ele>2526</ele>
        <time>2011-03-18T12:45:10.999Z</time>
      </trkpt>
      <trkpt lat="45.54794" lon="6.8248">
        <ele>2525</ele>
        <time>2011-03-18T12:45:26.999Z</time>
      </trkpt>
      <trkpt lat="45.54793" lon="6.82483">
        <ele>2525</ele>
        <time>2011-03-18T12:45:43.998Z</time>
      </trkpt>
      <trkpt lat="45.54792" lon="6.82493">
        <ele>2521</ele>
        <time>2011-03-18T12:45:59.971Z</time>
      </trkpt>
      <trkpt lat="45.54789" lon="6.825">
        <ele>2518</ele>
        <time>2011-03-18T12:46:16.000Z</time>
      </trkpt>
      <trkpt lat="45.54789" lon="6.82505">
        <ele>2516</ele>
        <time>2011-03-18T12:46:31.879Z</time>
      </trkpt>
      <trkpt lat="45.54787" lon="6.8251">
        <ele>2516</ele>
        <time>2011-03-18T12:46:46.999Z</time>
      </trkpt>
      <trkpt lat="45.54784" lon="6.82514">
        <ele>2516</ele>
        <time>2011-03-18T12:47:02.999Z</time>
      </trkpt>
      <trkpt lat="45.54781" lon="6.82526">
        <ele>2517</ele>
        <time>2011-03-18T12:47:18.999Z</time>
      </trkpt>
      <trkpt lat="45.5477" lon="6.82566">
        <ele>2523</ele>
        <time>2011-03-18T12:47:34.999Z</time>
      </trkpt>
      <trkpt lat="45.54758" lon="6.82609">
        <ele>2534</ele>
        <time>2011-03-18T12:47:50.999Z</time>
      </trkpt>
      <trkpt lat="45.54749" lon="6.82643">
        <ele>2537</ele>
        <time>2011-03-18T12:48:06.997Z</time>
      </trkpt>
      <trkpt lat="45.54741" lon="6.82677">
        <ele>2541</ele>
        <time>2011-03-18T12:48:22.999Z</time>
      </trkpt>
      <trkpt lat="45.54729" lon="6.82719">
        <ele>2543</ele>
        <time>2011-03-18T12:48:38.999Z</time>
      </trkpt>
      <trkpt lat="45.54717" lon="6.82763">
        <ele>2544</ele>
        <time>2011-03-18T12:48:54.999Z</time>
      </trkpt>
      <trkpt lat="45.54705" lon="6.82806">
        <ele>2545</ele>
        <time>2011-03-18T12:49:10.999Z</time>
      </trkpt>
      <trkpt lat="45.54693" lon="6.82847">
        <ele>2547</ele>
        <time>2011-03-18T12:49:26.903Z</time>
      </trkpt>
      <trkpt lat="45.54683" lon="6.82886">
        <ele>2550</ele>
        <time>2011-03-18T12:49:41.914Z</time>
      </trkpt>
      <trkpt lat="45.54673" lon="6.82924">
        <ele>2550</ele>
        <time>2011-03-18T12:49:56.999Z</time>
      </trkpt>
      <trkpt lat="45.54661" lon="6.82965">
        <ele>2549</ele>
        <time>2011-03-18T12:50:12.999Z</time>
      </trkpt>
      <trkpt lat="45.54652" lon="6.83004">
        <ele>2552</ele>
        <time>2011-03-18T12:50:28.999Z</time>
      </trkpt>
      <trkpt lat="45.54641" lon="6.83044">
        <ele>2558</ele>
        <time>2011-03-18T12:50:44.999Z</time>
      </trkpt>
      <trkpt lat="45.54633" lon="6.83081">
        <ele>2564</ele>
        <time>2011-03-18T12:51:00.839Z</time>
      </trkpt>
      <trkpt lat="45.54623" lon="6.83115">
        <ele>2575</ele>
        <time>2011-03-18T12:51:15.999Z</time>
      </trkpt>
      <trkpt lat="45.54614" lon="6.83151">
        <ele>2588</ele>
        <time>2011-03-18T12:51:31.999Z</time>
      </trkpt>
      <trkpt lat="45.54603" lon="6.83188">
        <ele>2600</ele>
        <time>2011-03-18T12:51:47.998Z</time>
      </trkpt>
      <trkpt lat="45.54594" lon="6.83226">
        <ele>2610</ele>
        <time>2011-03-18T12:52:03.999Z</time>
      </trkpt>
      <trkpt lat="45.54583" lon="6.83265">
        <ele>2618</ele>
        <time>2011-03-18T12:52:19.999Z</time>
      </trkpt>
      <trkpt lat="45.54571" lon="6.83307">
        <ele>2625</ele>
        <time>2011-03-18T12:52:35.839Z</time>
      </trkpt>
      <trkpt lat="45.54558" lon="6.83351">
        <ele>2629</ele>
        <time>2011-03-18T12:52:51.999Z</time>
      </trkpt>
      <trkpt lat="45.54548" lon="6.83393">
        <ele>2634</ele>
        <time>2011-03-18T12:53:07.999Z</time>
      </trkpt>
      <trkpt lat="45.54537" lon="6.83435">
        <ele>2638</ele>
        <time>2011-03-18T12:53:23.999Z</time>
      </trkpt>
      <trkpt lat="45.54524" lon="6.83476">
        <ele>2647</ele>
        <time>2011-03-18T12:53:39.997Z</time>
      </trkpt>
      <trkpt lat="45.54513" lon="6.83516">
        <ele>2656</ele>
        <time>2011-03-18T12:53:54.999Z</time>
      </trkpt>
      <trkpt lat="45.54502" lon="6.83558">
        <ele>2660</ele>
        <time>2011-03-18T12:54:10.999Z</time>
      </trkpt>
      <trkpt lat="45.54491" lon="6.83595">
        <ele>2675</ele>
        <time>2011-03-18T12:54:26.999Z</time>
      </trkpt>
      <trkpt lat="45.54482" lon="6.83632">
        <ele>2684</ele>
        <time>2011-03-18T12:54:42.999Z</time>
      </trkpt>
      <trkpt lat="45.54472" lon="6.83668">
        <ele>2696</ele>
        <time>2011-03-18T12:54:58.999Z</time>
      </trkpt>
      <trkpt lat="45.5446" lon="6.8371">
        <ele>2700</ele>
        <time>2011-03-18T12:55:14.999Z</time>
      </trkpt>
      <trkpt lat="45.54448" lon="6.83754">
        <ele>2705</ele>
        <time>2011-03-18T12:55:30.999Z</time>
      </trkpt>
      <trkpt lat="45.54437" lon="6.83794">
        <ele>2715</ele>
        <time>2011-03-18T12:55:46.999Z</time>
      </trkpt>
      <trkpt lat="45.54425" lon="6.83835">
        <ele>2725</ele>
        <time>2011-03-18T12:56:02.998Z</time>
      </trkpt>
      <trkpt lat="45.54415" lon="6.83869">
        <ele>2736</ele>
        <time>2011-03-18T12:56:17.999Z</time>
      </trkpt>
      <trkpt lat="45.54407" lon="6.83907">
        <ele>2744</ele>
        <time>2011-03-18T12:56:33.999Z</time>
      </trkpt>
      <trkpt lat="45.54396" lon="6.83941">
        <ele>2763</ele>
        <time>2011-03-18T12:56:49.999Z</time>
      </trkpt>
      <trkpt lat="45.54388" lon="6.83975">
        <ele>2781</ele>
        <time>2011-03-18T12:57:05.896Z</time>
      </trkpt>
      <trkpt lat="45.54379" lon="6.84011">
        <ele>2796</ele>
        <time>2011-03-18T12:57:20.999Z</time>
      </trkpt>
      <trkpt lat="45.54367" lon="6.84049">
        <ele>2814</ele>
        <time>2011-03-18T12:57:36.999Z</time>
      </trkpt>
      <trkpt lat="45.54356" lon="6.84083">
        <ele>2829</ele>
        <time>2011-03-18T12:57:52.999Z</time>
      </trkpt>
      <trkpt lat="45.5434" lon="6.84132">
        <ele>2842</ele>
        <time>2011-03-18T12:58:08.999Z</time>
      </trkpt>
      <trkpt lat="45.54339" lon="6.84145">
        <ele>2848</ele>
        <time>2011-03-18T12:58:24.999Z</time>
      </trkpt>
      <trkpt lat="45.54336" lon="6.84146">
        <ele>2848</ele>
        <time>2011-03-18T12:58:40.999Z</time>
      </trkpt>
      <trkpt lat="45.54339" lon="6.84146">
        <ele>2852</ele>
        <time>2011-03-18T12:58:56.993Z</time>
      </trkpt>
      <trkpt lat="45.54342" lon="6.84144">
        <ele>2856</ele>
        <time>2011-03-18T12:59:11.999Z</time>
      </trkpt>
      <trkpt lat="45.54383" lon="6.8415">
        <ele>2855</ele>
        <time>2011-03-18T12:59:28.817Z</time>
      </trkpt>
      <trkpt lat="45.54396" lon="6.84118">
        <ele>2854</ele>
        <time>2011-03-18T12:59:43.871Z</time>
      </trkpt>
      <trkpt lat="45.54411" lon="6.84092">
        <ele>2852</ele>
        <time>2011-03-18T12:59:58.885Z</time>
      </trkpt>
      <trkpt lat="45.5444" lon="6.84064">
        <ele>2844</ele>
        <time>2011-03-18T13:00:15.000Z</time>
      </trkpt>
      <trkpt lat="45.54471" lon="6.84035">
        <ele>2825</ele>
        <time>2011-03-18T13:00:31.860Z</time>
      </trkpt>
      <trkpt lat="45.54497" lon="6.84014">
        <ele>2815</ele>
        <time>2011-03-18T13:00:47.000Z</time>
      </trkpt>
      <trkpt lat="45.54499" lon="6.84001">
        <ele>2809</ele>
        <time>2011-03-18T13:01:02.859Z</time>
      </trkpt>
      <trkpt lat="45.54497" lon="6.83987">
        <ele>2802</ele>
        <time>2011-03-18T13:01:18.858Z</time>
      </trkpt>
      <trkpt lat="45.5449" lon="6.83957">
        <ele>2792</ele>
        <time>2011-03-18T13:01:34.859Z</time>
      </trkpt>
      <trkpt lat="45.54479" lon="6.83942">
        <ele>2789</ele>
        <time>2011-03-18T13:01:49.881Z</time>
      </trkpt>
      <trkpt lat="45.54458" lon="6.83903">
        <ele>2779</ele>
        <time>2011-03-18T13:02:05.841Z</time>
      </trkpt>
      <trkpt lat="45.54446" lon="6.83845">
        <ele>2765</ele>
        <time>2011-03-18T13:02:21.848Z</time>
      </trkpt>
      <trkpt lat="45.54425" lon="6.83786">
        <ele>2755</ele>
        <time>2011-03-18T13:02:33.844Z</time>
      </trkpt>
      <trkpt lat="45.54455" lon="6.83737">
        <ele>2740</ele>
        <time>2011-03-18T13:02:39.000Z</time>
      </trkpt>
      <trkpt lat="45.54488" lon="6.83691">
        <ele>2730</ele>
        <time>2011-03-18T13:02:50.000Z</time>
      </trkpt>
      <trkpt lat="45.54486" lon="6.83684">
        <ele>2730</ele>
        <time>2011-03-18T13:03:05.839Z</time>
      </trkpt>
      <trkpt lat="45.54486" lon="6.83685">
        <ele>2730</ele>
        <time>2011-03-18T13:03:20.845Z</time>
      </trkpt>
      <trkpt lat="45.54486" lon="6.83685">
        <ele>2730</ele>
        <time>2011-03-18T13:03:35.848Z</time>
      </trkpt>
      <trkpt lat="45.54487" lon="6.83685">
        <ele>2730</ele>
        <time>2011-03-18T13:03:51.848Z</time>
      </trkpt>
      <trkpt lat="45.54487" lon="6.83685">
        <ele>2730</ele>
        <time>2011-03-18T13:04:07.848Z</time>
      </trkpt>
      <trkpt lat="45.54475" lon="6.83681">
        <ele>2730</ele>
        <time>2011-03-18T13:04:23.842Z</time>
      </trkpt>
      <trkpt lat="45.54474" lon="6.8368">
        <ele>2730</ele>
        <time>2011-03-18T13:04:38.844Z</time>
      </trkpt>
      <trkpt lat="45.54475" lon="6.8368">
        <ele>2730</ele>
        <time>2011-03-18T13:04:53.861Z</time>
      </trkpt>
      <trkpt lat="45.54546" lon="6.83444">
        <ele>2843</ele>
        <time>2011-03-18T13:05:22.980Z</time>
      </trkpt>
      <trkpt lat="45.54588" lon="6.83373">
        <ele>2841</ele>
        <time>2011-03-18T13:05:24.837Z</time>
      </trkpt>
      <trkpt lat="45.54617" lon="6.83323">
        <ele>2839</ele>
        <time>2011-03-18T13:05:26.830Z</time>
      </trkpt>
      <trkpt lat="45.54645" lon="6.8327">
        <ele>2836</ele>
        <time>2011-03-18T13:05:35.000Z</time>
      </trkpt>
      <trkpt lat="45.54628" lon="6.83263">
        <ele>2833</ele>
        <time>2011-03-18T13:05:51.810Z</time>
      </trkpt>
      <trkpt lat="45.54613" lon="6.83253">
        <ele>2831</ele>
        <time>2011-03-18T13:06:06.843Z</time>
      </trkpt>
      <trkpt lat="45.5461" lon="6.83253">
        <ele>2829</ele>
        <time>2011-03-18T13:06:21.844Z</time>
      </trkpt>
      <trkpt lat="45.54609" lon="6.83252">
        <ele>2829</ele>
        <time>2011-03-18T13:06:36.848Z</time>
      </trkpt>
      <trkpt lat="45.54608" lon="6.83252">
        <ele>2828</ele>
        <time>2011-03-18T13:06:52.839Z</time>
      </trkpt>
      <trkpt lat="45.54581" lon="6.83198">
        <ele>2800</ele>
        <time>2011-03-18T13:07:05.813Z</time>
      </trkpt>
      <trkpt lat="45.54547" lon="6.8315">
        <ele>2786</ele>
        <time>2011-03-18T13:07:18.892Z</time>
      </trkpt>
      <trkpt lat="45.5453" lon="6.83088">
        <ele>2784</ele>
        <time>2011-03-18T13:07:26.000Z</time>
      </trkpt>
      <trkpt lat="45.54559" lon="6.83012">
        <ele>2783</ele>
        <time>2011-03-18T13:07:34.943Z</time>
      </trkpt>
      <trkpt lat="45.54562" lon="6.8298">
        <ele>2763</ele>
        <time>2011-03-18T13:07:50.000Z</time>
      </trkpt>
      <trkpt lat="45.54587" lon="6.82947">
        <ele>2751</ele>
        <time>2011-03-18T13:08:05.842Z</time>
      </trkpt>
      <trkpt lat="45.5461" lon="6.82927">
        <ele>2730</ele>
        <time>2011-03-18T13:08:21.830Z</time>
      </trkpt>
      <trkpt lat="45.54602" lon="6.82859">
        <ele>2724</ele>
        <time>2011-03-18T13:08:37.834Z</time>
      </trkpt>
      <trkpt lat="45.54591" lon="6.82793">
        <ele>2723</ele>
        <time>2011-03-18T13:08:43.795Z</time>
      </trkpt>
      <trkpt lat="45.54619" lon="6.82703">
        <ele>2710</ele>
        <time>2011-03-18T13:08:49.819Z</time>
      </trkpt>
      <trkpt lat="45.54658" lon="6.82643">
        <ele>2696</ele>
        <time>2011-03-18T13:08:52.821Z</time>
      </trkpt>
      <trkpt lat="45.54699" lon="6.82591">
        <ele>2676</ele>
        <time>2011-03-18T13:08:54.000Z</time>
      </trkpt>
      <trkpt lat="45.54738" lon="6.82549">
        <ele>2658</ele>
        <time>2011-03-18T13:09:02.816Z</time>
      </trkpt>
      <trkpt lat="45.54775" lon="6.82511">
        <ele>2634</ele>
        <time>2011-03-18T13:09:09.000Z</time>
      </trkpt>
      <trkpt lat="45.54801" lon="6.82481">
        <ele>2594</ele>
        <time>2011-03-18T13:09:24.800Z</time>
      </trkpt>
      <trkpt lat="45.54805" lon="6.8248">
        <ele>2567</ele>
        <time>2011-03-18T13:09:40.821Z</time>
      </trkpt>
      <trkpt lat="45.54803" lon="6.82482">
        <ele>2555</ele>
        <time>2011-03-18T13:09:56.000Z</time>
      </trkpt>
      <trkpt lat="45.54798" lon="6.82488">
        <ele>2545</ele>
        <time>2011-03-18T13:10:11.902Z</time>
      </trkpt>
      <trkpt lat="45.54798" lon="6.82491">
        <ele>2533</ele>
        <time>2011-03-18T13:10:27.000Z</time>
      </trkpt>
      <trkpt lat="45.54798" lon="6.8249">
        <ele>2531</ele>
        <time>2011-03-18T13:10:42.814Z</time>
      </trkpt>
      <trkpt lat="45.54798" lon="6.82495">
        <ele>2526</ele>
        <time>2011-03-18T13:10:59.871Z</time>
      </trkpt>
      <trkpt lat="45.54796" lon="6.82496">
        <ele>2519</ele>
        <time>2011-03-18T13:11:15.000Z</time>
      </trkpt>
      <trkpt lat="45.54793" lon="6.825">
        <ele>2518</ele>
        <time>2011-03-18T13:11:31.807Z</time>
      </trkpt>
      <trkpt lat="45.54792" lon="6.825">
        <ele>2514</ele>
        <time>2011-03-18T13:11:46.814Z</time>
      </trkpt>
      <trkpt lat="45.54786" lon="6.82519">
        <ele>2512</ele>
        <time>2011-03-18T13:12:02.811Z</time>
      </trkpt>
      <trkpt lat="45.54773" lon="6.82564">
        <ele>2514</ele>
        <time>2011-03-18T13:12:18.811Z</time>
      </trkpt>
      <trkpt lat="45.54762" lon="6.826">
        <ele>2522</ele>
        <time>2011-03-18T13:12:34.810Z</time>
      </trkpt>
      <trkpt lat="45.54751" lon="6.82643">
        <ele>2530</ele>
        <time>2011-03-18T13:12:50.808Z</time>
      </trkpt>
      <trkpt lat="45.54739" lon="6.82681">
        <ele>2535</ele>
        <time>2011-03-18T13:13:05.809Z</time>
      </trkpt>
      <trkpt lat="45.54726" lon="6.82725">
        <ele>2536</ele>
        <time>2011-03-18T13:13:21.808Z</time>
      </trkpt>
      <trkpt lat="45.54713" lon="6.82771">
        <ele>2536</ele>
        <time>2011-03-18T13:13:37.808Z</time>
      </trkpt>
      <trkpt lat="45.547" lon="6.82817">
        <ele>2540</ele>
        <time>2011-03-18T13:13:53.000Z</time>
      </trkpt>
      <trkpt lat="45.54689" lon="6.82859">
        <ele>2544</ele>
        <time>2011-03-18T13:14:08.807Z</time>
      </trkpt>
      <trkpt lat="45.54679" lon="6.82896">
        <ele>2548</ele>
        <time>2011-03-18T13:14:23.897Z</time>
      </trkpt>
      <trkpt lat="45.54667" lon="6.8294">
        <ele>2548</ele>
        <time>2011-03-18T13:14:39.000Z</time>
      </trkpt>
      <trkpt lat="45.54656" lon="6.82977">
        <ele>2548</ele>
        <time>2011-03-18T13:14:54.900Z</time>
      </trkpt>
      <trkpt lat="45.54646" lon="6.83016">
        <ele>2556</ele>
        <time>2011-03-18T13:15:10.880Z</time>
      </trkpt>
      <trkpt lat="45.54637" lon="6.83052">
        <ele>2567</ele>
        <time>2011-03-18T13:15:26.922Z</time>
      </trkpt>
      <trkpt lat="45.54628" lon="6.83085">
        <ele>2579</ele>
        <time>2011-03-18T13:15:41.994Z</time>
      </trkpt>
      <trkpt lat="45.54617" lon="6.83128">
        <ele>2590</ele>
        <time>2011-03-18T13:15:56.999Z</time>
      </trkpt>
      <trkpt lat="45.54606" lon="6.83174">
        <ele>2602</ele>
        <time>2011-03-18T13:16:12.999Z</time>
      </trkpt>
      <trkpt lat="45.54597" lon="6.83207">
        <ele>2613</ele>
        <time>2011-03-18T13:16:28.884Z</time>
      </trkpt>
      <trkpt lat="45.54588" lon="6.83238">
        <ele>2626</ele>
        <time>2011-03-18T13:16:44.999Z</time>
      </trkpt>
      <trkpt lat="45.54578" lon="6.83271">
        <ele>2634</ele>
        <time>2011-03-18T13:17:00.785Z</time>
      </trkpt>
      <trkpt lat="45.54565" lon="6.83317">
        <ele>2639</ele>
        <time>2011-03-18T13:17:15.998Z</time>
      </trkpt>
      <trkpt lat="45.54552" lon="6.83362">
        <ele>2644</ele>
        <time>2011-03-18T13:17:30.999Z</time>
      </trkpt>
      <trkpt lat="45.5454" lon="6.83411">
        <ele>2648</ele>
        <time>2011-03-18T13:17:46.868Z</time>
      </trkpt>
      <trkpt lat="45.54527" lon="6.8346">
        <ele>2654</ele>
        <time>2011-03-18T13:18:02.984Z</time>
      </trkpt>
      <trkpt lat="45.54513" lon="6.83505">
        <ele>2659</ele>
        <time>2011-03-18T13:18:18.892Z</time>
      </trkpt>
      <trkpt lat="45.545" lon="6.83552">
        <ele>2664</ele>
        <time>2011-03-18T13:18:33.999Z</time>
      </trkpt>
      <trkpt lat="45.54487" lon="6.836">
        <ele>2668</ele>
        <time>2011-03-18T13:18:49.997Z</time>
      </trkpt>
      <trkpt lat="45.54476" lon="6.83643">
        <ele>2676</ele>
        <time>2011-03-18T13:19:04.999Z</time>
      </trkpt>
      <trkpt lat="45.54463" lon="6.83691">
        <ele>2686</ele>
        <time>2011-03-18T13:19:20.999Z</time>
      </trkpt>
      <trkpt lat="45.54453" lon="6.83729">
        <ele>2697</ele>
        <time>2011-03-18T13:19:36.999Z</time>
      </trkpt>
      <trkpt lat="45.54441" lon="6.83765">
        <ele>2706</ele>
        <time>2011-03-18T13:19:52.997Z</time>
      </trkpt>
      <trkpt lat="45.54433" lon="6.83794">
        <ele>2716</ele>
        <time>2011-03-18T13:20:07.999Z</time>
      </trkpt>
      <trkpt lat="45.54424" lon="6.83831">
        <ele>2724</ele>
        <time>2011-03-18T13:20:23.983Z</time>
      </trkpt>
      <trkpt lat="45.54411" lon="6.83873">
        <ele>2733</ele>
        <time>2011-03-18T13:20:38.985Z</time>
      </trkpt>
      <trkpt lat="45.54403" lon="6.83905">
        <ele>2739</ele>
        <time>2011-03-18T13:20:53.999Z</time>
      </trkpt>
      <trkpt lat="45.54393" lon="6.83944">
        <ele>2754</ele>
        <time>2011-03-18T13:21:09.999Z</time>
      </trkpt>
      <trkpt lat="45.54381" lon="6.83985">
        <ele>2768</ele>
        <time>2011-03-18T13:21:25.999Z</time>
      </trkpt>
      <trkpt lat="45.54376" lon="6.84">
        <ele>2795</ele>
        <time>2011-03-18T13:21:41.897Z</time>
      </trkpt>
      <trkpt lat="45.54375" lon="6.83993">
        <ele>2829</ele>
        <time>2011-03-18T13:21:57.999Z</time>
      </trkpt>
      <trkpt lat="45.54364" lon="6.84034">
        <ele>2846</ele>
        <time>2011-03-18T13:22:13.999Z</time>
      </trkpt>
      <trkpt lat="45.54352" lon="6.84075">
        <ele>2862</ele>
        <time>2011-03-18T13:22:29.999Z</time>
      </trkpt>
      <trkpt lat="45.54337" lon="6.84128">
        <ele>2869</ele>
        <time>2011-03-18T13:22:45.999Z</time>
      </trkpt>
      <trkpt lat="45.54331" lon="6.84152">
        <ele>2870</ele>
        <time>2011-03-18T13:23:01.999Z</time>
      </trkpt>
      <trkpt lat="45.54328" lon="6.84155">
        <ele>2872</ele>
        <time>2011-03-18T13:23:17.999Z</time>
      </trkpt>
      <trkpt lat="45.54332" lon="6.8415">
        <ele>2870</ele>
        <time>2011-03-18T13:23:33.999Z</time>
      </trkpt>
      <trkpt lat="45.54336" lon="6.84148">
        <ele>2870</ele>
        <time>2011-03-18T13:23:49.999Z</time>
      </trkpt>
      <trkpt lat="45.54368" lon="6.84104">
        <ele>2867</ele>
        <time>2011-03-18T13:24:05.999Z</time>
      </trkpt>
      <trkpt lat="45.54399" lon="6.84067">
        <ele>2864</ele>
        <time>2011-03-18T13:24:21.994Z</time>
      </trkpt>
      <trkpt lat="45.54417" lon="6.84042">
        <ele>2863</ele>
        <time>2011-03-18T13:24:36.999Z</time>
      </trkpt>
      <trkpt lat="45.54403" lon="6.84011">
        <ele>2859</ele>
        <time>2011-03-18T13:24:52.966Z</time>
      </trkpt>
      <trkpt lat="45.54406" lon="6.84007">
        <ele>2857</ele>
        <time>2011-03-18T13:25:08.870Z</time>
      </trkpt>
      <trkpt lat="45.54424" lon="6.83973">
        <ele>2855</ele>
        <time>2011-03-18T13:25:24.817Z</time>
      </trkpt>
      <trkpt lat="45.54438" lon="6.83942">
        <ele>2850</ele>
        <time>2011-03-18T13:25:39.999Z</time>
      </trkpt>
      <trkpt lat="45.54441" lon="6.83897">
        <ele>2844</ele>
        <time>2011-03-18T13:25:55.999Z</time>
      </trkpt>
      <trkpt lat="45.5445" lon="6.83845">
        <ele>2840</ele>
        <time>2011-03-18T13:26:11.991Z</time>
      </trkpt>
      <trkpt lat="45.54458" lon="6.8381">
        <ele>2834</ele>
        <time>2011-03-18T13:26:26.999Z</time>
      </trkpt>
      <trkpt lat="45.5447" lon="6.83736">
        <ele>2835</ele>
        <time>2011-03-18T13:26:34.999Z</time>
      </trkpt>
      <trkpt lat="45.54483" lon="6.8368">
        <ele>2821</ele>
        <time>2011-03-18T13:26:50.999Z</time>
      </trkpt>
      <trkpt lat="45.54479" lon="6.83671">
        <ele>2814</ele>
        <time>2011-03-18T13:27:06.999Z</time>
      </trkpt>
      <trkpt lat="45.54482" lon="6.83671">
        <ele>2802</ele>
        <time>2011-03-18T13:27:22.851Z</time>
      </trkpt>
      <trkpt lat="45.54483" lon="6.83669">
        <ele>2795</ele>
        <time>2011-03-18T13:27:37.999Z</time>
      </trkpt>
      <trkpt lat="45.54482" lon="6.83671">
        <ele>2793</ele>
        <time>2011-03-18T13:27:53.996Z</time>
      </trkpt>
      <trkpt lat="45.54482" lon="6.83669">
        <ele>2790</ele>
        <time>2011-03-18T13:28:08.999Z</time>
      </trkpt>
      <trkpt lat="45.54483" lon="6.83669">
        <ele>2787</ele>
        <time>2011-03-18T13:28:24.789Z</time>
      </trkpt>
      <trkpt lat="45.54482" lon="6.83668">
        <ele>2785</ele>
        <time>2011-03-18T13:28:39.821Z</time>
      </trkpt>
      <trkpt lat="45.54482" lon="6.83668">
        <ele>2786</ele>
        <time>2011-03-18T13:28:55.813Z</time>
      </trkpt>
      <trkpt lat="45.54483" lon="6.83669">
        <ele>2783</ele>
        <time>2011-03-18T13:29:10.986Z</time>
      </trkpt>
      <trkpt lat="45.54484" lon="6.83669">
        <ele>2780</ele>
        <time>2011-03-18T13:29:25.999Z</time>
      </trkpt>
      <trkpt lat="45.54486" lon="6.83669">
        <ele>2777</ele>
        <time>2011-03-18T13:29:41.999Z</time>
      </trkpt>
      <trkpt lat="45.54491" lon="6.83642">
        <ele>2778</ele>
        <time>2011-03-18T13:29:57.999Z</time>
      </trkpt>
      <trkpt lat="45.54501" lon="6.83562">
        <ele>2778</ele>
        <time>2011-03-18T13:30:02.999Z</time>
      </trkpt>
      <trkpt lat="45.54504" lon="6.83493">
        <ele>2779</ele>
        <time>2011-03-18T13:30:06.999Z</time>
      </trkpt>
      <trkpt lat="45.54486" lon="6.83426">
        <ele>2778</ele>
        <time>2011-03-18T13:30:11.999Z</time>
      </trkpt>
      <trkpt lat="45.54516" lon="6.83342">
        <ele>2777</ele>
        <time>2011-03-18T13:30:16.999Z</time>
      </trkpt>
      <trkpt lat="45.54511" lon="6.83277">
        <ele>2772</ele>
        <time>2011-03-18T13:30:22.839Z</time>
      </trkpt>
      <trkpt lat="45.54496" lon="6.83222">
        <ele>2767</ele>
        <time>2011-03-18T13:30:37.999Z</time>
      </trkpt>
      <trkpt lat="45.54506" lon="6.83153">
        <ele>2764</ele>
        <time>2011-03-18T13:30:51.999Z</time>
      </trkpt>
      <trkpt lat="45.54513" lon="6.83096">
        <ele>2763</ele>
        <time>2011-03-18T13:31:07.989Z</time>
      </trkpt>
      <trkpt lat="45.54548" lon="6.83042">
        <ele>2762</ele>
        <time>2011-03-18T13:31:10.996Z</time>
      </trkpt>
      <trkpt lat="45.54577" lon="6.82993">
        <ele>2760</ele>
        <time>2011-03-18T13:31:16.999Z</time>
      </trkpt>
      <trkpt lat="45.54656" lon="6.82858">
        <ele>2759</ele>
        <time>2011-03-18T13:31:29.894Z</time>
      </trkpt>
      <trkpt lat="45.54683" lon="6.82806">
        <ele>2758</ele>
        <time>2011-03-18T13:31:36.844Z</time>
      </trkpt>
      <trkpt lat="45.54714" lon="6.8275">
        <ele>2756</ele>
        <time>2011-03-18T13:31:44.788Z</time>
      </trkpt>
      <trkpt lat="45.54761" lon="6.82692">
        <ele>2733</ele>
        <time>2011-03-18T13:31:57.787Z</time>
      </trkpt>
      <trkpt lat="45.54771" lon="6.82669">
        <ele>2700</ele>
        <time>2011-03-18T13:32:13.881Z</time>
      </trkpt>
      <trkpt lat="45.54771" lon="6.82669">
        <ele>2698</ele>
        <time>2011-03-18T13:32:29.794Z</time>
      </trkpt>
      <trkpt lat="45.54771" lon="6.82669">
        <ele>2698</ele>
        <time>2011-03-18T13:32:45.000Z</time>
      </trkpt>
      <trkpt lat="45.54771" lon="6.82668">
        <ele>2696</ele>
        <time>2011-03-18T13:33:00.781Z</time>
      </trkpt>
      <trkpt lat="45.54769" lon="6.82667">
        <ele>2698</ele>
        <time>2011-03-18T13:33:15.787Z</time>
      </trkpt>
      <trkpt lat="45.5478" lon="6.82594">
        <ele>2702</ele>
        <time>2011-03-18T13:33:24.775Z</time>
      </trkpt>
      <trkpt lat="45.54801" lon="6.82532">
        <ele>2701</ele>
        <time>2011-03-18T13:33:28.786Z</time>
      </trkpt>
      <trkpt lat="45.54807" lon="6.82513">
        <ele>2674</ele>
        <time>2011-03-18T13:33:43.787Z</time>
      </trkpt>
      <trkpt lat="45.54809" lon="6.82481">
        <ele>2632</ele>
        <time>2011-03-18T13:33:58.795Z</time>
      </trkpt>
      <trkpt lat="45.54807" lon="6.82474">
        <ele>2608</ele>
        <time>2011-03-18T13:34:13.811Z</time>
      </trkpt>
      <trkpt lat="45.54802" lon="6.82473">
        <ele>2596</ele>
        <time>2011-03-18T13:34:29.000Z</time>
      </trkpt>
      <trkpt lat="45.54801" lon="6.82473">
        <ele>2595</ele>
        <time>2011-03-18T13:34:44.879Z</time>
      </trkpt>
      <trkpt lat="45.54801" lon="6.82465">
        <ele>2586</ele>
        <time>2011-03-18T13:35:00.767Z</time>
      </trkpt>
      <trkpt lat="45.54796" lon="6.82464">
        <ele>2574</ele>
        <time>2011-03-18T13:35:15.794Z</time>
      </trkpt>
      <trkpt lat="45.54795" lon="6.82465">
        <ele>2568</ele>
        <time>2011-03-18T13:35:30.994Z</time>
      </trkpt>
      <trkpt lat="45.54795" lon="6.82462">
        <ele>2565</ele>
        <time>2011-03-18T13:35:46.763Z</time>
      </trkpt>
      <trkpt lat="45.54797" lon="6.8246">
        <ele>2561</ele>
        <time>2011-03-18T13:36:01.793Z</time>
      </trkpt>
      <trkpt lat="45.54796" lon="6.82463">
        <ele>2555</ele>
        <time>2011-03-18T13:36:16.998Z</time>
      </trkpt>
      <trkpt lat="45.54796" lon="6.82465">
        <ele>2551</ele>
        <time>2011-03-18T13:36:32.763Z</time>
      </trkpt>
      <trkpt lat="45.54796" lon="6.82467">
        <ele>2548</ele>
        <time>2011-03-18T13:36:47.775Z</time>
      </trkpt>
      <trkpt lat="45.54794" lon="6.82471">
        <ele>2539</ele>
        <time>2011-03-18T13:37:02.999Z</time>
      </trkpt>
      <trkpt lat="45.54793" lon="6.82477">
        <ele>2536</ele>
        <time>2011-03-18T13:37:18.773Z</time>
      </trkpt>
      <trkpt lat="45.54793" lon="6.82478">
        <ele>2535</ele>
        <time>2011-03-18T13:37:33.877Z</time>
      </trkpt>
      <trkpt lat="45.54793" lon="6.82482">
        <ele>2532</ele>
        <time>2011-03-18T13:37:49.758Z</time>
      </trkpt>
      <trkpt lat="45.54792" lon="6.82485">
        <ele>2532</ele>
        <time>2011-03-18T13:38:04.781Z</time>
      </trkpt>
      <trkpt lat="45.54792" lon="6.82487">
        <ele>2528</ele>
        <time>2011-03-18T13:38:19.947Z</time>
      </trkpt>
      <trkpt lat="45.54791" lon="6.82491">
        <ele>2526</ele>
        <time>2011-03-18T13:38:35.770Z</time>
      </trkpt>
      <trkpt lat="45.54791" lon="6.82497">
        <ele>2526</ele>
        <time>2011-03-18T13:38:50.999Z</time>
      </trkpt>
      <trkpt lat="45.54776" lon="6.82553">
        <ele>2529</ele>
        <time>2011-03-18T13:39:06.999Z</time>
      </trkpt>
      <trkpt lat="45.5476" lon="6.82607">
        <ele>2530</ele>
        <time>2011-03-18T13:39:22.999Z</time>
      </trkpt>
      <trkpt lat="45.54747" lon="6.82654">
        <ele>2533</ele>
        <time>2011-03-18T13:39:38.999Z</time>
      </trkpt>
      <trkpt lat="45.54734" lon="6.82705">
        <ele>2536</ele>
        <time>2011-03-18T13:39:54.956Z</time>
      </trkpt>
      <trkpt lat="45.54712" lon="6.82759">
        <ele>2538</ele>
        <time>2011-03-18T13:40:10.771Z</time>
      </trkpt>
      <trkpt lat="45.54705" lon="6.82792">
        <ele>2538</ele>
        <time>2011-03-18T13:40:25.782Z</time>
      </trkpt>
      <trkpt lat="45.54699" lon="6.82825">
        <ele>2542</ele>
        <time>2011-03-18T13:40:41.756Z</time>
      </trkpt>
      <trkpt lat="45.54689" lon="6.82863">
        <ele>2545</ele>
        <time>2011-03-18T13:40:56.997Z</time>
      </trkpt>
      <trkpt lat="45.54677" lon="6.82903">
        <ele>2550</ele>
        <time>2011-03-18T13:41:12.999Z</time>
      </trkpt>
      <trkpt lat="45.54666" lon="6.82945">
        <ele>2549</ele>
        <time>2011-03-18T13:41:28.772Z</time>
      </trkpt>
      <trkpt lat="45.54655" lon="6.82983">
        <ele>2550</ele>
        <time>2011-03-18T13:41:43.777Z</time>
      </trkpt>
      <trkpt lat="45.54647" lon="6.83024">
        <ele>2555</ele>
        <time>2011-03-18T13:41:59.755Z</time>
      </trkpt>
      <trkpt lat="45.54638" lon="6.83062">
        <ele>2561</ele>
        <time>2011-03-18T13:42:14.756Z</time>
      </trkpt>
      <trkpt lat="45.5463" lon="6.83097">
        <ele>2571</ele>
        <time>2011-03-18T13:42:29.999Z</time>
      </trkpt>
      <trkpt lat="45.54621" lon="6.83136">
        <ele>2583</ele>
        <time>2011-03-18T13:42:46.984Z</time>
      </trkpt>
      <trkpt lat="45.54612" lon="6.83173">
        <ele>2596</ele>
        <time>2011-03-18T13:43:02.755Z</time>
      </trkpt>
      <trkpt lat="45.54602" lon="6.83208">
        <ele>2606</ele>
        <time>2011-03-18T13:43:17.766Z</time>
      </trkpt>
      <trkpt lat="45.54592" lon="6.83244">
        <ele>2618</ele>
        <time>2011-03-18T13:43:32.923Z</time>
      </trkpt>
      <trkpt lat="45.5458" lon="6.83285">
        <ele>2626</ele>
        <time>2011-03-18T13:43:48.762Z</time>
      </trkpt>
      <trkpt lat="45.54569" lon="6.83321">
        <ele>2630</ele>
        <time>2011-03-18T13:44:03.764Z</time>
      </trkpt>
      <trkpt lat="45.54559" lon="6.83361">
        <ele>2635</ele>
        <time>2011-03-18T13:44:18.999Z</time>
      </trkpt>
      <trkpt lat="45.54546" lon="6.83402">
        <ele>2645</ele>
        <time>2011-03-18T13:44:34.999Z</time>
      </trkpt>
      <trkpt lat="45.54534" lon="6.83443">
        <ele>2656</ele>
        <time>2011-03-18T13:44:50.999Z</time>
      </trkpt>
      <trkpt lat="45.54522" lon="6.83485">
        <ele>2661</ele>
        <time>2011-03-18T13:45:06.999Z</time>
      </trkpt>
      <trkpt lat="45.54511" lon="6.83526">
        <ele>2666</ele>
        <time>2011-03-18T13:45:22.928Z</time>
      </trkpt>
      <trkpt lat="45.54499" lon="6.83566">
        <ele>2675</ele>
        <time>2011-03-18T13:45:38.767Z</time>
      </trkpt>
      <trkpt lat="45.5449" lon="6.83606">
        <ele>2685</ele>
        <time>2011-03-18T13:45:54.999Z</time>
      </trkpt>
      <trkpt lat="45.54482" lon="6.83643">
        <ele>2696</ele>
        <time>2011-03-18T13:46:10.939Z</time>
      </trkpt>
      <trkpt lat="45.54471" lon="6.83681">
        <ele>2705</ele>
        <time>2011-03-18T13:46:26.757Z</time>
      </trkpt>
      <trkpt lat="45.5446" lon="6.83719">
        <ele>2711</ele>
        <time>2011-03-18T13:46:41.998Z</time>
      </trkpt>
      <trkpt lat="45.54448" lon="6.83759">
        <ele>2718</ele>
        <time>2011-03-18T13:46:57.752Z</time>
      </trkpt>
      <trkpt lat="45.54435" lon="6.83802">
        <ele>2727</ele>
        <time>2011-03-18T13:47:13.772Z</time>
      </trkpt>
      <trkpt lat="45.54421" lon="6.83844">
        <ele>2740</ele>
        <time>2011-03-18T13:47:29.774Z</time>
      </trkpt>
      <trkpt lat="45.54412" lon="6.83881">
        <ele>2754</ele>
        <time>2011-03-18T13:47:45.750Z</time>
      </trkpt>
      <trkpt lat="45.54402" lon="6.83916">
        <ele>2769</ele>
        <time>2011-03-18T13:48:00.999Z</time>
      </trkpt>
      <trkpt lat="45.54393" lon="6.8395">
        <ele>2786</ele>
        <time>2011-03-18T13:48:16.953Z</time>
      </trkpt>
      <trkpt lat="45.54384" lon="6.83983">
        <ele>2801</ele>
        <time>2011-03-18T13:48:32.756Z</time>
      </trkpt>
      <trkpt lat="45.54375" lon="6.84019">
        <ele>2811</ele>
        <time>2011-03-18T13:48:47.762Z</time>
      </trkpt>
      <trkpt lat="45.54365" lon="6.84055">
        <ele>2827</ele>
        <time>2011-03-18T13:49:02.999Z</time>
      </trkpt>
      <trkpt lat="45.54354" lon="6.84093">
        <ele>2840</ele>
        <time>2011-03-18T13:49:18.999Z</time>
      </trkpt>
      <trkpt lat="45.54345" lon="6.84135">
        <ele>2847</ele>
        <time>2011-03-18T13:49:34.753Z</time>
      </trkpt>
      <trkpt lat="45.54347" lon="6.84139">
        <ele>2848</ele>
        <time>2011-03-18T13:49:49.763Z</time>
      </trkpt>
      <trkpt lat="45.54349" lon="6.84135">
        <ele>2848</ele>
        <time>2011-03-18T13:50:04.999Z</time>
      </trkpt>
      <trkpt lat="45.54369" lon="6.84147">
        <ele>2850</ele>
        <time>2011-03-18T13:50:20.929Z</time>
      </trkpt>
      <trkpt lat="45.54398" lon="6.84165">
        <ele>2849</ele>
        <time>2011-03-18T13:50:36.766Z</time>
      </trkpt>
      <trkpt lat="45.54438" lon="6.84142">
        <ele>2848</ele>
        <time>2011-03-18T13:50:51.999Z</time>
      </trkpt>
      <trkpt lat="45.54445" lon="6.84127">
        <ele>2847</ele>
        <time>2011-03-18T13:51:07.740Z</time>
      </trkpt>
      <trkpt lat="45.54469" lon="6.84115">
        <ele>2848</ele>
        <time>2011-03-18T13:51:23.802Z</time>
      </trkpt>
      <trkpt lat="45.54475" lon="6.84118">
        <ele>2849</ele>
        <time>2011-03-18T13:51:39.771Z</time>
      </trkpt>
      <trkpt lat="45.54469" lon="6.84087">
        <ele>2848</ele>
        <time>2011-03-18T13:51:55.741Z</time>
      </trkpt>
      <trkpt lat="45.5446" lon="6.84032">
        <ele>2846</ele>
        <time>2011-03-18T13:52:10.995Z</time>
      </trkpt>
      <trkpt lat="45.54443" lon="6.84009">
        <ele>2840</ele>
        <time>2011-03-18T13:52:25.999Z</time>
      </trkpt>
      <trkpt lat="45.54432" lon="6.83967">
        <ele>2832</ele>
        <time>2011-03-18T13:52:41.999Z</time>
      </trkpt>
      <trkpt lat="45.54426" lon="6.83956">
        <ele>2826</ele>
        <time>2011-03-18T13:52:57.999Z</time>
      </trkpt>
      <trkpt lat="45.54412" lon="6.83919">
        <ele>2818</ele>
        <time>2011-03-18T13:53:13.999Z</time>
      </trkpt>
      <trkpt lat="45.54402" lon="6.83853">
        <ele>2816</ele>
        <time>2011-03-18T13:53:28.997Z</time>
      </trkpt>
      <trkpt lat="45.54398" lon="6.83785">
        <ele>2815</ele>
        <time>2011-03-18T13:53:38.000Z</time>
      </trkpt>
      <trkpt lat="45.54457" lon="6.83737">
        <ele>2803</ele>
        <time>2011-03-18T13:53:45.746Z</time>
      </trkpt>
      <trkpt lat="45.54493" lon="6.83694">
        <ele>2772</ele>
        <time>2011-03-18T13:53:54.999Z</time>
      </trkpt>
      <trkpt lat="45.54514" lon="6.83667">
        <ele>2756</ele>
        <time>2011-03-18T13:54:10.747Z</time>
      </trkpt>
      <trkpt lat="45.54513" lon="6.83668">
        <ele>2753</ele>
        <time>2011-03-18T13:54:25.811Z</time>
      </trkpt>
      <trkpt lat="45.54515" lon="6.83666">
        <ele>2749</ele>
        <time>2011-03-18T13:54:40.999Z</time>
      </trkpt>
      <trkpt lat="45.54513" lon="6.83673">
        <ele>2743</ele>
        <time>2011-03-18T13:54:56.999Z</time>
      </trkpt>
      <trkpt lat="45.54513" lon="6.83673">
        <ele>2743</ele>
        <time>2011-03-18T13:55:12.999Z</time>
      </trkpt>
      <trkpt lat="45.54513" lon="6.83672">
        <ele>2743</ele>
        <time>2011-03-18T13:55:28.999Z</time>
      </trkpt>
      <trkpt lat="45.54513" lon="6.83672">
        <ele>2743</ele>
        <time>2011-03-18T13:55:44.999Z</time>
      </trkpt>
      <trkpt lat="45.54514" lon="6.83671">
        <ele>2743</ele>
        <time>2011-03-18T13:56:00.747Z</time>
      </trkpt>
      <trkpt lat="45.54499" lon="6.83609">
        <ele>2738</ele>
        <time>2011-03-18T13:56:11.999Z</time>
      </trkpt>
      <trkpt lat="45.54469" lon="6.83536">
        <ele>2736</ele>
        <time>2011-03-18T13:56:19.000Z</time>
      </trkpt>
      <trkpt lat="45.54443" lon="6.8347">
        <ele>2732</ele>
        <time>2011-03-18T13:56:24.736Z</time>
      </trkpt>
      <trkpt lat="45.54438" lon="6.83381">
        <ele>2728</ele>
        <time>2011-03-18T13:56:36.000Z</time>
      </trkpt>
      <trkpt lat="45.54447" lon="6.8331">
        <ele>2723</ele>
        <time>2011-03-18T13:56:46.999Z</time>
      </trkpt>
      <trkpt lat="45.54599" lon="6.82933">
        <ele>2701</ele>
        <time>2011-03-18T13:57:46.000Z</time>
      </trkpt>
      <trkpt lat="45.54637" lon="6.82888">
        <ele>2693</ele>
        <time>2011-03-18T13:57:54.997Z</time>
      </trkpt>
      <trkpt lat="45.54676" lon="6.82852">
        <ele>2686</ele>
        <time>2011-03-18T13:58:02.997Z</time>
      </trkpt>
      <trkpt lat="45.54699" lon="6.82793">
        <ele>2647</ele>
        <time>2011-03-18T13:58:13.999Z</time>
      </trkpt>
      <trkpt lat="45.5472" lon="6.82759">
        <ele>2620</ele>
        <time>2011-03-18T13:58:29.818Z</time>
      </trkpt>
      <trkpt lat="45.5472" lon="6.82759">
        <ele>2619</ele>
        <time>2011-03-18T13:58:45.756Z</time>
      </trkpt>
      <trkpt lat="45.54721" lon="6.82758">
        <ele>2618</ele>
        <time>2011-03-18T13:59:01.756Z</time>
      </trkpt>
      <trkpt lat="45.54765" lon="6.82689">
        <ele>2576</ele>
        <time>2011-03-18T13:59:12.737Z</time>
      </trkpt>
      <trkpt lat="45.54776" lon="6.82692">
        <ele>2565</ele>
        <time>2011-03-18T13:59:28.728Z</time>
      </trkpt>
      <trkpt lat="45.54808" lon="6.82676">
        <ele>2557</ele>
        <time>2011-03-18T13:59:43.747Z</time>
      </trkpt>
      <trkpt lat="45.54803" lon="6.82609">
        <ele>2550</ele>
        <time>2011-03-18T13:59:54.728Z</time>
      </trkpt>
      <trkpt lat="45.54845" lon="6.82639">
        <ele>2541</ele>
        <time>2011-03-18T14:00:05.747Z</time>
      </trkpt>
      <trkpt lat="45.54868" lon="6.82694">
        <ele>2535</ele>
        <time>2011-03-18T14:00:11.997Z</time>
      </trkpt>
      <trkpt lat="45.54899" lon="6.82755">
        <ele>2530</ele>
        <time>2011-03-18T14:00:17.730Z</time>
      </trkpt>
      <trkpt lat="45.54941" lon="6.82802">
        <ele>2528</ele>
        <time>2011-03-18T14:00:23.917Z</time>
      </trkpt>
      <trkpt lat="45.5499" lon="6.82822">
        <ele>2526</ele>
        <time>2011-03-18T14:00:29.740Z</time>
      </trkpt>
      <trkpt lat="45.55036" lon="6.82835">
        <ele>2525</ele>
        <time>2011-03-18T14:00:35.753Z</time>
      </trkpt>
      <trkpt lat="45.55238" lon="6.82609">
        <ele>2523</ele>
        <time>2011-03-18T14:01:04.000Z</time>
      </trkpt>
      <trkpt lat="45.55272" lon="6.8256">
        <ele>2521</ele>
        <time>2011-03-18T14:01:10.733Z</time>
      </trkpt>
      <trkpt lat="45.55299" lon="6.82508">
        <ele>2519</ele>
        <time>2011-03-18T14:01:17.999Z</time>
      </trkpt>
      <trkpt lat="45.55328" lon="6.82454">
        <ele>2518</ele>
        <time>2011-03-18T14:01:25.856Z</time>
      </trkpt>
      <trkpt lat="45.55076" lon="6.81019">
        <ele>2582</ele>
        <time>2011-03-18T14:14:39.795Z</time>
      </trkpt>
      <trkpt lat="45.55076" lon="6.81019">
        <ele>2582</ele>
        <time>2011-03-18T14:14:54.997Z</time>
      </trkpt>
      <trkpt lat="45.55075" lon="6.81019">
        <ele>2583</ele>
        <time>2011-03-18T14:15:10.781Z</time>
      </trkpt>
      <trkpt lat="45.55075" lon="6.81018">
        <ele>2583</ele>
        <time>2011-03-18T14:15:26.748Z</time>
      </trkpt>
      <trkpt lat="45.55075" lon="6.81017">
        <ele>2583</ele>
        <time>2011-03-18T14:15:42.748Z</time>
      </trkpt>
      <trkpt lat="45.55075" lon="6.81017">
        <ele>2583</ele>
        <time>2011-03-18T14:15:57.750Z</time>
      </trkpt>
      <trkpt lat="45.55075" lon="6.81017">
        <ele>2584</ele>
        <time>2011-03-18T14:16:13.730Z</time>
      </trkpt>
      <trkpt lat="45.55075" lon="6.81016">
        <ele>2584</ele>
        <time>2011-03-18T14:16:28.731Z</time>
      </trkpt>
      <trkpt lat="45.55079" lon="6.80993">
        <ele>2583</ele>
        <time>2011-03-18T14:16:44.729Z</time>
      </trkpt>
      <trkpt lat="45.55087" lon="6.80926">
        <ele>2583</ele>
        <time>2011-03-18T14:16:51.710Z</time>
      </trkpt>
      <trkpt lat="45.55109" lon="6.80857">
        <ele>2583</ele>
        <time>2011-03-18T14:16:56.999Z</time>
      </trkpt>
      <trkpt lat="45.55124" lon="6.80792">
        <ele>2583</ele>
        <time>2011-03-18T14:17:01.812Z</time>
      </trkpt>
      <trkpt lat="45.55155" lon="6.80733">
        <ele>2583</ele>
        <time>2011-03-18T14:17:06.922Z</time>
      </trkpt>
      <trkpt lat="45.55193" lon="6.80684">
        <ele>2582</ele>
        <time>2011-03-18T14:17:12.740Z</time>
      </trkpt>
      <trkpt lat="45.5523" lon="6.80644">
        <ele>2581</ele>
        <time>2011-03-18T14:17:17.729Z</time>
      </trkpt>
      <trkpt lat="45.55274" lon="6.80601">
        <ele>2581</ele>
        <time>2011-03-18T14:17:23.729Z</time>
      </trkpt>
      <trkpt lat="45.55314" lon="6.80568">
        <ele>2579</ele>
        <time>2011-03-18T14:17:29.725Z</time>
      </trkpt>
      <trkpt lat="45.5536" lon="6.80541">
        <ele>2578</ele>
        <time>2011-03-18T14:17:36.710Z</time>
      </trkpt>
      <trkpt lat="45.55405" lon="6.80528">
        <ele>2578</ele>
        <time>2011-03-18T14:17:43.982Z</time>
      </trkpt>
      <trkpt lat="45.55464" lon="6.80522">
        <ele>2578</ele>
        <time>2011-03-18T14:17:49.742Z</time>
      </trkpt>
      <trkpt lat="45.5551" lon="6.80518">
        <ele>2577</ele>
        <time>2011-03-18T14:17:53.723Z</time>
      </trkpt>
      <trkpt lat="45.55558" lon="6.8051">
        <ele>2575</ele>
        <time>2011-03-18T14:17:57.750Z</time>
      </trkpt>
      <trkpt lat="45.55606" lon="6.8049">
        <ele>2570</ele>
        <time>2011-03-18T14:18:04.734Z</time>
      </trkpt>
      <trkpt lat="45.5565" lon="6.80476">
        <ele>2567</ele>
        <time>2011-03-18T14:18:09.714Z</time>
      </trkpt>
      <trkpt lat="45.55696" lon="6.80468">
        <ele>2564</ele>
        <time>2011-03-18T14:18:14.985Z</time>
      </trkpt>
      <trkpt lat="45.5574" lon="6.80443">
        <ele>2558</ele>
        <time>2011-03-18T14:18:21.714Z</time>
      </trkpt>
      <trkpt lat="45.55741" lon="6.80372">
        <ele>2544</ele>
        <time>2011-03-18T14:18:34.739Z</time>
      </trkpt>
      <trkpt lat="45.55715" lon="6.80315">
        <ele>2531</ele>
        <time>2011-03-18T14:18:43.736Z</time>
      </trkpt>
      <trkpt lat="45.55682" lon="6.80271">
        <ele>2530</ele>
        <time>2011-03-18T14:18:53.701Z</time>
      </trkpt>
      <trkpt lat="45.5567" lon="6.80205">
        <ele>2528</ele>
        <time>2011-03-18T14:19:02.999Z</time>
      </trkpt>
      <trkpt lat="45.55656" lon="6.80129">
        <ele>2526</ele>
        <time>2011-03-18T14:19:09.716Z</time>
      </trkpt>
      <trkpt lat="45.5564" lon="6.80062">
        <ele>2524</ele>
        <time>2011-03-18T14:19:13.724Z</time>
      </trkpt>
      <trkpt lat="45.55623" lon="6.79986">
        <ele>2522</ele>
        <time>2011-03-18T14:19:18.718Z</time>
      </trkpt>
      <trkpt lat="45.55618" lon="6.79921">
        <ele>2521</ele>
        <time>2011-03-18T14:19:22.715Z</time>
      </trkpt>
      <trkpt lat="45.55581" lon="6.79878">
        <ele>2470</ele>
        <time>2011-03-18T14:19:35.718Z</time>
      </trkpt>
      <trkpt lat="45.55534" lon="6.79868">
        <ele>2452</ele>
        <time>2011-03-18T14:19:43.922Z</time>
      </trkpt>
      <trkpt lat="45.55492" lon="6.79842">
        <ele>2445</ele>
        <time>2011-03-18T14:19:49.767Z</time>
      </trkpt>
      <trkpt lat="45.55458" lon="6.79796">
        <ele>2440</ele>
        <time>2011-03-18T14:19:55.727Z</time>
      </trkpt>
      <trkpt lat="45.55426" lon="6.79745">
        <ele>2436</ele>
        <time>2011-03-18T14:20:01.726Z</time>
      </trkpt>
      <trkpt lat="45.55398" lon="6.79693">
        <ele>2432</ele>
        <time>2011-03-18T14:20:06.711Z</time>
      </trkpt>
      <trkpt lat="45.55372" lon="6.79635">
        <ele>2425</ele>
        <time>2011-03-18T14:20:12.711Z</time>
      </trkpt>
      <trkpt lat="45.55363" lon="6.79571">
        <ele>2413</ele>
        <time>2011-03-18T14:20:19.999Z</time>
      </trkpt>
      <trkpt lat="45.5533" lon="6.79524">
        <ele>2393</ele>
        <time>2011-03-18T14:20:28.934Z</time>
      </trkpt>
      <trkpt lat="45.55293" lon="6.7948">
        <ele>2380</ele>
        <time>2011-03-18T14:20:36.000Z</time>
      </trkpt>
      <trkpt lat="45.5526" lon="6.79427">
        <ele>2372</ele>
        <time>2011-03-18T14:20:43.724Z</time>
      </trkpt>
      <trkpt lat="45.55237" lon="6.79361">
        <ele>2370</ele>
        <time>2011-03-18T14:20:50.716Z</time>
      </trkpt>
      <trkpt lat="45.55229" lon="6.79287">
        <ele>2368</ele>
        <time>2011-03-18T14:20:57.997Z</time>
      </trkpt>
      <trkpt lat="45.55228" lon="6.79216">
        <ele>2363</ele>
        <time>2011-03-18T14:21:04.999Z</time>
      </trkpt>
      <trkpt lat="45.5524" lon="6.79154">
        <ele>2352</ele>
        <time>2011-03-18T14:21:14.999Z</time>
      </trkpt>
      <trkpt lat="45.55219" lon="6.79093">
        <ele>2340</ele>
        <time>2011-03-18T14:21:27.999Z</time>
      </trkpt>
      <trkpt lat="45.55206" lon="6.7903">
        <ele>2333</ele>
        <time>2011-03-18T14:21:34.997Z</time>
      </trkpt>
      <trkpt lat="45.55171" lon="6.78988">
        <ele>2318</ele>
        <time>2011-03-18T14:21:41.999Z</time>
      </trkpt>
      <trkpt lat="45.55125" lon="6.78963">
        <ele>2303</ele>
        <time>2011-03-18T14:21:48.998Z</time>
      </trkpt>
      <trkpt lat="45.55087" lon="6.78928">
        <ele>2292</ele>
        <time>2011-03-18T14:21:56.999Z</time>
      </trkpt>
      <trkpt lat="45.55094" lon="6.78927">
        <ele>2276</ele>
        <time>2011-03-18T14:22:12.999Z</time>
      </trkpt>
      <trkpt lat="45.55096" lon="6.78927">
        <ele>2273</ele>
        <time>2011-03-18T14:22:28.998Z</time>
      </trkpt>
      <trkpt lat="45.55118" lon="6.78863">
        <ele>2274</ele>
        <time>2011-03-18T14:22:38.993Z</time>
      </trkpt>
      <trkpt lat="45.55144" lon="6.78806">
        <ele>2273</ele>
        <time>2011-03-18T14:22:43.962Z</time>
      </trkpt>
      <trkpt lat="45.55162" lon="6.7874">
        <ele>2272</ele>
        <time>2011-03-18T14:22:48.933Z</time>
      </trkpt>
      <trkpt lat="45.55173" lon="6.78675">
        <ele>2272</ele>
        <time>2011-03-18T14:22:52.996Z</time>
      </trkpt>
      <trkpt lat="45.55172" lon="6.78611">
        <ele>2272</ele>
        <time>2011-03-18T14:22:56.736Z</time>
      </trkpt>
      <trkpt lat="45.55178" lon="6.78528">
        <ele>2269</ele>
        <time>2011-03-18T14:23:01.803Z</time>
      </trkpt>
      <trkpt lat="45.55169" lon="6.78457">
        <ele>2265</ele>
        <time>2011-03-18T14:23:06.869Z</time>
      </trkpt>
      <trkpt lat="45.55163" lon="6.7839">
        <ele>2263</ele>
        <time>2011-03-18T14:23:13.830Z</time>
      </trkpt>
      <trkpt lat="45.55148" lon="6.78323">
        <ele>2262</ele>
        <time>2011-03-18T14:23:19.730Z</time>
      </trkpt>
      <trkpt lat="45.55164" lon="6.78252">
        <ele>2262</ele>
        <time>2011-03-18T14:23:25.726Z</time>
      </trkpt>
      <trkpt lat="45.55185" lon="6.78193">
        <ele>2262</ele>
        <time>2011-03-18T14:23:30.707Z</time>
      </trkpt>
      <trkpt lat="45.55186" lon="6.78118">
        <ele>2262</ele>
        <time>2011-03-18T14:23:36.713Z</time>
      </trkpt>
      <trkpt lat="45.55185" lon="6.78037">
        <ele>2260</ele>
        <time>2011-03-18T14:23:42.710Z</time>
      </trkpt>
      <trkpt lat="45.55176" lon="6.77961">
        <ele>2260</ele>
        <time>2011-03-18T14:23:49.999Z</time>
      </trkpt>
      <trkpt lat="45.55173" lon="6.77888">
        <ele>2259</ele>
        <time>2011-03-18T14:23:54.712Z</time>
      </trkpt>
      <trkpt lat="45.55163" lon="6.77823">
        <ele>2258</ele>
        <time>2011-03-18T14:23:58.959Z</time>
      </trkpt>
      <trkpt lat="45.55184" lon="6.77765">
        <ele>2257</ele>
        <time>2011-03-18T14:24:04.717Z</time>
      </trkpt>
      <trkpt lat="45.55215" lon="6.77704">
        <ele>2257</ele>
        <time>2011-03-18T14:24:09.714Z</time>
      </trkpt>
      <trkpt lat="45.55248" lon="6.77657">
        <ele>2257</ele>
        <time>2011-03-18T14:24:13.711Z</time>
      </trkpt>
      <trkpt lat="45.55289" lon="6.77618">
        <ele>2254</ele>
        <time>2011-03-18T14:24:19.999Z</time>
      </trkpt>
      <trkpt lat="45.55322" lon="6.77565">
        <ele>2251</ele>
        <time>2011-03-18T14:24:27.999Z</time>
      </trkpt>
      <trkpt lat="45.55288" lon="6.77521">
        <ele>2236</ele>
        <time>2011-03-18T14:24:35.999Z</time>
      </trkpt>
      <trkpt lat="45.55238" lon="6.77508">
        <ele>2224</ele>
        <time>2011-03-18T14:24:41.985Z</time>
      </trkpt>
      <trkpt lat="45.55199" lon="6.77468">
        <ele>2213</ele>
        <time>2011-03-18T14:24:47.972Z</time>
      </trkpt>
      <trkpt lat="45.55176" lon="6.77409">
        <ele>2196</ele>
        <time>2011-03-18T14:24:56.965Z</time>
      </trkpt>
      <trkpt lat="45.55159" lon="6.77344">
        <ele>2182</ele>
        <time>2011-03-18T14:25:08.724Z</time>
      </trkpt>
      <trkpt lat="45.55137" lon="6.77282">
        <ele>2165</ele>
        <time>2011-03-18T14:25:21.735Z</time>
      </trkpt>
      <trkpt lat="45.55097" lon="6.77235">
        <ele>2156</ele>
        <time>2011-03-18T14:25:28.987Z</time>
      </trkpt>
      <trkpt lat="45.55066" lon="6.77185">
        <ele>2149</ele>
        <time>2011-03-18T14:25:34.999Z</time>
      </trkpt>
      <trkpt lat="45.55042" lon="6.77123">
        <ele>2138</ele>
        <time>2011-03-18T14:25:40.983Z</time>
      </trkpt>
      <trkpt lat="45.55008" lon="6.7708">
        <ele>2127</ele>
        <time>2011-03-18T14:25:45.999Z</time>
      </trkpt>
      <trkpt lat="45.54963" lon="6.77067">
        <ele>2114</ele>
        <time>2011-03-18T14:25:50.999Z</time>
      </trkpt>
      <trkpt lat="45.54918" lon="6.77078">
        <ele>2103</ele>
        <time>2011-03-18T14:25:55.999Z</time>
      </trkpt>
      <trkpt lat="45.54869" lon="6.77094">
        <ele>2092</ele>
        <time>2011-03-18T14:26:01.936Z</time>
      </trkpt>
      <trkpt lat="45.54823" lon="6.77115">
        <ele>2082</ele>
        <time>2011-03-18T14:26:07.997Z</time>
      </trkpt>
      <trkpt lat="45.54776" lon="6.7711">
        <ele>2067</ele>
        <time>2011-03-18T14:26:12.987Z</time>
      </trkpt>
      <trkpt lat="45.54728" lon="6.77097">
        <ele>2050</ele>
        <time>2011-03-18T14:26:18.999Z</time>
      </trkpt>
      <trkpt lat="45.5469" lon="6.77047">
        <ele>2044</ele>
        <time>2011-03-18T14:26:26.996Z</time>
      </trkpt>
      <trkpt lat="45.54678" lon="6.76984">
        <ele>2042</ele>
        <time>2011-03-18T14:26:31.999Z</time>
      </trkpt>
      <trkpt lat="45.54724" lon="6.76944">
        <ele>2040</ele>
        <time>2011-03-18T14:26:37.997Z</time>
      </trkpt>
      <trkpt lat="45.54772" lon="6.7692">
        <ele>2038</ele>
        <time>2011-03-18T14:26:44.934Z</time>
      </trkpt>
      <trkpt lat="45.54817" lon="6.76905">
        <ele>2036</ele>
        <time>2011-03-18T14:26:51.716Z</time>
      </trkpt>
      <trkpt lat="45.54854" lon="6.76853">
        <ele>2035</ele>
        <time>2011-03-18T14:26:59.718Z</time>
      </trkpt>
      <trkpt lat="45.54893" lon="6.76816">
        <ele>2035</ele>
        <time>2011-03-18T14:27:05.712Z</time>
      </trkpt>
      <trkpt lat="45.54912" lon="6.76748">
        <ele>2034</ele>
        <time>2011-03-18T14:27:12.713Z</time>
      </trkpt>
      <trkpt lat="45.54928" lon="6.76687">
        <ele>2033</ele>
        <time>2011-03-18T14:27:20.703Z</time>
      </trkpt>
      <trkpt lat="45.54953" lon="6.76629">
        <ele>2032</ele>
        <time>2011-03-18T14:27:27.999Z</time>
      </trkpt>
      <trkpt lat="45.54999" lon="6.76597">
        <ele>2031</ele>
        <time>2011-03-18T14:27:34.724Z</time>
      </trkpt>
      <trkpt lat="45.55011" lon="6.76552">
        <ele>2025</ele>
        <time>2011-03-18T14:27:49.996Z</time>
      </trkpt>
      <trkpt lat="45.55016" lon="6.76479">
        <ele>2019</ele>
        <time>2011-03-18T14:28:02.998Z</time>
      </trkpt>
      <trkpt lat="45.55008" lon="6.76416">
        <ele>2004</ele>
        <time>2011-03-18T14:28:15.999Z</time>
      </trkpt>
      <trkpt lat="45.55024" lon="6.76396">
        <ele>1983</ele>
        <time>2011-03-18T14:28:31.999Z</time>
      </trkpt>
      <trkpt lat="45.55028" lon="6.76389">
        <ele>1974</ele>
        <time>2011-03-18T14:28:47.999Z</time>
      </trkpt>
      <trkpt lat="45.55036" lon="6.76379">
        <ele>1958</ele>
        <time>2011-03-18T14:29:03.999Z</time>
      </trkpt>
      <trkpt lat="45.55036" lon="6.76379">
        <ele>1958</ele>
        <time>2011-03-18T14:29:19.999Z</time>
      </trkpt>
      <trkpt lat="45.55036" lon="6.76379">
        <ele>1958</ele>
        <time>2011-03-18T14:30:45.000Z</time>
      </trkpt>
      <trkpt lat="45.55037" lon="6.76379">
        <ele>1958</ele>
        <time>2011-03-18T14:31:01.999Z</time>
      </trkpt>
      <trkpt lat="45.55037" lon="6.76379">
        <ele>1958</ele>
        <time>2011-03-18T14:31:17.716Z</time>
      </trkpt>
      <trkpt lat="45.55037" lon="6.76379">
        <ele>1958</ele>
        <time>2011-03-18T14:31:44.000Z</time>
      </trkpt>
      <trkpt lat="45.55037" lon="6.76379">
        <ele>1958</ele>
        <time>2011-03-18T14:32:00.697Z</time>
      </trkpt>
      <trkpt lat="45.55037" lon="6.76379">
        <ele>1958</ele>
        <time>2011-03-18T14:32:28.000Z</time>
      </trkpt>
      <trkpt lat="45.54883" lon="6.73836">
        <ele>1842</ele>
        <time>2011-03-18T14:37:31.000Z</time>
      </trkpt>
      <trkpt lat="45.54872" lon="6.73829">
        <ele>1820</ele>
        <time>2011-03-18T14:37:46.717Z</time>
      </trkpt>
      <trkpt lat="45.54883" lon="6.73834">
        <ele>1793</ele>
        <time>2011-03-18T14:38:02.713Z</time>
      </trkpt>
      <trkpt lat="45.54885" lon="6.73842">
        <ele>1786</ele>
        <time>2011-03-18T14:38:18.000Z</time>
      </trkpt>
      <trkpt lat="45.54885" lon="6.73842">
        <ele>1779</ele>
        <time>2011-03-18T14:38:33.709Z</time>
      </trkpt>
      <trkpt lat="45.54885" lon="6.73842">
        <ele>1779</ele>
        <time>2011-03-18T14:38:48.724Z</time>
      </trkpt>
      <trkpt lat="45.54878" lon="6.73848">
        <ele>1766</ele>
        <time>2011-03-18T14:39:03.931Z</time>
      </trkpt>
      <trkpt lat="45.54879" lon="6.73845">
        <ele>1764</ele>
        <time>2011-03-18T14:39:19.730Z</time>
      </trkpt>
      <trkpt lat="45.54894" lon="6.73857">
        <ele>1719</ele>
        <time>2011-03-18T14:39:35.708Z</time>
      </trkpt>
      <trkpt lat="45.54904" lon="6.73859">
        <ele>1700</ele>
        <time>2011-03-18T14:39:50.999Z</time>
      </trkpt>
      <trkpt lat="45.54915" lon="6.73871">
        <ele>1664</ele>
        <time>2011-03-18T14:40:06.999Z</time>
      </trkpt>
      <trkpt lat="45.54915" lon="6.73871">
        <ele>1663</ele>
        <time>2011-03-18T14:40:22.999Z</time>
      </trkpt>
      <trkpt lat="45.54918" lon="6.73872">
        <ele>1662</ele>
        <time>2011-03-18T14:40:38.999Z</time>
      </trkpt>
      <trkpt lat="45.54912" lon="6.73845">
        <ele>1652</ele>
        <time>2011-03-18T14:40:54.788Z</time>
      </trkpt>
      <trkpt lat="45.54905" lon="6.73807">
        <ele>1645</ele>
        <time>2011-03-18T14:41:10.740Z</time>
      </trkpt>
      <trkpt lat="45.54897" lon="6.73767">
        <ele>1640</ele>
        <time>2011-03-18T14:41:26.721Z</time>
      </trkpt>
      <trkpt lat="45.54879" lon="6.73705">
        <ele>1637</ele>
        <time>2011-03-18T14:41:40.706Z</time>
      </trkpt>
      <trkpt lat="45.5487" lon="6.73633">
        <ele>1634</ele>
        <time>2011-03-18T14:41:50.999Z</time>
      </trkpt>
      <trkpt lat="45.54874" lon="6.73565">
        <ele>1632</ele>
        <time>2011-03-18T14:41:59.701Z</time>
      </trkpt>
      <trkpt lat="45.54901" lon="6.73514">
        <ele>1629</ele>
        <time>2011-03-18T14:42:07.892Z</time>
      </trkpt>
      <trkpt lat="45.54929" lon="6.73462">
        <ele>1628</ele>
        <time>2011-03-18T14:42:15.719Z</time>
      </trkpt>
      <trkpt lat="45.54956" lon="6.73404">
        <ele>1628</ele>
        <time>2011-03-18T14:42:24.997Z</time>
      </trkpt>
      <trkpt lat="45.54986" lon="6.73348">
        <ele>1626</ele>
        <time>2011-03-18T14:42:34.960Z</time>
      </trkpt>
      <trkpt lat="45.55028" lon="6.73338">
        <ele>1608</ele>
        <time>2011-03-18T14:42:50.704Z</time>
      </trkpt>
      <trkpt lat="45.55031" lon="6.73333">
        <ele>1604</ele>
        <time>2011-03-18T14:43:05.711Z</time>
      </trkpt>
      <trkpt lat="45.55065" lon="6.73281">
        <ele>1599</ele>
        <time>2011-03-18T14:43:17.999Z</time>
      </trkpt>
      <trkpt lat="45.55096" lon="6.73231">
        <ele>1597</ele>
        <time>2011-03-18T14:43:26.998Z</time>
      </trkpt>
      <trkpt lat="45.55115" lon="6.7317">
        <ele>1596</ele>
        <time>2011-03-18T14:43:34.778Z</time>
      </trkpt>
      <trkpt lat="45.5513" lon="6.73109">
        <ele>1595</ele>
        <time>2011-03-18T14:43:41.999Z</time>
      </trkpt>
      <trkpt lat="45.5514" lon="6.73041">
        <ele>1594</ele>
        <time>2011-03-18T14:43:49.768Z</time>
      </trkpt>
      <trkpt lat="45.55177" lon="6.73045">
        <ele>1578</ele>
        <time>2011-03-18T14:44:04.999Z</time>
      </trkpt>
      <trkpt lat="45.55208" lon="6.73099">
        <ele>1569</ele>
        <time>2011-03-18T14:44:15.787Z</time>
      </trkpt>
      <trkpt lat="45.55232" lon="6.73161">
        <ele>1559</ele>
        <time>2011-03-18T14:44:25.999Z</time>
      </trkpt>
      <trkpt lat="45.55257" lon="6.73202">
        <ele>1547</ele>
        <time>2011-03-18T14:44:41.984Z</time>
      </trkpt>
      <trkpt lat="45.55303" lon="6.73229">
        <ele>1540</ele>
        <time>2011-03-18T14:44:55.999Z</time>
      </trkpt>
      <trkpt lat="45.55315" lon="6.73207">
        <ele>1524</ele>
        <time>2011-03-18T14:45:11.999Z</time>
      </trkpt>
      <trkpt lat="45.55317" lon="6.73192">
        <ele>1516</ele>
        <time>2011-03-18T14:45:27.999Z</time>
      </trkpt>
      <trkpt lat="45.55319" lon="6.73184">
        <ele>1515</ele>
        <time>2011-03-18T14:45:43.999Z</time>
      </trkpt>
      <trkpt lat="45.5532" lon="6.73176">
        <ele>1511</ele>
        <time>2011-03-18T14:45:59.999Z</time>
      </trkpt>
      <trkpt lat="45.55323" lon="6.73171">
        <ele>1508</ele>
        <time>2011-03-18T14:46:15.990Z</time>
      </trkpt>
      <trkpt lat="45.55323" lon="6.73171">
        <ele>1508</ele>
        <time>2011-03-18T14:46:30.999Z</time>
      </trkpt>
      <trkpt lat="45.55323" lon="6.73171">
        <ele>1508</ele>
        <time>2011-03-18T14:46:46.999Z</time>
      </trkpt>
      <trkpt lat="45.55322" lon="6.73172">
        <ele>1508</ele>
        <time>2011-03-18T14:47:02.999Z</time>
      </trkpt>
      <trkpt lat="45.55322" lon="6.73172">
        <ele>1508</ele>
        <time>2011-03-18T14:47:18.900Z</time>
      </trkpt>
      <trkpt lat="45.55322" lon="6.73171">
        <ele>1508</ele>
        <time>2011-03-18T14:47:33.996Z</time>
      </trkpt>
      <trkpt lat="45.55277" lon="6.73138">
        <ele>1508</ele>
        <time>2011-03-18T14:47:48.999Z</time>
      </trkpt>
      <trkpt lat="45.5523" lon="6.73111">
        <ele>1511</ele>
        <time>2011-03-18T14:47:56.999Z</time>
      </trkpt>
      <trkpt lat="45.55188" lon="6.73088">
        <ele>1515</ele>
        <time>2011-03-18T14:48:05.999Z</time>
      </trkpt>
      <trkpt lat="45.55143" lon="6.73066">
        <ele>1516</ele>
        <time>2011-03-18T14:48:18.992Z</time>
      </trkpt>
      <trkpt lat="45.55099" lon="6.73048">
        <ele>1517</ele>
        <time>2011-03-18T14:48:29.960Z</time>
      </trkpt>
      <trkpt lat="45.55051" lon="6.73035">
        <ele>1518</ele>
        <time>2011-03-18T14:48:40.989Z</time>
      </trkpt>
      <trkpt lat="45.55003" lon="6.73021">
        <ele>1522</ele>
        <time>2011-03-18T14:48:51.860Z</time>
      </trkpt>
      <trkpt lat="45.54958" lon="6.73001">
        <ele>1526</ele>
        <time>2011-03-18T14:49:04.805Z</time>
      </trkpt>
      <trkpt lat="45.54913" lon="6.72978">
        <ele>1539</ele>
        <time>2011-03-18T14:49:13.826Z</time>
      </trkpt>
      <trkpt lat="45.54866" lon="6.72957">
        <ele>1562</ele>
        <time>2011-03-18T14:49:21.836Z</time>
      </trkpt>
      <trkpt lat="45.54819" lon="6.7294">
        <ele>1573</ele>
        <time>2011-03-18T14:49:32.706Z</time>
      </trkpt>
      <trkpt lat="45.54773" lon="6.72938">
        <ele>1576</ele>
        <time>2011-03-18T14:49:42.717Z</time>
      </trkpt>
      <trkpt lat="45.54728" lon="6.7293">
        <ele>1578</ele>
        <time>2011-03-18T14:49:51.709Z</time>
      </trkpt>
      <trkpt lat="45.54683" lon="6.72906">
        <ele>1583</ele>
        <time>2011-03-18T14:50:05.698Z</time>
      </trkpt>
      <trkpt lat="45.54639" lon="6.7289">
        <ele>1592</ele>
        <time>2011-03-18T14:50:15.999Z</time>
      </trkpt>
      <trkpt lat="45.54594" lon="6.72868">
        <ele>1608</ele>
        <time>2011-03-18T14:50:25.996Z</time>
      </trkpt>
      <trkpt lat="45.54551" lon="6.72835">
        <ele>1628</ele>
        <time>2011-03-18T14:50:37.999Z</time>
      </trkpt>
      <trkpt lat="45.54508" lon="6.72808">
        <ele>1639</ele>
        <time>2011-03-18T14:50:49.999Z</time>
      </trkpt>
      <trkpt lat="45.5448" lon="6.72756">
        <ele>1671</ele>
        <time>2011-03-18T14:51:01.999Z</time>
      </trkpt>
      <trkpt lat="45.54443" lon="6.72716">
        <ele>1699</ele>
        <time>2011-03-18T14:51:12.999Z</time>
      </trkpt>
      <trkpt lat="45.54405" lon="6.72679">
        <ele>1727</ele>
        <time>2011-03-18T14:51:22.998Z</time>
      </trkpt>
      <trkpt lat="45.54363" lon="6.72652">
        <ele>1743</ele>
        <time>2011-03-18T14:51:33.999Z</time>
      </trkpt>
      <trkpt lat="45.54322" lon="6.72625">
        <ele>1759</ele>
        <time>2011-03-18T14:51:44.996Z</time>
      </trkpt>
      <trkpt lat="45.54281" lon="6.72593">
        <ele>1774</ele>
        <time>2011-03-18T14:51:55.998Z</time>
      </trkpt>
      <trkpt lat="45.54237" lon="6.72569">
        <ele>1789</ele>
        <time>2011-03-18T14:52:06.999Z</time>
      </trkpt>
      <trkpt lat="45.54195" lon="6.72541">
        <ele>1801</ele>
        <time>2011-03-18T14:52:17.998Z</time>
      </trkpt>
      <trkpt lat="45.54152" lon="6.72508">
        <ele>1817</ele>
        <time>2011-03-18T14:52:30.999Z</time>
      </trkpt>
      <trkpt lat="45.54108" lon="6.72479">
        <ele>1826</ele>
        <time>2011-03-18T14:52:41.999Z</time>
      </trkpt>
      <trkpt lat="45.54065" lon="6.72449">
        <ele>1841</ele>
        <time>2011-03-18T14:52:53.999Z</time>
      </trkpt>
      <trkpt lat="45.54019" lon="6.72429">
        <ele>1845</ele>
        <time>2011-03-18T14:53:05.999Z</time>
      </trkpt>
      <trkpt lat="45.53972" lon="6.72414">
        <ele>1848</ele>
        <time>2011-03-18T14:53:17.999Z</time>
      </trkpt>
      <trkpt lat="45.53929" lon="6.72392">
        <ele>1854</ele>
        <time>2011-03-18T14:53:28.981Z</time>
      </trkpt>
      <trkpt lat="45.53896" lon="6.7239">
        <ele>1856</ele>
        <time>2011-03-18T14:53:49.999Z</time>
      </trkpt>
      <trkpt lat="45.53938" lon="6.72362">
        <ele>1859</ele>
        <time>2011-03-18T14:54:05.999Z</time>
      </trkpt>
      <trkpt lat="45.53939" lon="6.72355">
        <ele>1862</ele>
        <time>2011-03-18T14:54:21.999Z</time>
      </trkpt>
      <trkpt lat="45.53948" lon="6.72331">
        <ele>1897</ele>
        <time>2011-03-18T14:54:37.997Z</time>
      </trkpt>
      <trkpt lat="45.53945" lon="6.72334">
        <ele>1901</ele>
        <time>2011-03-18T14:54:52.999Z</time>
      </trkpt>
      <trkpt lat="45.53961" lon="6.72354">
        <ele>1900</ele>
        <time>2011-03-18T14:55:08.997Z</time>
      </trkpt>
      <trkpt lat="45.53986" lon="6.72407">
        <ele>1899</ele>
        <time>2011-03-18T14:55:18.997Z</time>
      </trkpt>
      <trkpt lat="45.54018" lon="6.72454">
        <ele>1899</ele>
        <time>2011-03-18T14:55:24.999Z</time>
      </trkpt>
      <trkpt lat="45.54059" lon="6.72495">
        <ele>1899</ele>
        <time>2011-03-18T14:55:29.999Z</time>
      </trkpt>
      <trkpt lat="45.54104" lon="6.72511">
        <ele>1899</ele>
        <time>2011-03-18T14:55:34.999Z</time>
      </trkpt>
      <trkpt lat="45.54121" lon="6.72496">
        <ele>1885</ele>
        <time>2011-03-18T14:55:50.998Z</time>
      </trkpt>
      <trkpt lat="45.54119" lon="6.7249">
        <ele>1882</ele>
        <time>2011-03-18T14:56:06.999Z</time>
      </trkpt>
      <trkpt lat="45.54116" lon="6.7249">
        <ele>1882</ele>
        <time>2011-03-18T14:56:22.999Z</time>
      </trkpt>
      <trkpt lat="45.54088" lon="6.72486">
        <ele>1883</ele>
        <time>2011-03-18T14:56:38.999Z</time>
      </trkpt>
      <trkpt lat="45.54042" lon="6.7248">
        <ele>1889</ele>
        <time>2011-03-18T14:56:51.998Z</time>
      </trkpt>
      <trkpt lat="45.53997" lon="6.72475">
        <ele>1897</ele>
        <time>2011-03-18T14:57:05.991Z</time>
      </trkpt>
      <trkpt lat="45.53949" lon="6.72472">
        <ele>1909</ele>
        <time>2011-03-18T14:57:19.873Z</time>
      </trkpt>
      <trkpt lat="45.53903" lon="6.72471">
        <ele>1924</ele>
        <time>2011-03-18T14:57:34.698Z</time>
      </trkpt>
      <trkpt lat="45.53858" lon="6.72469">
        <ele>1937</ele>
        <time>2011-03-18T14:57:48.700Z</time>
      </trkpt>
      <trkpt lat="45.53812" lon="6.72466">
        <ele>1955</ele>
        <time>2011-03-18T14:58:03.702Z</time>
      </trkpt>
      <trkpt lat="45.5377" lon="6.72465">
        <ele>1973</ele>
        <time>2011-03-18T14:58:18.713Z</time>
      </trkpt>
      <trkpt lat="45.53728" lon="6.72466">
        <ele>1989</ele>
        <time>2011-03-18T14:58:34.998Z</time>
      </trkpt>
      <trkpt lat="45.53689" lon="6.72472">
        <ele>2003</ele>
        <time>2011-03-18T14:58:50.999Z</time>
      </trkpt>
      <trkpt lat="45.53644" lon="6.72462">
        <ele>2036</ele>
        <time>2011-03-18T14:59:06.999Z</time>
      </trkpt>
      <trkpt lat="45.53599" lon="6.72452">
        <ele>2065</ele>
        <time>2011-03-18T14:59:20.979Z</time>
      </trkpt>
      <trkpt lat="45.53554" lon="6.72445">
        <ele>2093</ele>
        <time>2011-03-18T14:59:35.999Z</time>
      </trkpt>
      <trkpt lat="45.53506" lon="6.72441">
        <ele>2122</ele>
        <time>2011-03-18T14:59:51.999Z</time>
      </trkpt>
      <trkpt lat="45.53459" lon="6.72437">
        <ele>2147</ele>
        <time>2011-03-18T15:00:06.999Z</time>
      </trkpt>
      <trkpt lat="45.53413" lon="6.72432">
        <ele>2170</ele>
        <time>2011-03-18T15:00:20.999Z</time>
      </trkpt>
      <trkpt lat="45.53366" lon="6.72429">
        <ele>2180</ele>
        <time>2011-03-18T15:00:33.999Z</time>
      </trkpt>
      <trkpt lat="45.53318" lon="6.72429">
        <ele>2185</ele>
        <time>2011-03-18T15:00:47.998Z</time>
      </trkpt>
      <trkpt lat="45.53272" lon="6.7241">
        <ele>2209</ele>
        <time>2011-03-18T15:00:59.976Z</time>
      </trkpt>
      <trkpt lat="45.53226" lon="6.72399">
        <ele>2224</ele>
        <time>2011-03-18T15:01:12.875Z</time>
      </trkpt>
      <trkpt lat="45.53179" lon="6.72392">
        <ele>2238</ele>
        <time>2011-03-18T15:01:26.727Z</time>
      </trkpt>
      <trkpt lat="45.53133" lon="6.72385">
        <ele>2250</ele>
        <time>2011-03-18T15:01:40.719Z</time>
      </trkpt>
      <trkpt lat="45.53087" lon="6.72378">
        <ele>2263</ele>
        <time>2011-03-18T15:01:54.695Z</time>
      </trkpt>
      <trkpt lat="45.53042" lon="6.72372">
        <ele>2275</ele>
        <time>2011-03-18T15:02:07.972Z</time>
      </trkpt>
      <trkpt lat="45.52996" lon="6.72368">
        <ele>2286</ele>
        <time>2011-03-18T15:02:21.755Z</time>
      </trkpt>
      <trkpt lat="45.52948" lon="6.72362">
        <ele>2295</ele>
        <time>2011-03-18T15:02:35.726Z</time>
      </trkpt>
      <trkpt lat="45.52901" lon="6.72357">
        <ele>2303</ele>
        <time>2011-03-18T15:02:49.715Z</time>
      </trkpt>
      <trkpt lat="45.52855" lon="6.72351">
        <ele>2308</ele>
        <time>2011-03-18T15:03:03.997Z</time>
      </trkpt>
      <trkpt lat="45.52818" lon="6.72347">
        <ele>2313</ele>
        <time>2011-03-18T15:03:19.000Z</time>
      </trkpt>
      <trkpt lat="45.5279" lon="6.72321">
        <ele>2318</ele>
        <time>2011-03-18T15:03:34.999Z</time>
      </trkpt>
      <trkpt lat="45.52786" lon="6.72323">
        <ele>2322</ele>
        <time>2011-03-18T15:03:50.758Z</time>
      </trkpt>
      <trkpt lat="45.52782" lon="6.72325">
        <ele>2327</ele>
        <time>2011-03-18T15:04:06.000Z</time>
      </trkpt>
      <trkpt lat="45.52781" lon="6.72326">
        <ele>2329</ele>
        <time>2011-03-18T15:04:21.777Z</time>
      </trkpt>
      <trkpt lat="45.52776" lon="6.72327">
        <ele>2329</ele>
        <time>2011-03-18T15:04:37.711Z</time>
      </trkpt>
      <trkpt lat="45.52737" lon="6.72321">
        <ele>2321</ele>
        <time>2011-03-18T15:04:52.715Z</time>
      </trkpt>
      <trkpt lat="45.52697" lon="6.72291">
        <ele>2320</ele>
        <time>2011-03-18T15:05:01.716Z</time>
      </trkpt>
      <trkpt lat="45.52647" lon="6.72293">
        <ele>2319</ele>
        <time>2011-03-18T15:05:11.706Z</time>
      </trkpt>
      <trkpt lat="45.52602" lon="6.72304">
        <ele>2311</ele>
        <time>2011-03-18T15:05:20.693Z</time>
      </trkpt>
      <trkpt lat="45.52557" lon="6.72282">
        <ele>2308</ele>
        <time>2011-03-18T15:05:27.994Z</time>
      </trkpt>
      <trkpt lat="45.52508" lon="6.72298">
        <ele>2300</ele>
        <time>2011-03-18T15:05:35.708Z</time>
      </trkpt>
      <trkpt lat="45.52494" lon="6.72329">
        <ele>2287</ele>
        <time>2011-03-18T15:05:51.718Z</time>
      </trkpt>
      <trkpt lat="45.52447" lon="6.72368">
        <ele>2276</ele>
        <time>2011-03-18T15:06:05.995Z</time>
      </trkpt>
      <trkpt lat="45.52409" lon="6.72407">
        <ele>2272</ele>
        <time>2011-03-18T15:06:10.729Z</time>
      </trkpt>
      <trkpt lat="45.52382" lon="6.72464">
        <ele>2261</ele>
        <time>2011-03-18T15:06:15.709Z</time>
      </trkpt>
      <trkpt lat="45.52382" lon="6.72533">
        <ele>2254</ele>
        <time>2011-03-18T15:06:21.721Z</time>
      </trkpt>
      <trkpt lat="45.52386" lon="6.72606">
        <ele>2247</ele>
        <time>2011-03-18T15:06:28.786Z</time>
      </trkpt>
      <trkpt lat="45.52384" lon="6.72671">
        <ele>2239</ele>
        <time>2011-03-18T15:06:36.000Z</time>
      </trkpt>
      <trkpt lat="45.52379" lon="6.72739">
        <ele>2222</ele>
        <time>2011-03-18T15:06:50.754Z</time>
      </trkpt>
      <trkpt lat="45.52385" lon="6.72807">
        <ele>2212</ele>
        <time>2011-03-18T15:07:01.748Z</time>
      </trkpt>
      <trkpt lat="45.52361" lon="6.72864">
        <ele>2201</ele>
        <time>2011-03-18T15:07:09.699Z</time>
      </trkpt>
      <trkpt lat="45.52336" lon="6.72927">
        <ele>2189</ele>
        <time>2011-03-18T15:07:16.708Z</time>
      </trkpt>
      <trkpt lat="45.5229" lon="6.72943">
        <ele>2173</ele>
        <time>2011-03-18T15:07:24.715Z</time>
      </trkpt>
      <trkpt lat="45.52303" lon="6.73021">
        <ele>2165</ele>
        <time>2011-03-18T15:07:30.712Z</time>
      </trkpt>
      <trkpt lat="45.5231" lon="6.73038">
        <ele>2149</ele>
        <time>2011-03-18T15:07:45.999Z</time>
      </trkpt>
      <trkpt lat="45.52304" lon="6.73035">
        <ele>2140</ele>
        <time>2011-03-18T15:08:01.721Z</time>
      </trkpt>
      <trkpt lat="45.52305" lon="6.73035">
        <ele>2139</ele>
        <time>2011-03-18T15:08:17.714Z</time>
      </trkpt>
      <trkpt lat="45.52305" lon="6.73033">
        <ele>2136</ele>
        <time>2011-03-18T15:08:32.997Z</time>
      </trkpt>
      <trkpt lat="45.52299" lon="6.73017">
        <ele>2130</ele>
        <time>2011-03-18T15:08:48.697Z</time>
      </trkpt>
      <trkpt lat="45.52283" lon="6.72981">
        <ele>2127</ele>
        <time>2011-03-18T15:09:03.706Z</time>
      </trkpt>
      <trkpt lat="45.52264" lon="6.72945">
        <ele>2130</ele>
        <time>2011-03-18T15:09:19.000Z</time>
      </trkpt>
      <trkpt lat="45.52247" lon="6.72909">
        <ele>2134</ele>
        <time>2011-03-18T15:09:34.714Z</time>
      </trkpt>
      <trkpt lat="45.52234" lon="6.72878">
        <ele>2135</ele>
        <time>2011-03-18T15:09:50.695Z</time>
      </trkpt>
      <trkpt lat="45.5222" lon="6.72847">
        <ele>2137</ele>
        <time>2011-03-18T15:10:05.835Z</time>
      </trkpt>
      <trkpt lat="45.52203" lon="6.72812">
        <ele>2141</ele>
        <time>2011-03-18T15:10:21.770Z</time>
      </trkpt>
      <trkpt lat="45.52189" lon="6.72781">
        <ele>2143</ele>
        <time>2011-03-18T15:10:37.701Z</time>
      </trkpt>
      <trkpt lat="45.52172" lon="6.72749">
        <ele>2148</ele>
        <time>2011-03-18T15:10:52.706Z</time>
      </trkpt>
      <trkpt lat="45.52156" lon="6.72715">
        <ele>2157</ele>
        <time>2011-03-18T15:11:07.999Z</time>
      </trkpt>
      <trkpt lat="45.52139" lon="6.72681">
        <ele>2164</ele>
        <time>2011-03-18T15:11:23.714Z</time>
      </trkpt>
      <trkpt lat="45.52124" lon="6.72649">
        <ele>2173</ele>
        <time>2011-03-18T15:11:39.693Z</time>
      </trkpt>
      <trkpt lat="45.52113" lon="6.72625">
        <ele>2181</ele>
        <time>2011-03-18T15:11:54.707Z</time>
      </trkpt>
      <trkpt lat="45.52105" lon="6.72601">
        <ele>2195</ele>
        <time>2011-03-18T15:12:10.702Z</time>
      </trkpt>
      <trkpt lat="45.52097" lon="6.72581">
        <ele>2205</ele>
        <time>2011-03-18T15:12:25.997Z</time>
      </trkpt>
      <trkpt lat="45.52083" lon="6.7255">
        <ele>2212</ele>
        <time>2011-03-18T15:12:41.707Z</time>
      </trkpt>
      <trkpt lat="45.52069" lon="6.72522">
        <ele>2220</ele>
        <time>2011-03-18T15:12:57.691Z</time>
      </trkpt>
      <trkpt lat="45.52054" lon="6.72489">
        <ele>2223</ele>
        <time>2011-03-18T15:13:13.000Z</time>
      </trkpt>
      <trkpt lat="45.5204" lon="6.72459">
        <ele>2229</ele>
        <time>2011-03-18T15:13:28.701Z</time>
      </trkpt>
      <trkpt lat="45.52024" lon="6.72427">
        <ele>2237</ele>
        <time>2011-03-18T15:13:44.687Z</time>
      </trkpt>
      <trkpt lat="45.52006" lon="6.72394">
        <ele>2246</ele>
        <time>2011-03-18T15:13:59.725Z</time>
      </trkpt>
      <trkpt lat="45.51991" lon="6.72361">
        <ele>2254</ele>
        <time>2011-03-18T15:14:15.723Z</time>
      </trkpt>
      <trkpt lat="45.51977" lon="6.72331">
        <ele>2260</ele>
        <time>2011-03-18T15:14:30.999Z</time>
      </trkpt>
      <trkpt lat="45.5196" lon="6.72297">
        <ele>2267</ele>
        <time>2011-03-18T15:14:46.692Z</time>
      </trkpt>
      <trkpt lat="45.51945" lon="6.72264">
        <ele>2275</ele>
        <time>2011-03-18T15:15:01.727Z</time>
      </trkpt>
      <trkpt lat="45.51932" lon="6.7223">
        <ele>2282</ele>
        <time>2011-03-18T15:15:17.703Z</time>
      </trkpt>
      <trkpt lat="45.51918" lon="6.72198">
        <ele>2285</ele>
        <time>2011-03-18T15:15:32.934Z</time>
      </trkpt>
      <trkpt lat="45.519" lon="6.72164">
        <ele>2287</ele>
        <time>2011-03-18T15:15:48.690Z</time>
      </trkpt>
      <trkpt lat="45.51881" lon="6.72128">
        <ele>2294</ele>
        <time>2011-03-18T15:16:03.938Z</time>
      </trkpt>
      <trkpt lat="45.51861" lon="6.72096">
        <ele>2303</ele>
        <time>2011-03-18T15:16:18.999Z</time>
      </trkpt>
      <trkpt lat="45.51846" lon="6.72061">
        <ele>2312</ele>
        <time>2011-03-18T15:16:34.936Z</time>
      </trkpt>
      <trkpt lat="45.51832" lon="6.72027">
        <ele>2317</ele>
        <time>2011-03-18T15:16:49.985Z</time>
      </trkpt>
      <trkpt lat="45.51815" lon="6.71995">
        <ele>2322</ele>
        <time>2011-03-18T15:17:05.690Z</time>
      </trkpt>
      <trkpt lat="45.51803" lon="6.71966">
        <ele>2330</ele>
        <time>2011-03-18T15:17:20.700Z</time>
      </trkpt>
      <trkpt lat="45.51798" lon="6.71938">
        <ele>2350</ele>
        <time>2011-03-18T15:17:35.726Z</time>
      </trkpt>
      <trkpt lat="45.51777" lon="6.71908">
        <ele>2361</ele>
        <time>2011-03-18T15:17:51.707Z</time>
      </trkpt>
      <trkpt lat="45.51749" lon="6.71878">
        <ele>2382</ele>
        <time>2011-03-18T15:18:06.999Z</time>
      </trkpt>
      <trkpt lat="45.51744" lon="6.71875">
        <ele>2393</ele>
        <time>2011-03-18T15:18:22.995Z</time>
      </trkpt>
      <trkpt lat="45.51745" lon="6.71872">
        <ele>2398</ele>
        <time>2011-03-18T15:18:38.999Z</time>
      </trkpt>
      <trkpt lat="45.51747" lon="6.7187">
        <ele>2399</ele>
        <time>2011-03-18T15:18:54.999Z</time>
      </trkpt>
      <trkpt lat="45.51766" lon="6.71856">
        <ele>2398</ele>
        <time>2011-03-18T15:19:10.999Z</time>
      </trkpt>
      <trkpt lat="45.51813" lon="6.71835">
        <ele>2396</ele>
        <time>2011-03-18T15:19:23.999Z</time>
      </trkpt>
      <trkpt lat="45.51871" lon="6.71837">
        <ele>2395</ele>
        <time>2011-03-18T15:19:30.999Z</time>
      </trkpt>
      <trkpt lat="45.51918" lon="6.71837">
        <ele>2394</ele>
        <time>2011-03-18T15:19:34.999Z</time>
      </trkpt>
      <trkpt lat="45.51965" lon="6.7182">
        <ele>2392</ele>
        <time>2011-03-18T15:19:38.998Z</time>
      </trkpt>
      <trkpt lat="45.52006" lon="6.71785">
        <ele>2392</ele>
        <time>2011-03-18T15:19:42.997Z</time>
      </trkpt>
      <trkpt lat="45.52038" lon="6.71736">
        <ele>2392</ele>
        <time>2011-03-18T15:19:46.999Z</time>
      </trkpt>
      <trkpt lat="45.52067" lon="6.71677">
        <ele>2391</ele>
        <time>2011-03-18T15:19:51.999Z</time>
      </trkpt>
      <trkpt lat="45.5204" lon="6.71611">
        <ele>2384</ele>
        <time>2011-03-18T15:20:04.984Z</time>
      </trkpt>
      <trkpt lat="45.51999" lon="6.71565">
        <ele>2381</ele>
        <time>2011-03-18T15:20:09.999Z</time>
      </trkpt>
      <trkpt lat="45.51961" lon="6.71521">
        <ele>2379</ele>
        <time>2011-03-18T15:20:14.998Z</time>
      </trkpt>
      <trkpt lat="45.51915" lon="6.71489">
        <ele>2376</ele>
        <time>2011-03-18T15:20:21.999Z</time>
      </trkpt>
      <trkpt lat="45.51865" lon="6.71475">
        <ele>2373</ele>
        <time>2011-03-18T15:20:29.999Z</time>
      </trkpt>
      <trkpt lat="45.51819" lon="6.71468">
        <ele>2370</ele>
        <time>2011-03-18T15:20:44.933Z</time>
      </trkpt>
      <trkpt lat="45.5177" lon="6.71462">
        <ele>2367</ele>
        <time>2011-03-18T15:20:54.705Z</time>
      </trkpt>
      <trkpt lat="45.51775" lon="6.71474">
        <ele>2352</ele>
        <time>2011-03-18T15:21:10.683Z</time>
      </trkpt>
      <trkpt lat="45.51776" lon="6.71479">
        <ele>2350</ele>
        <time>2011-03-18T15:21:25.689Z</time>
      </trkpt>
      <trkpt lat="45.51778" lon="6.71482">
        <ele>2348</ele>
        <time>2011-03-18T15:21:41.000Z</time>
      </trkpt>
      <trkpt lat="45.5178" lon="6.71483">
        <ele>2345</ele>
        <time>2011-03-18T15:21:56.707Z</time>
      </trkpt>
      <trkpt lat="45.51784" lon="6.71481">
        <ele>2343</ele>
        <time>2011-03-18T15:22:12.999Z</time>
      </trkpt>
      <trkpt lat="45.51785" lon="6.71481">
        <ele>2341</ele>
        <time>2011-03-18T15:22:28.706Z</time>
      </trkpt>
      <trkpt lat="45.51785" lon="6.71482">
        <ele>2339</ele>
        <time>2011-03-18T15:22:43.715Z</time>
      </trkpt>
      <trkpt lat="45.51739" lon="6.7146">
        <ele>2334</ele>
        <time>2011-03-18T15:22:56.999Z</time>
      </trkpt>
      <trkpt lat="45.51703" lon="6.71416">
        <ele>2333</ele>
        <time>2011-03-18T15:23:05.688Z</time>
      </trkpt>
      <trkpt lat="45.51683" lon="6.71354">
        <ele>2332</ele>
        <time>2011-03-18T15:23:12.710Z</time>
      </trkpt>
      <trkpt lat="45.51667" lon="6.71294">
        <ele>2330</ele>
        <time>2011-03-18T15:23:18.713Z</time>
      </trkpt>
      <trkpt lat="45.51648" lon="6.71228">
        <ele>2327</ele>
        <time>2011-03-18T15:23:25.692Z</time>
      </trkpt>
      <trkpt lat="45.51629" lon="6.71164">
        <ele>2324</ele>
        <time>2011-03-18T15:23:31.999Z</time>
      </trkpt>
      <trkpt lat="45.51614" lon="6.71099">
        <ele>2321</ele>
        <time>2011-03-18T15:23:37.000Z</time>
      </trkpt>
      <trkpt lat="45.51574" lon="6.71049">
        <ele>2318</ele>
        <time>2011-03-18T15:23:44.729Z</time>
      </trkpt>
      <trkpt lat="45.51532" lon="6.71017">
        <ele>2316</ele>
        <time>2011-03-18T15:23:49.689Z</time>
      </trkpt>
      <trkpt lat="45.51484" lon="6.7098">
        <ele>2314</ele>
        <time>2011-03-18T15:23:54.708Z</time>
      </trkpt>
      <trkpt lat="45.51438" lon="6.70937">
        <ele>2312</ele>
        <time>2011-03-18T15:23:59.691Z</time>
      </trkpt>
      <trkpt lat="45.51395" lon="6.70899">
        <ele>2310</ele>
        <time>2011-03-18T15:24:04.686Z</time>
      </trkpt>
      <trkpt lat="45.51356" lon="6.70857">
        <ele>2307</ele>
        <time>2011-03-18T15:24:09.999Z</time>
      </trkpt>
      <trkpt lat="45.51312" lon="6.70818">
        <ele>2305</ele>
        <time>2011-03-18T15:24:14.000Z</time>
      </trkpt>
      <trkpt lat="45.51271" lon="6.70774">
        <ele>2303</ele>
        <time>2011-03-18T15:24:19.709Z</time>
      </trkpt>
      <trkpt lat="45.5124" lon="6.70729">
        <ele>2301</ele>
        <time>2011-03-18T15:24:25.689Z</time>
      </trkpt>
      <trkpt lat="45.51207" lon="6.70677">
        <ele>2300</ele>
        <time>2011-03-18T15:24:32.696Z</time>
      </trkpt>
      <trkpt lat="45.51167" lon="6.70646">
        <ele>2296</ele>
        <time>2011-03-18T15:24:39.696Z</time>
      </trkpt>
      <trkpt lat="45.51123" lon="6.70623">
        <ele>2294</ele>
        <time>2011-03-18T15:24:46.926Z</time>
      </trkpt>
      <trkpt lat="45.51078" lon="6.70593">
        <ele>2290</ele>
        <time>2011-03-18T15:24:54.707Z</time>
      </trkpt>
      <trkpt lat="45.51032" lon="6.70566">
        <ele>2286</ele>
        <time>2011-03-18T15:25:02.683Z</time>
      </trkpt>
      <trkpt lat="45.51001" lon="6.70512">
        <ele>2281</ele>
        <time>2011-03-18T15:25:14.944Z</time>
      </trkpt>
      <trkpt lat="45.50994" lon="6.70446">
        <ele>2276</ele>
        <time>2011-03-18T15:25:26.686Z</time>
      </trkpt>
      <trkpt lat="45.51015" lon="6.70385">
        <ele>2262</ele>
        <time>2011-03-18T15:25:37.999Z</time>
      </trkpt>
      <trkpt lat="45.51104" lon="6.70168">
        <ele>2244</ele>
        <time>2011-03-18T15:26:27.000Z</time>
      </trkpt>
      <trkpt lat="45.51101" lon="6.70101">
        <ele>2242</ele>
        <time>2011-03-18T15:26:34.893Z</time>
      </trkpt>
      <trkpt lat="45.51117" lon="6.7004">
        <ele>2240</ele>
        <time>2011-03-18T15:26:40.894Z</time>
      </trkpt>
      <trkpt lat="45.51129" lon="6.69976">
        <ele>2237</ele>
        <time>2011-03-18T15:26:48.684Z</time>
      </trkpt>
      <trkpt lat="45.51182" lon="6.69886">
        <ele>2224</ele>
        <time>2011-03-18T15:26:59.000Z</time>
      </trkpt>
      <trkpt lat="45.51221" lon="6.69841">
        <ele>2212</ele>
        <time>2011-03-18T15:27:03.731Z</time>
      </trkpt>
      <trkpt lat="45.51231" lon="6.69818">
        <ele>2185</ele>
        <time>2011-03-18T15:27:19.000Z</time>
      </trkpt>
      <trkpt lat="45.51231" lon="6.69818">
        <ele>2184</ele>
        <time>2011-03-18T15:27:34.723Z</time>
      </trkpt>
      <trkpt lat="45.51218" lon="6.69814">
        <ele>2168</ele>
        <time>2011-03-18T15:27:50.705Z</time>
      </trkpt>
      <trkpt lat="45.51218" lon="6.69814">
        <ele>2146</ele>
        <time>2011-03-18T15:28:05.989Z</time>
      </trkpt>
      <trkpt lat="45.51217" lon="6.69815">
        <ele>2142</ele>
        <time>2011-03-18T15:28:20.992Z</time>
      </trkpt>
      <trkpt lat="45.51209" lon="6.69814">
        <ele>2128</ele>
        <time>2011-03-18T15:28:36.000Z</time>
      </trkpt>
      <trkpt lat="45.51207" lon="6.69814">
        <ele>2126</ele>
        <time>2011-03-18T15:28:51.999Z</time>
      </trkpt>
      <trkpt lat="45.51207" lon="6.69814">
        <ele>2126</ele>
        <time>2011-03-18T15:29:07.999Z</time>
      </trkpt>
      <trkpt lat="45.51209" lon="6.69818">
        <ele>2110</ele>
        <time>2011-03-18T15:29:23.999Z</time>
      </trkpt>
      <trkpt lat="45.51208" lon="6.69816">
        <ele>2103</ele>
        <time>2011-03-18T15:29:39.999Z</time>
      </trkpt>
      <trkpt lat="45.51207" lon="6.69814">
        <ele>2093</ele>
        <time>2011-03-18T15:29:55.999Z</time>
      </trkpt>
      <trkpt lat="45.51207" lon="6.69815">
        <ele>2092</ele>
        <time>2011-03-18T15:30:11.999Z</time>
      </trkpt>
      <trkpt lat="45.51206" lon="6.69813">
        <ele>2086</ele>
        <time>2011-03-18T15:30:27.996Z</time>
      </trkpt>
      <trkpt lat="45.51206" lon="6.69814">
        <ele>2084</ele>
        <time>2011-03-18T15:30:43.728Z</time>
      </trkpt>
      <trkpt lat="45.51205" lon="6.69813">
        <ele>2073</ele>
        <time>2011-03-18T15:30:58.731Z</time>
      </trkpt>
      <trkpt lat="45.51204" lon="6.69811">
        <ele>2068</ele>
        <time>2011-03-18T15:31:14.696Z</time>
      </trkpt>
      <trkpt lat="45.51201" lon="6.69812">
        <ele>2049</ele>
        <time>2011-03-18T15:31:30.692Z</time>
      </trkpt>
      <trkpt lat="45.512" lon="6.6981">
        <ele>2042</ele>
        <time>2011-03-18T15:31:45.807Z</time>
      </trkpt>
      <trkpt lat="45.512" lon="6.69811">
        <ele>2035</ele>
        <time>2011-03-18T15:32:01.706Z</time>
      </trkpt>
      <trkpt lat="45.512" lon="6.69811">
        <ele>2035</ele>
        <time>2011-03-18T15:32:17.712Z</time>
      </trkpt>
      <trkpt lat="45.512" lon="6.69811">
        <ele>2035</ele>
        <time>2011-03-18T15:32:32.999Z</time>
      </trkpt>
      <trkpt lat="45.51201" lon="6.69811">
        <ele>2034</ele>
        <time>2011-03-18T15:32:48.688Z</time>
      </trkpt>
      <trkpt lat="45.51198" lon="6.69809">
        <ele>2031</ele>
        <time>2011-03-18T15:33:03.691Z</time>
      </trkpt>
      <trkpt lat="45.51198" lon="6.69807">
        <ele>2024</ele>
        <time>2011-03-18T15:33:19.689Z</time>
      </trkpt>
      <trkpt lat="45.51199" lon="6.69808">
        <ele>2024</ele>
        <time>2011-03-18T15:33:35.695Z</time>
      </trkpt>
      <trkpt lat="45.51199" lon="6.6981">
        <ele>2016</ele>
        <time>2011-03-18T15:33:50.997Z</time>
      </trkpt>
      <trkpt lat="45.51197" lon="6.69809">
        <ele>2013</ele>
        <time>2011-03-18T15:34:05.999Z</time>
      </trkpt>
      <trkpt lat="45.51201" lon="6.69813">
        <ele>2011</ele>
        <time>2011-03-18T15:34:21.999Z</time>
      </trkpt>
      <trkpt lat="45.51201" lon="6.69813">
        <ele>2007</ele>
        <time>2011-03-18T15:34:37.999Z</time>
      </trkpt>
      <trkpt lat="45.512" lon="6.69812">
        <ele>2007</ele>
        <time>2011-03-18T15:34:53.999Z</time>
      </trkpt>
      <trkpt lat="45.512" lon="6.69811">
        <ele>2005</ele>
        <time>2011-03-18T15:35:09.999Z</time>
      </trkpt>
      <trkpt lat="45.512" lon="6.69811">
        <ele>2005</ele>
        <time>2011-03-18T15:35:25.994Z</time>
      </trkpt>
      <trkpt lat="45.51195" lon="6.69807">
        <ele>2002</ele>
        <time>2011-03-18T15:35:40.997Z</time>
      </trkpt>
      <trkpt lat="45.51195" lon="6.69807">
        <ele>2002</ele>
        <time>2011-03-18T15:35:56.995Z</time>
      </trkpt>
      <trkpt lat="45.51194" lon="6.69807">
        <ele>2003</ele>
        <time>2011-03-18T15:36:12.999Z</time>
      </trkpt>
      <trkpt lat="45.51193" lon="6.69807">
        <ele>2003</ele>
        <time>2011-03-18T15:36:28.992Z</time>
      </trkpt>
      <trkpt lat="45.5119" lon="6.69806">
        <ele>2001</ele>
        <time>2011-03-18T15:36:44.694Z</time>
      </trkpt>
      <trkpt lat="45.5119" lon="6.69804">
        <ele>1999</ele>
        <time>2011-03-18T15:36:59.703Z</time>
      </trkpt>
      <trkpt lat="45.51188" lon="6.69802">
        <ele>1999</ele>
        <time>2011-03-18T15:37:14.709Z</time>
      </trkpt>
      <trkpt lat="45.51188" lon="6.698">
        <ele>1999</ele>
        <time>2011-03-18T15:37:29.730Z</time>
      </trkpt>
      <trkpt lat="45.51187" lon="6.698">
        <ele>1998</ele>
        <time>2011-03-18T15:37:45.699Z</time>
      </trkpt>
      <trkpt lat="45.51184" lon="6.69797">
        <ele>1998</ele>
        <time>2011-03-18T15:38:01.717Z</time>
      </trkpt>
      <trkpt lat="45.51182" lon="6.69795">
        <ele>1999</ele>
        <time>2011-03-18T15:38:17.690Z</time>
      </trkpt>
      <trkpt lat="45.5118" lon="6.69796">
        <ele>1996</ele>
        <time>2011-03-18T15:38:33.000Z</time>
      </trkpt>
      <trkpt lat="45.51178" lon="6.69795">
        <ele>1997</ele>
        <time>2011-03-18T15:38:48.704Z</time>
      </trkpt>
      <trkpt lat="45.51177" lon="6.69793">
        <ele>1997</ele>
        <time>2011-03-18T15:39:03.999Z</time>
      </trkpt>
      <trkpt lat="45.51177" lon="6.69793">
        <ele>1997</ele>
        <time>2011-03-18T15:39:19.999Z</time>
      </trkpt>
      <trkpt lat="45.51174" lon="6.6979">
        <ele>1996</ele>
        <time>2011-03-18T15:39:35.997Z</time>
      </trkpt>
      <trkpt lat="45.51169" lon="6.69786">
        <ele>1995</ele>
        <time>2011-03-18T15:39:51.999Z</time>
      </trkpt>
      <trkpt lat="45.51125" lon="6.69768">
        <ele>1996</ele>
        <time>2011-03-18T15:40:01.704Z</time>
      </trkpt>
      <trkpt lat="45.51082" lon="6.69748">
        <ele>2000</ele>
        <time>2011-03-18T15:40:11.987Z</time>
      </trkpt>
      <trkpt lat="45.51037" lon="6.69724">
        <ele>2005</ele>
        <time>2011-03-18T15:40:24.999Z</time>
      </trkpt>
      <trkpt lat="45.50994" lon="6.69704">
        <ele>2007</ele>
        <time>2011-03-18T15:40:37.760Z</time>
      </trkpt>
      <trkpt lat="45.50948" lon="6.69688">
        <ele>2019</ele>
        <time>2011-03-18T15:40:51.694Z</time>
      </trkpt>
      <trkpt lat="45.50907" lon="6.69658">
        <ele>2029</ele>
        <time>2011-03-18T15:41:04.702Z</time>
      </trkpt>
      <trkpt lat="45.50859" lon="6.69653">
        <ele>2051</ele>
        <time>2011-03-18T15:41:17.999Z</time>
      </trkpt>
      <trkpt lat="45.5081" lon="6.69646">
        <ele>2077</ele>
        <time>2011-03-18T15:41:30.708Z</time>
      </trkpt>
      <trkpt lat="45.50763" lon="6.69637">
        <ele>2097</ele>
        <time>2011-03-18T15:41:42.694Z</time>
      </trkpt>
      <trkpt lat="45.50717" lon="6.69625">
        <ele>2107</ele>
        <time>2011-03-18T15:41:54.998Z</time>
      </trkpt>
      <trkpt lat="45.5067" lon="6.69612">
        <ele>2120</ele>
        <time>2011-03-18T15:42:06.729Z</time>
      </trkpt>
      <trkpt lat="45.50623" lon="6.69597">
        <ele>2130</ele>
        <time>2011-03-18T15:42:18.000Z</time>
      </trkpt>
      <trkpt lat="45.50577" lon="6.69587">
        <ele>2136</ele>
        <time>2011-03-18T15:42:30.000Z</time>
      </trkpt>
      <trkpt lat="45.5053" lon="6.69575">
        <ele>2146</ele>
        <time>2011-03-18T15:42:43.750Z</time>
      </trkpt>
      <trkpt lat="45.50485" lon="6.69564">
        <ele>2150</ele>
        <time>2011-03-18T15:42:55.678Z</time>
      </trkpt>
      <trkpt lat="45.50439" lon="6.69551">
        <ele>2156</ele>
        <time>2011-03-18T15:43:07.701Z</time>
      </trkpt>
      <trkpt lat="45.50395" lon="6.69537">
        <ele>2165</ele>
        <time>2011-03-18T15:43:19.687Z</time>
      </trkpt>
      <trkpt lat="45.5035" lon="6.69524">
        <ele>2170</ele>
        <time>2011-03-18T15:43:31.683Z</time>
      </trkpt>
      <trkpt lat="45.50304" lon="6.6951">
        <ele>2176</ele>
        <time>2011-03-18T15:43:43.999Z</time>
      </trkpt>
      <trkpt lat="45.50257" lon="6.695">
        <ele>2182</ele>
        <time>2011-03-18T15:43:56.688Z</time>
      </trkpt>
      <trkpt lat="45.5021" lon="6.69486">
        <ele>2191</ele>
        <time>2011-03-18T15:44:09.699Z</time>
      </trkpt>
      <trkpt lat="45.50166" lon="6.6947">
        <ele>2200</ele>
        <time>2011-03-18T15:44:21.999Z</time>
      </trkpt>
      <trkpt lat="45.50121" lon="6.69455">
        <ele>2211</ele>
        <time>2011-03-18T15:44:34.709Z</time>
      </trkpt>
      <trkpt lat="45.50077" lon="6.69441">
        <ele>2221</ele>
        <time>2011-03-18T15:44:46.695Z</time>
      </trkpt>
      <trkpt lat="45.50031" lon="6.69428">
        <ele>2229</ele>
        <time>2011-03-18T15:44:59.982Z</time>
      </trkpt>
      <trkpt lat="45.49982" lon="6.69413">
        <ele>2238</ele>
        <time>2011-03-18T15:45:12.683Z</time>
      </trkpt>
      <trkpt lat="45.49935" lon="6.69398">
        <ele>2249</ele>
        <time>2011-03-18T15:45:25.702Z</time>
      </trkpt>
      <trkpt lat="45.49887" lon="6.69383">
        <ele>2260</ele>
        <time>2011-03-18T15:45:38.683Z</time>
      </trkpt>
      <trkpt lat="45.49841" lon="6.6937">
        <ele>2269</ele>
        <time>2011-03-18T15:45:51.694Z</time>
      </trkpt>
      <trkpt lat="45.49795" lon="6.69359">
        <ele>2276</ele>
        <time>2011-03-18T15:46:05.682Z</time>
      </trkpt>
      <trkpt lat="45.49787" lon="6.69331">
        <ele>2279</ele>
        <time>2011-03-18T15:46:21.718Z</time>
      </trkpt>
      <trkpt lat="45.49786" lon="6.69332">
        <ele>2278</ele>
        <time>2011-03-18T15:46:37.705Z</time>
      </trkpt>
      <trkpt lat="45.49783" lon="6.69332">
        <ele>2281</ele>
        <time>2011-03-18T15:46:53.000Z</time>
      </trkpt>
      <trkpt lat="45.49762" lon="6.69345">
        <ele>2280</ele>
        <time>2011-03-18T15:47:08.827Z</time>
      </trkpt>
      <trkpt lat="45.4973" lon="6.69276">
        <ele>2279</ele>
        <time>2011-03-18T15:47:11.696Z</time>
      </trkpt>
      <trkpt lat="45.49759" lon="6.69224">
        <ele>2278</ele>
        <time>2011-03-18T15:47:17.682Z</time>
      </trkpt>
      <trkpt lat="45.49802" lon="6.69185">
        <ele>2277</ele>
        <time>2011-03-18T15:47:25.999Z</time>
      </trkpt>
      <trkpt lat="45.49846" lon="6.6916">
        <ele>2275</ele>
        <time>2011-03-18T15:47:32.000Z</time>
      </trkpt>
      <trkpt lat="45.49887" lon="6.69127">
        <ele>2274</ele>
        <time>2011-03-18T15:47:40.683Z</time>
      </trkpt>
      <trkpt lat="45.49932" lon="6.69095">
        <ele>2272</ele>
        <time>2011-03-18T15:47:46.688Z</time>
      </trkpt>
      <trkpt lat="45.4998" lon="6.69078">
        <ele>2271</ele>
        <time>2011-03-18T15:47:52.683Z</time>
      </trkpt>
      <trkpt lat="45.50034" lon="6.6907">
        <ele>2270</ele>
        <time>2011-03-18T15:48:00.787Z</time>
      </trkpt>
      <trkpt lat="45.50081" lon="6.69063">
        <ele>2268</ele>
        <time>2011-03-18T15:48:05.000Z</time>
      </trkpt>
      <trkpt lat="45.5013" lon="6.69045">
        <ele>2267</ele>
        <time>2011-03-18T15:48:10.771Z</time>
      </trkpt>
      <trkpt lat="45.50169" lon="6.68996">
        <ele>2266</ele>
        <time>2011-03-18T15:48:15.730Z</time>
      </trkpt>
      <trkpt lat="45.50201" lon="6.68942">
        <ele>2265</ele>
        <time>2011-03-18T15:48:20.705Z</time>
      </trkpt>
      <trkpt lat="45.50237" lon="6.68889">
        <ele>2264</ele>
        <time>2011-03-18T15:48:25.694Z</time>
      </trkpt>
      <trkpt lat="45.50257" lon="6.68831">
        <ele>2263</ele>
        <time>2011-03-18T15:48:30.729Z</time>
      </trkpt>
      <trkpt lat="45.50285" lon="6.68774">
        <ele>2263</ele>
        <time>2011-03-18T15:48:36.999Z</time>
      </trkpt>
      <trkpt lat="45.50328" lon="6.68735">
        <ele>2260</ele>
        <time>2011-03-18T15:48:42.681Z</time>
      </trkpt>
      <trkpt lat="45.50358" lon="6.68667">
        <ele>2259</ele>
        <time>2011-03-18T15:48:47.999Z</time>
      </trkpt>
      <trkpt lat="45.5038" lon="6.68608">
        <ele>2257</ele>
        <time>2011-03-18T15:48:52.981Z</time>
      </trkpt>
      <trkpt lat="45.50416" lon="6.6853">
        <ele>2256</ele>
        <time>2011-03-18T15:48:58.999Z</time>
      </trkpt>
      <trkpt lat="45.50433" lon="6.68464">
        <ele>2253</ele>
        <time>2011-03-18T15:49:04.999Z</time>
      </trkpt>
      <trkpt lat="45.50423" lon="6.68396">
        <ele>2248</ele>
        <time>2011-03-18T15:49:12.999Z</time>
      </trkpt>
      <trkpt lat="45.50392" lon="6.6835">
        <ele>2242</ele>
        <time>2011-03-18T15:49:22.999Z</time>
      </trkpt>
      <trkpt lat="45.50356" lon="6.68308">
        <ele>2236</ele>
        <time>2011-03-18T15:49:33.996Z</time>
      </trkpt>
      <trkpt lat="45.50333" lon="6.68249">
        <ele>2234</ele>
        <time>2011-03-18T15:49:43.999Z</time>
      </trkpt>
      <trkpt lat="45.50316" lon="6.68188">
        <ele>2231</ele>
        <time>2011-03-18T15:49:53.999Z</time>
      </trkpt>
      <trkpt lat="45.50319" lon="6.68121">
        <ele>2229</ele>
        <time>2011-03-18T15:50:00.674Z</time>
      </trkpt>
      <trkpt lat="45.50334" lon="6.68059">
        <ele>2227</ele>
        <time>2011-03-18T15:50:07.999Z</time>
      </trkpt>
      <trkpt lat="45.50353" lon="6.67998">
        <ele>2222</ele>
        <time>2011-03-18T15:50:21.999Z</time>
      </trkpt>
      <trkpt lat="45.50361" lon="6.67932">
        <ele>2218</ele>
        <time>2011-03-18T15:50:35.999Z</time>
      </trkpt>
      <trkpt lat="45.5038" lon="6.6787">
        <ele>2214</ele>
        <time>2011-03-18T15:50:41.986Z</time>
      </trkpt>
      <trkpt lat="45.50412" lon="6.67817">
        <ele>2211</ele>
        <time>2011-03-18T15:50:46.999Z</time>
      </trkpt>
      <trkpt lat="45.50434" lon="6.67761">
        <ele>2191</ele>
        <time>2011-03-18T15:51:01.675Z</time>
      </trkpt>
      <trkpt lat="45.50443" lon="6.67751">
        <ele>2170</ele>
        <time>2011-03-18T15:51:16.999Z</time>
      </trkpt>
      <trkpt lat="45.50487" lon="6.67727">
        <ele>2159</ele>
        <time>2011-03-18T15:51:26.685Z</time>
      </trkpt>
      <trkpt lat="45.50487" lon="6.67691">
        <ele>2146</ele>
        <time>2011-03-18T15:51:42.684Z</time>
      </trkpt>
      <trkpt lat="45.50467" lon="6.6769">
        <ele>2133</ele>
        <time>2011-03-18T15:51:58.703Z</time>
      </trkpt>
      <trkpt lat="45.50451" lon="6.67698">
        <ele>2130</ele>
        <time>2011-03-18T15:52:14.681Z</time>
      </trkpt>
      <trkpt lat="45.50404" lon="6.67702">
        <ele>2120</ele>
        <time>2011-03-18T15:52:29.680Z</time>
      </trkpt>
      <trkpt lat="45.50358" lon="6.67709">
        <ele>2117</ele>
        <time>2011-03-18T15:52:44.685Z</time>
      </trkpt>
      <trkpt lat="45.50313" lon="6.67714">
        <ele>2115</ele>
        <time>2011-03-18T15:52:59.000Z</time>
      </trkpt>
      <trkpt lat="45.50268" lon="6.67723">
        <ele>2115</ele>
        <time>2011-03-18T15:53:14.682Z</time>
      </trkpt>
      <trkpt lat="45.50221" lon="6.67729">
        <ele>2116</ele>
        <time>2011-03-18T15:53:30.999Z</time>
      </trkpt>
      <trkpt lat="45.50174" lon="6.67736">
        <ele>2122</ele>
        <time>2011-03-18T15:53:46.703Z</time>
      </trkpt>
      <trkpt lat="45.50128" lon="6.67741">
        <ele>2128</ele>
        <time>2011-03-18T15:54:01.904Z</time>
      </trkpt>
      <trkpt lat="45.50083" lon="6.67741">
        <ele>2133</ele>
        <time>2011-03-18T15:54:15.999Z</time>
      </trkpt>
      <trkpt lat="45.50037" lon="6.67753">
        <ele>2140</ele>
        <time>2011-03-18T15:54:31.999Z</time>
      </trkpt>
      <trkpt lat="45.49991" lon="6.67762">
        <ele>2148</ele>
        <time>2011-03-18T15:54:46.997Z</time>
      </trkpt>
      <trkpt lat="45.49944" lon="6.6777">
        <ele>2158</ele>
        <time>2011-03-18T15:55:02.769Z</time>
      </trkpt>
      <trkpt lat="45.499" lon="6.67778">
        <ele>2168</ele>
        <time>2011-03-18T15:55:17.961Z</time>
      </trkpt>
      <trkpt lat="45.49855" lon="6.67786">
        <ele>2178</ele>
        <time>2011-03-18T15:55:32.777Z</time>
      </trkpt>
      <trkpt lat="45.49809" lon="6.67797">
        <ele>2192</ele>
        <time>2011-03-18T15:55:48.691Z</time>
      </trkpt>
      <trkpt lat="45.49763" lon="6.67805">
        <ele>2200</ele>
        <time>2011-03-18T15:56:03.696Z</time>
      </trkpt>
      <trkpt lat="45.49717" lon="6.67813">
        <ele>2208</ele>
        <time>2011-03-18T15:56:18.000Z</time>
      </trkpt>
      <trkpt lat="45.4967" lon="6.6782">
        <ele>2216</ele>
        <time>2011-03-18T15:56:33.678Z</time>
      </trkpt>
      <trkpt lat="45.49622" lon="6.67823">
        <ele>2226</ele>
        <time>2011-03-18T15:56:48.889Z</time>
      </trkpt>
      <trkpt lat="45.49576" lon="6.67836">
        <ele>2237</ele>
        <time>2011-03-18T15:57:04.690Z</time>
      </trkpt>
      <trkpt lat="45.49533" lon="6.67853">
        <ele>2250</ele>
        <time>2011-03-18T15:57:19.999Z</time>
      </trkpt>
      <trkpt lat="45.49488" lon="6.67853">
        <ele>2257</ele>
        <time>2011-03-18T15:57:33.706Z</time>
      </trkpt>
      <trkpt lat="45.49447" lon="6.67867">
        <ele>2267</ele>
        <time>2011-03-18T15:57:48.999Z</time>
      </trkpt>
      <trkpt lat="45.49401" lon="6.67883">
        <ele>2279</ele>
        <time>2011-03-18T15:58:04.687Z</time>
      </trkpt>
      <trkpt lat="45.49357" lon="6.67904">
        <ele>2290</ele>
        <time>2011-03-18T15:58:19.999Z</time>
      </trkpt>
      <trkpt lat="45.49346" lon="6.67883">
        <ele>2298</ele>
        <time>2011-03-18T15:58:35.697Z</time>
      </trkpt>
      <trkpt lat="45.49356" lon="6.67838">
        <ele>2305</ele>
        <time>2011-03-18T15:58:50.998Z</time>
      </trkpt>
      <trkpt lat="45.49398" lon="6.67805">
        <ele>2307</ele>
        <time>2011-03-18T15:58:58.711Z</time>
      </trkpt>
      <trkpt lat="45.49439" lon="6.67772">
        <ele>2308</ele>
        <time>2011-03-18T15:59:04.684Z</time>
      </trkpt>
      <trkpt lat="45.49473" lon="6.67735">
        <ele>2302</ele>
        <time>2011-03-18T15:59:20.999Z</time>
      </trkpt>
      <trkpt lat="45.49473" lon="6.67738">
        <ele>2295</ele>
        <time>2011-03-18T15:59:36.693Z</time>
      </trkpt>
      <trkpt lat="45.49524" lon="6.67726">
        <ele>2294</ele>
        <time>2011-03-18T15:59:50.999Z</time>
      </trkpt>
      <trkpt lat="45.49574" lon="6.67725">
        <ele>2293</ele>
        <time>2011-03-18T15:59:54.736Z</time>
      </trkpt>
      <trkpt lat="45.49628" lon="6.67718">
        <ele>2291</ele>
        <time>2011-03-18T15:59:59.692Z</time>
      </trkpt>
      <trkpt lat="45.49683" lon="6.67705">
        <ele>2289</ele>
        <time>2011-03-18T16:00:04.677Z</time>
      </trkpt>
      <trkpt lat="45.49727" lon="6.67659">
        <ele>2286</ele>
        <time>2011-03-18T16:00:09.686Z</time>
      </trkpt>
      <trkpt lat="45.49768" lon="6.67614">
        <ele>2285</ele>
        <time>2011-03-18T16:00:14.672Z</time>
      </trkpt>
      <trkpt lat="45.4981" lon="6.67587">
        <ele>2283</ele>
        <time>2011-03-18T16:00:18.999Z</time>
      </trkpt>
      <trkpt lat="45.49854" lon="6.67564">
        <ele>2281</ele>
        <time>2011-03-18T16:00:22.000Z</time>
      </trkpt>
      <trkpt lat="45.49897" lon="6.67535">
        <ele>2279</ele>
        <time>2011-03-18T16:00:26.686Z</time>
      </trkpt>
      <trkpt lat="45.49948" lon="6.67527">
        <ele>2274</ele>
        <time>2011-03-18T16:00:30.700Z</time>
      </trkpt>
      <trkpt lat="45.49999" lon="6.67538">
        <ele>2266</ele>
        <time>2011-03-18T16:00:35.708Z</time>
      </trkpt>
      <trkpt lat="45.49998" lon="6.67573">
        <ele>2253</ele>
        <time>2011-03-18T16:00:51.688Z</time>
      </trkpt>
      <trkpt lat="45.50001" lon="6.67564">
        <ele>2249</ele>
        <time>2011-03-18T16:01:06.699Z</time>
      </trkpt>
      <trkpt lat="45.50002" lon="6.67562">
        <ele>2244</ele>
        <time>2011-03-18T16:01:22.687Z</time>
      </trkpt>
      <trkpt lat="45.50002" lon="6.67562">
        <ele>2244</ele>
        <time>2011-03-18T16:01:38.686Z</time>
      </trkpt>
      <trkpt lat="45.49973" lon="6.67567">
        <ele>2232</ele>
        <time>2011-03-18T16:01:54.680Z</time>
      </trkpt>
      <trkpt lat="45.49938" lon="6.67562">
        <ele>2228</ele>
        <time>2011-03-18T16:02:09.999Z</time>
      </trkpt>
      <trkpt lat="45.49904" lon="6.67556">
        <ele>2225</ele>
        <time>2011-03-18T16:02:25.999Z</time>
      </trkpt>
      <trkpt lat="45.49874" lon="6.67554">
        <ele>2225</ele>
        <time>2011-03-18T16:02:41.999Z</time>
      </trkpt>
      <trkpt lat="45.49842" lon="6.67548">
        <ele>2223</ele>
        <time>2011-03-18T16:02:57.996Z</time>
      </trkpt>
      <trkpt lat="45.49814" lon="6.67543">
        <ele>2224</ele>
        <time>2011-03-18T16:03:12.999Z</time>
      </trkpt>
      <trkpt lat="45.49784" lon="6.67539">
        <ele>2228</ele>
        <time>2011-03-18T16:03:28.999Z</time>
      </trkpt>
      <trkpt lat="45.49755" lon="6.67537">
        <ele>2232</ele>
        <time>2011-03-18T16:03:44.998Z</time>
      </trkpt>
      <trkpt lat="45.49728" lon="6.67535">
        <ele>2235</ele>
        <time>2011-03-18T16:03:59.999Z</time>
      </trkpt>
      <trkpt lat="45.49698" lon="6.67533">
        <ele>2239</ele>
        <time>2011-03-18T16:04:15.998Z</time>
      </trkpt>
      <trkpt lat="45.49666" lon="6.67526">
        <ele>2240</ele>
        <time>2011-03-18T16:04:31.999Z</time>
      </trkpt>
      <trkpt lat="45.49635" lon="6.67519">
        <ele>2243</ele>
        <time>2011-03-18T16:04:47.819Z</time>
      </trkpt>
      <trkpt lat="45.49604" lon="6.67514">
        <ele>2245</ele>
        <time>2011-03-18T16:05:03.683Z</time>
      </trkpt>
      <trkpt lat="45.49576" lon="6.67511">
        <ele>2249</ele>
        <time>2011-03-18T16:05:18.684Z</time>
      </trkpt>
      <trkpt lat="45.49548" lon="6.67516">
        <ele>2253</ele>
        <time>2011-03-18T16:05:34.672Z</time>
      </trkpt>
      <trkpt lat="45.49522" lon="6.67518">
        <ele>2258</ele>
        <time>2011-03-18T16:05:49.676Z</time>
      </trkpt>
      <trkpt lat="45.49493" lon="6.67514">
        <ele>2260</ele>
        <time>2011-03-18T16:06:04.687Z</time>
      </trkpt>
      <trkpt lat="45.49462" lon="6.67515">
        <ele>2265</ele>
        <time>2011-03-18T16:06:20.000Z</time>
      </trkpt>
      <trkpt lat="45.49434" lon="6.67518">
        <ele>2266</ele>
        <time>2011-03-18T16:06:35.697Z</time>
      </trkpt>
      <trkpt lat="45.49403" lon="6.6752">
        <ele>2267</ele>
        <time>2011-03-18T16:06:51.684Z</time>
      </trkpt>
      <trkpt lat="45.49375" lon="6.67526">
        <ele>2269</ele>
        <time>2011-03-18T16:07:07.688Z</time>
      </trkpt>
      <trkpt lat="45.49347" lon="6.67522">
        <ele>2270</ele>
        <time>2011-03-18T16:07:23.671Z</time>
      </trkpt>
      <trkpt lat="45.49323" lon="6.67519">
        <ele>2272</ele>
        <time>2011-03-18T16:07:38.698Z</time>
      </trkpt>
      <trkpt lat="45.49309" lon="6.67506">
        <ele>2284</ele>
        <time>2011-03-18T16:07:53.999Z</time>
      </trkpt>
      <trkpt lat="45.49286" lon="6.67501">
        <ele>2307</ele>
        <time>2011-03-18T16:08:09.999Z</time>
      </trkpt>
      <trkpt lat="45.49256" lon="6.67503">
        <ele>2326</ele>
        <time>2011-03-18T16:08:25.999Z</time>
      </trkpt>
      <trkpt lat="45.49224" lon="6.67505">
        <ele>2342</ele>
        <time>2011-03-18T16:08:41.998Z</time>
      </trkpt>
      <trkpt lat="45.49198" lon="6.67507">
        <ele>2355</ele>
        <time>2011-03-18T16:08:56.999Z</time>
      </trkpt>
      <trkpt lat="45.49169" lon="6.6751">
        <ele>2367</ele>
        <time>2011-03-18T16:09:12.961Z</time>
      </trkpt>
      <trkpt lat="45.49139" lon="6.67512">
        <ele>2377</ele>
        <time>2011-03-18T16:09:28.769Z</time>
      </trkpt>
      <trkpt lat="45.49111" lon="6.67511">
        <ele>2385</ele>
        <time>2011-03-18T16:09:44.693Z</time>
      </trkpt>
      <trkpt lat="45.49083" lon="6.67513">
        <ele>2397</ele>
        <time>2011-03-18T16:10:00.672Z</time>
      </trkpt>
      <trkpt lat="45.49056" lon="6.67508">
        <ele>2409</ele>
        <time>2011-03-18T16:10:16.000Z</time>
      </trkpt>
      <trkpt lat="45.49031" lon="6.67508">
        <ele>2420</ele>
        <time>2011-03-18T16:10:31.671Z</time>
      </trkpt>
      <trkpt lat="45.49004" lon="6.67503">
        <ele>2430</ele>
        <time>2011-03-18T16:10:47.000Z</time>
      </trkpt>
      <trkpt lat="45.48987" lon="6.67502">
        <ele>2438</ele>
        <time>2011-03-18T16:11:02.678Z</time>
      </trkpt>
      <trkpt lat="45.48963" lon="6.67497">
        <ele>2448</ele>
        <time>2011-03-18T16:11:18.000Z</time>
      </trkpt>
      <trkpt lat="45.48937" lon="6.67492">
        <ele>2457</ele>
        <time>2011-03-18T16:11:33.695Z</time>
      </trkpt>
      <trkpt lat="45.48912" lon="6.67486">
        <ele>2463</ele>
        <time>2011-03-18T16:11:48.985Z</time>
      </trkpt>
      <trkpt lat="45.48875" lon="6.675">
        <ele>2469</ele>
        <time>2011-03-18T16:12:04.674Z</time>
      </trkpt>
      <trkpt lat="45.4887" lon="6.67515">
        <ele>2483</ele>
        <time>2011-03-18T16:12:19.999Z</time>
      </trkpt>
      <trkpt lat="45.4888" lon="6.67541">
        <ele>2488</ele>
        <time>2011-03-18T16:12:35.697Z</time>
      </trkpt>
      <trkpt lat="45.48893" lon="6.67564">
        <ele>2489</ele>
        <time>2011-03-18T16:12:50.999Z</time>
      </trkpt>
      <trkpt lat="45.48906" lon="6.67607">
        <ele>2491</ele>
        <time>2011-03-18T16:13:06.692Z</time>
      </trkpt>
      <trkpt lat="45.48926" lon="6.67664">
        <ele>2494</ele>
        <time>2011-03-18T16:13:17.667Z</time>
      </trkpt>
      <trkpt lat="45.48958" lon="6.67712">
        <ele>2495</ele>
        <time>2011-03-18T16:13:25.999Z</time>
      </trkpt>
      <trkpt lat="45.48981" lon="6.67779">
        <ele>2496</ele>
        <time>2011-03-18T16:13:33.686Z</time>
      </trkpt>
      <trkpt lat="45.48983" lon="6.67849">
        <ele>2495</ele>
        <time>2011-03-18T16:13:40.669Z</time>
      </trkpt>
      <trkpt lat="45.49028" lon="6.67839">
        <ele>2489</ele>
        <time>2011-03-18T16:13:54.999Z</time>
      </trkpt>
      <trkpt lat="45.49055" lon="6.67784">
        <ele>2487</ele>
        <time>2011-03-18T16:14:03.677Z</time>
      </trkpt>
      <trkpt lat="45.49098" lon="6.6775">
        <ele>2483</ele>
        <time>2011-03-18T16:14:10.697Z</time>
      </trkpt>
      <trkpt lat="45.49083" lon="6.67689">
        <ele>2483</ele>
        <time>2011-03-18T16:14:17.676Z</time>
      </trkpt>
      <trkpt lat="45.49083" lon="6.67624">
        <ele>2482</ele>
        <time>2011-03-18T16:14:25.999Z</time>
      </trkpt>
      <trkpt lat="45.49102" lon="6.67565">
        <ele>2480</ele>
        <time>2011-03-18T16:14:32.000Z</time>
      </trkpt>
      <trkpt lat="45.49138" lon="6.67514">
        <ele>2477</ele>
        <time>2011-03-18T16:14:41.674Z</time>
      </trkpt>
      <trkpt lat="45.49176" lon="6.67476">
        <ele>2474</ele>
        <time>2011-03-18T16:14:47.670Z</time>
      </trkpt>
      <trkpt lat="45.49221" lon="6.67452">
        <ele>2469</ele>
        <time>2011-03-18T16:14:56.999Z</time>
      </trkpt>
      <trkpt lat="45.4927" lon="6.67429">
        <ele>2465</ele>
        <time>2011-03-18T16:15:05.673Z</time>
      </trkpt>
      <trkpt lat="45.49322" lon="6.67402">
        <ele>2461</ele>
        <time>2011-03-18T16:15:09.680Z</time>
      </trkpt>
      <trkpt lat="45.49367" lon="6.67379">
        <ele>2454</ele>
        <time>2011-03-18T16:15:14.704Z</time>
      </trkpt>
      <trkpt lat="45.49416" lon="6.67354">
        <ele>2446</ele>
        <time>2011-03-18T16:15:21.671Z</time>
      </trkpt>
      <trkpt lat="45.49464" lon="6.67335">
        <ele>2441</ele>
        <time>2011-03-18T16:15:27.666Z</time>
      </trkpt>
      <trkpt lat="45.49516" lon="6.67321">
        <ele>2436</ele>
        <time>2011-03-18T16:15:34.985Z</time>
      </trkpt>
      <trkpt lat="45.49567" lon="6.67325">
        <ele>2431</ele>
        <time>2011-03-18T16:15:39.715Z</time>
      </trkpt>
      <trkpt lat="45.49598" lon="6.67382">
        <ele>2416</ele>
        <time>2011-03-18T16:15:48.682Z</time>
      </trkpt>
      <trkpt lat="45.49645" lon="6.67402">
        <ele>2405</ele>
        <time>2011-03-18T16:15:57.672Z</time>
      </trkpt>
      <trkpt lat="45.49696" lon="6.6739">
        <ele>2398</ele>
        <time>2011-03-18T16:16:04.983Z</time>
      </trkpt>
      <trkpt lat="45.49743" lon="6.67411">
        <ele>2390</ele>
        <time>2011-03-18T16:16:10.692Z</time>
      </trkpt>
      <trkpt lat="45.49794" lon="6.6744">
        <ele>2385</ele>
        <time>2011-03-18T16:16:16.688Z</time>
      </trkpt>
      <trkpt lat="45.49809" lon="6.67506">
        <ele>2374</ele>
        <time>2011-03-18T16:16:26.667Z</time>
      </trkpt>
      <trkpt lat="45.49847" lon="6.67544">
        <ele>2368</ele>
        <time>2011-03-18T16:16:31.999Z</time>
      </trkpt>
      <trkpt lat="45.49907" lon="6.67566">
        <ele>2358</ele>
        <time>2011-03-18T16:16:35.000Z</time>
      </trkpt>
      <trkpt lat="45.49957" lon="6.67597">
        <ele>2351</ele>
        <time>2011-03-18T16:16:40.686Z</time>
      </trkpt>
      <trkpt lat="45.50003" lon="6.67598">
        <ele>2344</ele>
        <time>2011-03-18T16:16:45.698Z</time>
      </trkpt>
      <trkpt lat="45.50052" lon="6.67571">
        <ele>2338</ele>
        <time>2011-03-18T16:16:50.665Z</time>
      </trkpt>
      <trkpt lat="45.50098" lon="6.6755">
        <ele>2330</ele>
        <time>2011-03-18T16:16:57.665Z</time>
      </trkpt>
      <trkpt lat="45.50151" lon="6.6753">
        <ele>2323</ele>
        <time>2011-03-18T16:17:03.000Z</time>
      </trkpt>
      <trkpt lat="45.502" lon="6.67525">
        <ele>2318</ele>
        <time>2011-03-18T16:17:08.000Z</time>
      </trkpt>
      <trkpt lat="45.50257" lon="6.67518">
        <ele>2313</ele>
        <time>2011-03-18T16:17:13.692Z</time>
      </trkpt>
      <trkpt lat="45.50302" lon="6.67525">
        <ele>2303</ele>
        <time>2011-03-18T16:17:23.685Z</time>
      </trkpt>
      <trkpt lat="45.50354" lon="6.67531">
        <ele>2296</ele>
        <time>2011-03-18T16:17:30.999Z</time>
      </trkpt>
      <trkpt lat="45.504" lon="6.67525">
        <ele>2288</ele>
        <time>2011-03-18T16:17:39.999Z</time>
      </trkpt>
      <trkpt lat="45.50442" lon="6.67499">
        <ele>2278</ele>
        <time>2011-03-18T16:17:47.996Z</time>
      </trkpt>
      <trkpt lat="45.50494" lon="6.67489">
        <ele>2266</ele>
        <time>2011-03-18T16:17:55.672Z</time>
      </trkpt>
      <trkpt lat="45.5053" lon="6.67517">
        <ele>2242</ele>
        <time>2011-03-18T16:18:11.666Z</time>
      </trkpt>
      <trkpt lat="45.50479" lon="6.67527">
        <ele>2234</ele>
        <time>2011-03-18T16:18:19.000Z</time>
      </trkpt>
      <trkpt lat="45.50448" lon="6.67515">
        <ele>2224</ele>
        <time>2011-03-18T16:18:34.677Z</time>
      </trkpt>
      <trkpt lat="45.50453" lon="6.67522">
        <ele>2197</ele>
        <time>2011-03-18T16:18:50.000Z</time>
      </trkpt>
      <trkpt lat="45.50437" lon="6.67529">
        <ele>2175</ele>
        <time>2011-03-18T16:19:05.684Z</time>
      </trkpt>
      <trkpt lat="45.50431" lon="6.67528">
        <ele>2168</ele>
        <time>2011-03-18T16:19:21.690Z</time>
      </trkpt>
      <trkpt lat="45.50428" lon="6.6752">
        <ele>2161</ele>
        <time>2011-03-18T16:19:37.676Z</time>
      </trkpt>
      <trkpt lat="45.50431" lon="6.67519">
        <ele>2155</ele>
        <time>2011-03-18T16:19:53.691Z</time>
      </trkpt>
      <trkpt lat="45.50435" lon="6.67511">
        <ele>2143</ele>
        <time>2011-03-18T16:20:09.680Z</time>
      </trkpt>
      <trkpt lat="45.50437" lon="6.67507">
        <ele>2136</ele>
        <time>2011-03-18T16:20:24.691Z</time>
      </trkpt>
      <trkpt lat="45.5046" lon="6.67564">
        <ele>2123</ele>
        <time>2011-03-18T16:20:40.663Z</time>
      </trkpt>
      <trkpt lat="45.50483" lon="6.67625">
        <ele>2110</ele>
        <time>2011-03-18T16:20:53.000Z</time>
      </trkpt>
      <trkpt lat="45.50508" lon="6.67682">
        <ele>2092</ele>
        <time>2011-03-18T16:21:07.669Z</time>
      </trkpt>
      <trkpt lat="45.50529" lon="6.67709">
        <ele>2081</ele>
        <time>2011-03-18T16:21:23.000Z</time>
      </trkpt>
      <trkpt lat="45.50568" lon="6.67676">
        <ele>2064</ele>
        <time>2011-03-18T16:21:37.664Z</time>
      </trkpt>
      <trkpt lat="45.50588" lon="6.67661">
        <ele>2063</ele>
        <time>2011-03-18T16:21:53.000Z</time>
      </trkpt>
      <trkpt lat="45.50596" lon="6.67645">
        <ele>2062</ele>
        <time>2011-03-18T16:22:08.691Z</time>
      </trkpt>
      <trkpt lat="45.50596" lon="6.67611">
        <ele>2060</ele>
        <time>2011-03-18T16:22:24.700Z</time>
      </trkpt>
      <trkpt lat="45.50597" lon="6.67598">
        <ele>2060</ele>
        <time>2011-03-18T16:22:40.681Z</time>
      </trkpt>
      <trkpt lat="45.50597" lon="6.67624">
        <ele>2060</ele>
        <time>2011-03-18T16:22:55.691Z</time>
      </trkpt>
      <trkpt lat="45.50604" lon="6.67643">
        <ele>2057</ele>
        <time>2011-03-18T16:23:11.664Z</time>
      </trkpt>
      <trkpt lat="45.50612" lon="6.67655">
        <ele>2057</ele>
        <time>2011-03-18T16:23:26.670Z</time>
      </trkpt>
      <trkpt lat="45.50619" lon="6.67673">
        <ele>2057</ele>
        <time>2011-03-18T16:23:41.999Z</time>
      </trkpt>
      <trkpt lat="45.50645" lon="6.67675">
        <ele>2057</ele>
        <time>2011-03-18T16:24:24.000Z</time>
      </trkpt>
      <trkpt lat="45.5067" lon="6.67627">
        <ele>2056</ele>
        <time>2011-03-18T16:26:14.000Z</time>
      </trkpt>
      <trkpt lat="45.50696" lon="6.67565">
        <ele>2056</ele>
        <time>2011-03-18T16:26:26.865Z</time>
      </trkpt>
      <trkpt lat="45.5072" lon="6.67506">
        <ele>2056</ele>
        <time>2011-03-18T16:26:36.667Z</time>
      </trkpt>
      <trkpt lat="45.50747" lon="6.67451">
        <ele>2056</ele>
        <time>2011-03-18T16:26:45.663Z</time>
      </trkpt>
      <trkpt lat="45.50764" lon="6.67389">
        <ele>2056</ele>
        <time>2011-03-18T16:26:53.659Z</time>
      </trkpt>
      <trkpt lat="45.50783" lon="6.67324">
        <ele>2057</ele>
        <time>2011-03-18T16:27:01.980Z</time>
      </trkpt>
      <trkpt lat="45.5081" lon="6.67268">
        <ele>2057</ele>
        <time>2011-03-18T16:27:08.689Z</time>
      </trkpt>
      <trkpt lat="45.50854" lon="6.67162">
        <ele>2057</ele>
        <time>2011-03-18T16:27:21.000Z</time>
      </trkpt>
      <trkpt lat="45.50873" lon="6.67099">
        <ele>2058</ele>
        <time>2011-03-18T16:27:28.680Z</time>
      </trkpt>
      <trkpt lat="45.50894" lon="6.67041">
        <ele>2058</ele>
        <time>2011-03-18T16:27:35.993Z</time>
      </trkpt>
      <trkpt lat="45.51077" lon="6.6668">
        <ele>2130</ele>
        <time>2011-03-18T16:35:24.000Z</time>
      </trkpt>
      <trkpt lat="45.51106" lon="6.66675">
        <ele>2128</ele>
        <time>2011-03-18T16:35:40.000Z</time>
      </trkpt>
      <trkpt lat="45.51112" lon="6.66666">
        <ele>2130</ele>
        <time>2011-03-18T16:35:55.664Z</time>
      </trkpt>
      <trkpt lat="45.51125" lon="6.66653">
        <ele>2133</ele>
        <time>2011-03-18T16:36:11.000Z</time>
      </trkpt>
      <trkpt lat="45.51136" lon="6.66649">
        <ele>2135</ele>
        <time>2011-03-18T16:36:26.665Z</time>
      </trkpt>
      <trkpt lat="45.51151" lon="6.66638">
        <ele>2136</ele>
        <time>2011-03-18T16:36:41.692Z</time>
      </trkpt>
      <trkpt lat="45.51162" lon="6.66628">
        <ele>2136</ele>
        <time>2011-03-18T16:36:57.670Z</time>
      </trkpt>
    </trkseg>
  </trk>
</gpx>